| time (UTC) | temp F | wind direction | speed MPH | gust MPH | rain 1hr in | rain 24hr in | rain mn in | humidity % | barometer mb |
| 20260902215137 | 93 | 225 | 4.0 | 7.0 | 0.00 | 0.00 | 0.00 | 67 | 1013.5 |
| 20260902215030 | 93 | 240 | 4.0 | 7.0 | 0.00 | 0.00 | 0.00 | 67 | 1013.5 |
| 20260902214942 | 93 | 212 | 3.0 | 7.0 | 0.00 | 0.00 | 0.00 | 68 | 1013.5 |
| 20260902214833 | 93 | 45 | 3.0 | 7.0 | 0.00 | 0.00 | 0.00 | 67 | 1013.5 |
| 20260902214756 | 93 | 234 | 3.0 | 9.0 | 0.00 | 0.00 | 0.00 | 67 | 1013.5 |
| 20260902214650 | 93 | 210 | 3.0 | 9.0 | 0.00 | 0.00 | 0.00 | 67 | 1013.5 |
| 20260902214540 | 93 | 227 | 3.0 | 9.0 | 0.00 | 0.00 | 0.00 | 67 | 1013.5 |
| 20260902214431 | 93 | 246 | 3.0 | 9.0 | 0.00 | 0.00 | 0.00 | 67 | 1013.5 |
| 20260902214340 | 93 | 259 | 4.0 | 9.0 | 0.00 | 0.00 | 0.00 | 67 | 1013.5 |
| 20260902214232 | 93 | 185 | 5.0 | 9.0 | 0.00 | 0.00 | 0.00 | 66 | 1013.5 |
| 20260902214125 | 93 | 231 | 4.0 | 9.0 | 0.00 | 0.00 | 0.00 | 66 | 1013.5 |
| 20260902214036 | 93 | 234 | 4.0 | 9.0 | 0.00 | 0.00 | 0.00 | 67 | 1013.5 |
| 20260902213927 | 93 | 222 | 5.0 | 9.0 | 0.00 | 0.00 | 0.00 | 66 | 1013.6 |
| 20260902213839 | 93 | 218 | 4.0 | 9.0 | 0.00 | 0.00 | 0.00 | 66 | 1013.6 |
| 20260902213754 | 93 | 257 | 3.0 | 8.0 | 0.00 | 0.00 | 0.00 | 67 | 1013.5 |
| 20260902213645 | 93 | 218 | 3.0 | 8.0 | 0.00 | 0.00 | 0.00 | 67 | 1013.6 |
| 20260902213556 | 93 | 227 | 2.0 | 6.0 | 0.00 | 0.00 | 0.00 | 67 | 1013.7 |
| 20260902213426 | 93 | 225 | 2.0 | 6.0 | 0.00 | 0.00 | 0.00 | 67 | 1013.6 |
| 20260902213339 | 93 | 225 | 3.0 | 9.0 | 0.00 | 0.00 | 0.00 | 67 | 1013.7 |
| 20260902213230 | 93 | 240 | 3.0 | 9.0 | 0.00 | 0.00 | 0.00 | 66 | 1013.5 |
| 20260902213153 | 93 | 251 | 3.0 | 9.0 | 0.00 | 0.00 | 0.00 | 66 | 1013.5 |
| 20260902213043 | 93 | 235 | 3.0 | 9.0 | 0.00 | 0.00 | 0.00 | 66 | 1013.6 |
| 20260902212954 | 93 | 247 | 2.0 | 9.0 | 0.00 | 0.00 | 0.00 | 66 | 1013.6 |
| 20260902212824 | 93 | 184 | 3.0 | 9.0 | 0.00 | 0.00 | 0.00 | 65 | 1013.6 |
| 20260902212739 | 93 | 299 | 4.0 | 9.0 | 0.00 | 0.00 | 0.00 | 65 | 1013.6 |
| 20260902212652 | 93 | 207 | 5.0 | 9.0 | 0.00 | 0.00 | 0.00 | 65 | 1013.6 |
| 20260902212523 | 93 | 243 | 4.0 | 8.0 | 0.00 | 0.00 | 0.00 | 66 | 1013.5 |
| 20260902212435 | 93 | 272 | 4.0 | 8.0 | 0.00 | 0.00 | 0.00 | 66 | 1013.5 |
| 20260902212327 | 93 | 272 | 4.0 | 8.0 | 0.00 | 0.00 | 0.00 | 66 | 1013.6 |
| 20260902212238 | 93 | 255 | 3.0 | 8.0 | 0.00 | 0.00 | 0.00 | 66 | 1013.5 |
| 20260902212130 | 93 | 221 | 3.0 | 9.0 | 0.00 | 0.00 | 0.00 | 66 | 1013.5 |
| 20260902212043 | 93 | 211 | 2.0 | 9.0 | 0.00 | 0.00 | 0.00 | 66 | 1013.6 |
| 20260902211954 | 93 | 242 | 3.0 | 9.0 | 0.00 | 0.00 | 0.00 | 67 | 1013.6 |
| 20260902211906 | 93 | 259 | 3.0 | 9.0 | 0.00 | 0.00 | 0.00 | 66 | 1013.5 |
| 20260902211823 | 93 | 236 | 2.0 | 9.0 | 0.00 | 0.00 | 0.00 | 66 | 1013.5 |
| 20260902211722 | 93 | 245 | 3.0 | 9.0 | 0.00 | 0.00 | 0.00 | 66 | 1013.5 |
| 20260902211533 | 93 | 269 | 4.0 | 9.0 | 0.00 | 0.00 | 0.00 | 65 | 1013.5 |
| 20260902211425 | 93 | 242 | 5.0 | 9.0 | 0.00 | 0.00 | 0.00 | 66 | 1013.7 |
| 20260902211337 | 93 | 251 | 4.0 | 9.0 | 0.00 | 0.00 | 0.00 | 66 | 1013.5 |
| 20260902211229 | 93 | 254 | 3.0 | 9.0 | 0.00 | 0.00 | 0.00 | 69 | 1013.6 |
| 20260902211141 | 93 | 263 | 2.0 | 5.0 | 0.00 | 0.00 | 0.00 | 69 | 1013.6 |
| 20260902211032 | 93 | 284 | 2.0 | 7.0 | 0.00 | 0.00 | 0.00 | 68 | 1013.5 |
| 20260902210943 | 93 | 119 | 2.0 | 7.0 | 0.00 | 0.00 | 0.00 | 68 | 1013.5 |
| 20260902210859 | 93 | 237 | 2.0 | 8.0 | 0.00 | 0.00 | 0.00 | 68 | 1013.5 |
| 20260902210730 | 93 | 152 | 2.0 | 8.0 | 0.00 | 0.00 | 0.00 | 67 | 1013.6 |
| 20260902210642 | 93 | 255 | 2.0 | 8.0 | 0.00 | 0.00 | 0.00 | 68 | 1013.6 |
| 20260902210556 | 93 | 159 | 1.0 | 8.0 | 0.00 | 0.00 | 0.00 | 69 | 1013.7 |
| 20260902210426 | 93 | 167 | 2.0 | 9.0 | 0.00 | 0.00 | 0.00 | 68 | 1013.7 |
| 20260902210338 | 93 | 225 | 2.0 | 9.0 | 0.00 | 0.00 | 0.00 | 68 | 1013.6 |
| 20260902210227 | 93 | 175 | 2.0 | 9.0 | 0.00 | 0.00 | 0.00 | 67 | 1013.6 |
| 20260902210150 | 93 | 237 | 3.0 | 9.0 | 0.00 | 0.00 | 0.00 | 67 | 1013.6 |
| 20260902210040 | 93 | 223 | 4.0 | 9.0 | 0.00 | 0.00 | 0.00 | 66 | 1013.7 |
| 20260902205951 | 93 | 202 | 3.0 | 9.0 | 0.00 | 0.00 | 0.00 | 66 | 1013.7 |
| 20260902205846 | 93 | 249 | 4.0 | 9.0 | 0.00 | 0.00 | 0.00 | 67 | 1013.7 |
| 20260902205759 | 93 | 187 | 3.0 | 9.0 | 0.00 | 0.00 | 0.00 | 66 | 1013.8 |
| 20260902205649 | 93 | 140 | 3.0 | 9.0 | 0.00 | 0.00 | 0.00 | 66 | 1013.7 |
| 20260902205600 | 93 | 98 | 3.0 | 7.0 | 0.00 | 0.00 | 0.00 | 66 | 1013.7 |
| 20260902205511 | 93 | 258 | 2.0 | 7.0 | 0.00 | 0.00 | 0.00 | 66 | 1013.8 |
| 20260902205402 | 93 | 184 | 2.0 | 7.0 | 0.00 | 0.00 | 0.00 | 66 | 1013.8 |
| 20260902205253 | 93 | 153 | 3.0 | 7.0 | 0.00 | 0.00 | 0.00 | 66 | 1013.8 |
| 20260902205205 | 93 | 94 | 3.0 | 7.0 | 0.00 | 0.00 | 0.00 | 66 | 1013.8 |
| 20260902205035 | 93 | 275 | 3.0 | 7.0 | 0.00 | 0.00 | 0.00 | 66 | 1013.9 |
| 20260902204925 | 93 | 202 | 4.0 | 7.0 | 0.00 | 0.00 | 0.00 | 66 | 1013.8 |
| 20260902204837 | 93 | 247 | 3.0 | 8.0 | 0.00 | 0.00 | 0.00 | 66 | 1013.9 |
| 20260902204749 | 93 | 168 | 3.0 | 8.0 | 0.00 | 0.00 | 0.00 | 66 | 1013.9 |
| 20260902204715 | 93 | 300 | 3.0 | 8.0 | 0.00 | 0.00 | 0.00 | 66 | 1013.9 |
| 20260902204524 | 93 | 228 | 3.0 | 8.0 | 0.00 | 0.00 | 0.00 | 67 | 1013.9 |
| 20260902204435 | 93 | 237 | 4.0 | 8.0 | 0.00 | 0.00 | 0.00 | 67 | 1013.9 |
| 20260902204327 | 93 | 238 | 3.0 | 8.0 | 0.00 | 0.00 | 0.00 | 67 | 1013.9 |
| 20260902204239 | 93 | 215 | 2.0 | 8.0 | 0.00 | 0.00 | 0.00 | 69 | 1013.9 |
| 20260902204131 | 93 | 144 | 2.0 | 8.0 | 0.00 | 0.00 | 0.00 | 69 | 1013.9 |
| 20260902204042 | 93 | 247 | 2.0 | 8.0 | 0.00 | 0.00 | 0.00 | 69 | 1013.9 |
| 20260902203954 | 93 | 113 | 2.0 | 8.0 | 0.00 | 0.00 | 0.00 | 67 | 1013.9 |
| 20260902203846 | 93 | 276 | 2.0 | 8.0 | 0.00 | 0.00 | 0.00 | 67 | 1013.9 |
| 20260902203721 | 93 | 128 | 3.0 | 8.0 | 0.00 | 0.00 | 0.00 | 67 | 1013.9 |
| 20260902203633 | 93 | 234 | 4.0 | 8.0 | 0.00 | 0.00 | 0.00 | 66 | 1013.9 |
| 20260902203545 | 93 | 261 | 3.0 | 6.0 | 0.00 | 0.00 | 0.00 | 66 | 1014.0 |
| 20260902203457 | 93 | 237 | 3.0 | 6.0 | 0.00 | 0.00 | 0.00 | 67 | 1013.9 |
| 20260902203328 | 93 | 278 | 3.0 | 7.0 | 0.00 | 0.00 | 0.00 | 67 | 1013.9 |
| 20260902203237 | 93 | 29 | 2.0 | 7.0 | 0.00 | 0.00 | 0.00 | 67 | 1014.0 |
| 20260902203159 | 93 | 187 | 3.0 | 7.0 | 0.00 | 0.00 | 0.00 | 66 | 1014.0 |
| 20260902203031 | 93 | 215 | 4.0 | 7.0 | 0.00 | 0.00 | 0.00 | 66 | 1014.0 |
| 20260902202942 | 93 | 211 | 3.0 | 7.0 | 0.00 | 0.00 | 0.00 | 67 | 1014.0 |
| 20260902202854 | 93 | 238 | 2.0 | 7.0 | 0.00 | 0.00 | 0.00 | 66 | 1014.0 |
| 20260902202730 | 93 | 265 | 3.0 | 7.0 | 0.00 | 0.00 | 0.00 | 66 | 1014.0 |
| 20260902202641 | 93 | 248 | 2.0 | 7.0 | 0.00 | 0.00 | 0.00 | 66 | 1014.0 |
| 20260902202533 | 93 | 189 | 3.0 | 7.0 | 0.00 | 0.00 | 0.00 | 66 | 1014.1 |
| 20260902202424 | 93 | 223 | 3.0 | 7.0 | 0.00 | 0.00 | 0.00 | 66 | 1014.1 |
| 20260902202336 | 93 | 240 | 3.0 | 5.0 | 0.00 | 0.00 | 0.00 | 65 | 1014.0 |
| 20260902202227 | 93 | 153 | 2.0 | 5.0 | 0.00 | 0.00 | 0.00 | 67 | 1014.1 |
| 20260902202138 | 93 | 264 | 2.0 | 5.0 | 0.00 | 0.00 | 0.00 | 67 | 1014.2 |
| 20260902202030 | 93 | 243 | 2.0 | 5.0 | 0.00 | 0.00 | 0.00 | 67 | 1014.2 |
| 20260902201943 | 93 | 203 | 2.0 | 7.0 | 0.00 | 0.00 | 0.00 | 67 | 1014.3 |
| 20260902201858 | 93 | 246 | 3.0 | 7.0 | 0.00 | 0.00 | 0.00 | 68 | 1014.2 |
| 20260902201730 | 93 | 232 | 2.0 | 7.0 | 0.00 | 0.00 | 0.00 | 68 | 1014.2 |
| 20260902201651 | 93 | 234 | 2.0 | 7.0 | 0.00 | 0.00 | 0.00 | 68 | 1014.2 |
| 20260902201542 | 93 | 175 | 2.0 | 7.0 | 0.00 | 0.00 | 0.00 | 68 | 1014.3 |
| 20260902201454 | 93 | 90 | 2.0 | 7.0 | 0.00 | 0.00 | 0.00 | 68 | 1014.3 |
| 20260902201325 | 93 | 205 | 2.0 | 7.0 | 0.00 | 0.00 | 0.00 | 68 | 1014.3 |
| 20260902201236 | 93 | 282 | 2.0 | 7.0 | 0.00 | 0.00 | 0.00 | 68 | 1014.3 |
| 20260902201128 | 93 | 261 | 2.0 | 7.0 | 0.00 | 0.00 | 0.00 | 68 | 1014.3 |
| 20260902201040 | 93 | 170 | 2.0 | 7.0 | 0.00 | 0.00 | 0.00 | 68 | 1014.4 |
| 20260902200935 | 93 | 279 | 2.0 | 7.0 | 0.00 | 0.00 | 0.00 | 68 | 1014.4 |
| 20260902200847 | 93 | 157 | 2.0 | 7.0 | 0.00 | 0.00 | 0.00 | 67 | 1014.3 |
| 20260902200738 | 93 | 279 | 1.0 | 5.0 | 0.00 | 0.00 | 0.00 | 68 | 1014.4 |
| 20260902200631 | 93 | 150 | 1.0 | 5.0 | 0.00 | 0.00 | 0.00 | 69 | 1014.4 |
| 20260902200522 | 93 | 186 | 2.0 | 5.0 | 0.00 | 0.00 | 0.00 | 67 | 1014.5 |
| 20260902200433 | 93 | 229 | 3.0 | 5.0 | 0.00 | 0.00 | 0.00 | 68 | 1014.5 |
| 20260902200324 | 93 | 279 | 2.0 | 5.0 | 0.00 | 0.00 | 0.00 | 69 | 1014.4 |
| 20260902200234 | 93 | 224 | 2.0 | 5.0 | 0.00 | 0.00 | 0.00 | 68 | 1014.4 |
| 20260902200157 | 93 | 160 | 2.0 | 5.0 | 0.00 | 0.00 | 0.00 | 69 | 1014.4 |
| 20260902200027 | 93 | 142 | 2.0 | 5.0 | 0.00 | 0.00 | 0.00 | 68 | 1014.5 |
| 20260902195924 | 93 | 279 | 2.0 | 5.0 | 0.00 | 0.00 | 0.00 | 68 | 1014.5 |
| 20260902195836 | 93 | 265 | 2.0 | 5.0 | 0.00 | 0.00 | 0.00 | 68 | 1014.6 |
| 20260902195729 | 93 | 162 | 1.0 | 5.0 | 0.00 | 0.00 | 0.00 | 69 | 1014.5 |
| 20260902195640 | 93 | 130 | 2.0 | 5.0 | 0.00 | 0.00 | 0.00 | 69 | 1014.6 |
| 20260902195552 | 93 | 146 | 2.0 | 5.0 | 0.00 | 0.00 | 0.00 | 69 | 1014.6 |
| 20260902195444 | 93 | 169 | 2.0 | 6.0 | 0.00 | 0.00 | 0.00 | 69 | 1014.6 |
| 20260902195336 | 93 | 125 | 1.0 | 5.0 | 0.00 | 0.00 | 0.00 | 70 | 1014.6 |
| 20260902195249 | 92 | 237 | 2.0 | 5.0 | 0.00 | 0.00 | 0.00 | 69 | 1014.7 |
| 20260902195141 | 93 | 161 | 3.0 | 5.0 | 0.00 | 0.00 | 0.00 | 69 | 1014.7 |
| 20260902195032 | 92 | 149 | 3.0 | 7.0 | 0.00 | 0.00 | 0.00 | 69 | 1014.7 |
| 20260902194927 | 92 | 259 | 2.0 | 7.0 | 0.00 | 0.00 | 0.00 | 68 | 1014.7 |
| 20260902194840 | 92 | 198 | 2.0 | 7.0 | 0.00 | 0.00 | 0.00 | 69 | 1014.6 |
| 20260902194732 | 92 | 234 | 2.0 | 7.0 | 0.00 | 0.00 | 0.00 | 69 | 1014.7 |
| 20260902194653 | 92 | 234 | 2.0 | 7.0 | 0.00 | 0.00 | 0.00 | 69 | 1014.7 |
| 20260902194525 | 92 | 239 | 2.0 | 7.0 | 0.00 | 0.00 | 0.00 | 69 | 1014.8 |
| 20260902194437 | 92 | 241 | 2.0 | 7.0 | 0.00 | 0.00 | 0.00 | 68 | 1014.8 |
| 20260902194350 | 92 | 229 | 3.0 | 7.0 | 0.00 | 0.00 | 0.00 | 68 | 1014.8 |
| 20260902194221 | 92 | 228 | 3.0 | 7.0 | 0.00 | 0.00 | 0.00 | 68 | 1014.9 |
| 20260902194133 | 92 | 246 | 2.0 | 6.0 | 0.00 | 0.00 | 0.00 | 67 | 1014.8 |
| 20260902194050 | 92 | 178 | 2.0 | 6.0 | 0.00 | 0.00 | 0.00 | 67 | 1014.9 |
| 20260902193940 | 92 | 239 | 3.0 | 6.0 | 0.00 | 0.00 | 0.00 | 67 | 1015.0 |
| 20260902193832 | 92 | 194 | 3.0 | 6.0 | 0.00 | 0.00 | 0.00 | 67 | 1015.0 |
| 20260902193744 | 92 | 266 | 3.0 | 7.0 | 0.00 | 0.00 | 0.00 | 68 | 1015.0 |
| 20260902193635 | 92 | 242 | 3.0 | 4.0 | 0.00 | 0.00 | 0.00 | 68 | 1015.0 |
| 20260902193527 | 92 | 231 | 3.0 | 4.0 | 0.00 | 0.00 | 0.00 | 68 | 1015.0 |
| 20260902193439 | 92 | 225 | 2.0 | 4.0 | 0.00 | 0.00 | 0.00 | 70 | 1015.1 |
| 20260902193332 | 92 | 246 | 1.0 | 5.0 | 0.00 | 0.00 | 0.00 | 69 | 1015.0 |
| 20260902193241 | 92 | 149 | 1.0 | 5.0 | 0.00 | 0.00 | 0.00 | 70 | 1015.0 |
| 20260902193203 | 92 | 149 | 0.0 | 5.0 | 0.00 | 0.00 | 0.00 | 69 | 1015.0 |
| 20260902193058 | 92 | 174 | 1.0 | 5.0 | 0.00 | 0.00 | 0.00 | 69 | 1015.1 |
| 20260902192929 | 91 | 174 | 2.0 | 7.0 | 0.00 | 0.00 | 0.00 | 68 | 1015.0 |
| 20260902192841 | 91 | 220 | 2.0 | 7.0 | 0.00 | 0.00 | 0.00 | 68 | 1015.1 |
| 20260902192733 | 91 | 217 | 2.0 | 7.0 | 0.00 | 0.00 | 0.00 | 68 | 1015.1 |
| 20260902192645 | 91 | 202 | 2.0 | 7.0 | 0.00 | 0.00 | 0.00 | 69 | 1015.1 |
| 20260902192558 | 91 | 242 | 2.0 | 7.0 | 0.00 | 0.00 | 0.00 | 68 | 1015.1 |
| 20260902192429 | 91 | 253 | 2.0 | 7.0 | 0.00 | 0.00 | 0.00 | 68 | 1015.2 |
| 20260902192321 | 91 | 269 | 3.0 | 7.0 | 0.00 | 0.00 | 0.00 | 68 | 1015.2 |
| 20260902192233 | 91 | 259 | 3.0 | 7.0 | 0.00 | 0.00 | 0.00 | 68 | 1015.1 |
| 20260902192149 | 91 | 225 | 3.0 | 8.0 | 0.00 | 0.00 | 0.00 | 67 | 1015.2 |
| 20260902192102 | 91 | 247 | 2.0 | 8.0 | 0.00 | 0.00 | 0.00 | 68 | 1015.1 |
| 20260902191952 | 91 | 273 | 2.0 | 8.0 | 0.00 | 0.00 | 0.00 | 68 | 1015.2 |
| 20260902191843 | 91 | 241 | 1.0 | 8.0 | 0.00 | 0.00 | 0.00 | 68 | 1015.2 |
| 20260902191755 | 91 | 241 | 1.0 | 8.0 | 0.00 | 0.00 | 0.00 | 68 | 1015.2 |
| 20260902191718 | 91 | 218 | 2.0 | 8.0 | 0.00 | 0.00 | 0.00 | 67 | 1015.2 |
| 20260902191527 | 91 | 253 | 2.0 | 8.0 | 0.00 | 0.00 | 0.00 | 67 | 1015.2 |
| 20260902191439 | 91 | 232 | 2.0 | 8.0 | 0.00 | 0.00 | 0.00 | 66 | 1015.2 |
| 20260902191331 | 91 | 221 | 3.0 | 8.0 | 0.00 | 0.00 | 0.00 | 65 | 1015.2 |
| 20260902191222 | 91 | 232 | 4.0 | 8.0 | 0.00 | 0.00 | 0.00 | 65 | 1015.2 |
| 20260902191137 | 91 | 220 | 3.0 | 8.0 | 0.00 | 0.00 | 0.00 | 67 | 1015.3 |
| 20260902191029 | 91 | 252 | 3.0 | 7.0 | 0.00 | 0.00 | 0.00 | 67 | 1015.3 |
| 20260902190941 | 91 | 261 | 3.0 | 7.0 | 0.00 | 0.00 | 0.00 | 65 | 1015.4 |
| 20260902190853 | 91 | 227 | 3.0 | 5.0 | 0.00 | 0.00 | 0.00 | 66 | 1015.4 |
| 20260902190804 | 91 | 252 | 3.0 | 5.0 | 0.00 | 0.00 | 0.00 | 65 | 1015.3 |
| 20260902190656 | 91 | 164 | 2.0 | 5.0 | 0.00 | 0.00 | 0.00 | 65 | 1015.4 |
| 20260902190548 | 91 | 227 | 2.0 | 5.0 | 0.00 | 0.00 | 0.00 | 65 | 1015.4 |
| 20260902190501 | 91 | 230 | 3.0 | 5.0 | 0.00 | 0.00 | 0.00 | 66 | 1015.3 |
| 20260902190331 | 91 | 242 | 3.0 | 5.0 | 0.00 | 0.00 | 0.00 | 66 | 1015.3 |
| 20260902190222 | 91 | 237 | 2.0 | 4.0 | 0.00 | 0.00 | 0.00 | 67 | 1015.4 |
| 20260902190158 | 91 | 229 | 2.0 | 4.0 | 0.00 | 0.00 | 0.00 | 67 | 1015.4 |
| 20260902190050 | 91 | 223 | 1.0 | 4.0 | 0.00 | 0.00 | 0.00 | 68 | 1015.4 |
| 20260902190001 | 91 | 137 | 1.0 | 4.0 | 0.00 | 0.00 | 0.00 | 68 | 1015.4 |
| 20260902185913 | 91 | 273 | 1.0 | 5.0 | 0.00 | 0.00 | 0.00 | 69 | 1015.4 |
| 20260902185804 | 91 | 273 | 2.0 | 5.0 | 0.00 | 0.00 | 0.00 | 68 | 1015.4 |
| 20260902185655 | 90 | 273 | 2.0 | 5.0 | 0.00 | 0.00 | 0.00 | 67 | 1015.4 |
| 20260902185607 | 90 | 246 | 2.0 | 5.0 | 0.00 | 0.00 | 0.00 | 68 | 1015.5 |
| 20260902185457 | 90 | 249 | 1.0 | 7.0 | 0.00 | 0.00 | 0.00 | 68 | 1015.4 |
| 20260902185327 | 90 | 288 | 1.0 | 7.0 | 0.00 | 0.00 | 0.00 | 67 | 1015.4 |
| 20260902185240 | 90 | 291 | 2.0 | 7.0 | 0.00 | 0.00 | 0.00 | 67 | 1015.4 |
| 20260902185129 | 90 | 288 | 3.0 | 7.0 | 0.00 | 0.00 | 0.00 | 67 | 1015.5 |
| 20260902185042 | 90 | 273 | 3.0 | 8.0 | 0.00 | 0.00 | 0.00 | 68 | 1015.5 |
| 20260902184937 | 90 | 286 | 3.0 | 8.0 | 0.00 | 0.00 | 0.00 | 67 | 1015.5 |
| 20260902184829 | 90 | 294 | 3.0 | 8.0 | 0.00 | 0.00 | 0.00 | 67 | 1015.5 |
| 20260902184740 | 90 | 282 | 3.0 | 8.0 | 0.00 | 0.00 | 0.00 | 66 | 1015.5 |
| 20260902184701 | 90 | 282 | 4.0 | 8.0 | 0.00 | 0.00 | 0.00 | 66 | 1015.5 |
| 20260902184532 | 90 | 279 | 4.0 | 9.0 | 0.00 | 0.00 | 0.00 | 65 | 1015.5 |
| 20260902184424 | 90 | 238 | 3.0 | 9.0 | 0.00 | 0.00 | 0.00 | 67 | 1015.5 |
| 20260902184337 | 90 | 279 | 4.0 | 9.0 | 0.00 | 0.00 | 0.00 | 66 | 1015.5 |
| 20260902184249 | 90 | 259 | 4.0 | 9.0 | 0.00 | 0.00 | 0.00 | 66 | 1015.4 |
| 20260902184202 | 90 | 279 | 4.0 | 9.0 | 0.00 | 0.00 | 0.00 | 67 | 1015.5 |
| 20260902184036 | 90 | 269 | 3.0 | 9.0 | 0.00 | 0.00 | 0.00 | 68 | 1015.4 |
| 20260902183947 | 90 | 305 | 3.0 | 9.0 | 0.00 | 0.00 | 0.00 | 66 | 1015.4 |
| 20260902183839 | 90 | 295 | 4.0 | 9.0 | 0.00 | 0.00 | 0.00 | 64 | 1015.5 |
| 20260902183732 | 90 | 268 | 5.0 | 9.0 | 0.00 | 0.00 | 0.00 | 65 | 1015.5 |
| 20260902183623 | 90 | 326 | 5.0 | 9.0 | 0.00 | 0.00 | 0.00 | 66 | 1015.5 |
| 20260902183535 | 90 | 252 | 4.0 | 9.0 | 0.00 | 0.00 | 0.00 | 65 | 1015.4 |
| 20260902183426 | 90 | 250 | 3.0 | 7.0 | 0.00 | 0.00 | 0.00 | 66 | 1015.5 |
| 20260902183339 | 90 | 238 | 3.0 | 7.0 | 0.00 | 0.00 | 0.00 | 67 | 1015.5 |
| 20260902183248 | 90 | 280 | 2.0 | 7.0 | 0.00 | 0.00 | 0.00 | 67 | 1015.5 |
| 20260902183150 | 90 | 298 | 2.0 | 7.0 | 0.00 | 0.00 | 0.00 | 67 | 1015.5 |
| 20260902183045 | 90 | 239 | 1.0 | 7.0 | 0.00 | 0.00 | 0.00 | 69 | 1015.5 |
| 20260902182956 | 90 | 279 | 3.0 | 7.0 | 0.00 | 0.00 | 0.00 | 68 | 1015.6 |
| 20260902182828 | 90 | 276 | 3.0 | 7.0 | 0.00 | 0.00 | 0.00 | 67 | 1015.5 |
| 20260902182740 | 90 | 334 | 2.0 | 8.0 | 0.00 | 0.00 | 0.00 | 68 | 1015.5 |
| 20260902182652 | 90 | 254 | 2.0 | 8.0 | 0.00 | 0.00 | 0.00 | 68 | 1015.6 |
| 20260902182524 | 90 | 254 | 2.0 | 8.0 | 0.00 | 0.00 | 0.00 | 67 | 1015.5 |
| 20260902182436 | 90 | 232 | 2.0 | 8.0 | 0.00 | 0.00 | 0.00 | 67 | 1015.6 |
| 20260902182328 | 90 | 240 | 2.0 | 8.0 | 0.00 | 0.00 | 0.00 | 69 | 1015.6 |
| 20260902182239 | 90 | 239 | 3.0 | 10.0 | 0.00 | 0.00 | 0.00 | 67 | 1015.6 |
| 20260902182135 | 90 | 250 | 4.0 | 10.0 | 0.00 | 0.00 | 0.00 | 66 | 1015.6 |
| 20260902182026 | 90 | 250 | 4.0 | 10.0 | 0.00 | 0.00 | 0.00 | 65 | 1015.5 |
| 20260902181939 | 90 | 239 | 4.0 | 10.0 | 0.00 | 0.00 | 0.00 | 67 | 1015.6 |
| 20260902181850 | 90 | 267 | 3.0 | 10.0 | 0.00 | 0.00 | 0.00 | 66 | 1015.6 |
| 20260902181741 | 90 | 328 | 2.0 | 10.0 | 0.00 | 0.00 | 0.00 | 68 | 1015.5 |
| 20260902181703 | 90 | 239 | 3.0 | 10.0 | 0.00 | 0.00 | 0.00 | 67 | 1015.5 |
| 20260902181534 | 90 | 229 | 5.0 | 10.0 | 0.00 | 0.00 | 0.00 | 65 | 1015.6 |
| 20260902181426 | 90 | 234 | 4.0 | 10.0 | 0.00 | 0.00 | 0.00 | 66 | 1015.6 |
| 20260902181339 | 90 | 229 | 3.0 | 6.0 | 0.00 | 0.00 | 0.00 | 66 | 1015.6 |
| 20260902181231 | 90 | 229 | 3.0 | 6.0 | 0.00 | 0.00 | 0.00 | 66 | 1015.6 |
| 20260902181127 | 90 | 204 | 1.0 | 6.0 | 0.00 | 0.00 | 0.00 | 66 | 1015.7 |
| 20260902181039 | 90 | 265 | 0.0 | 6.0 | 0.00 | 0.00 | 0.00 | 66 | 1015.6 |
| 20260902180931 | 90 | 265 | 2.0 | 6.0 | 0.00 | 0.00 | 0.00 | 66 | 1015.6 |
| 20260902180843 | 90 | 227 | 3.0 | 6.0 | 0.00 | 0.00 | 0.00 | 66 | 1015.6 |
| 20260902180752 | 90 | 230 | 3.0 | 6.0 | 0.00 | 0.00 | 0.00 | 66 | 1015.5 |
| 20260902180623 | 90 | 240 | 2.0 | 6.0 | 0.00 | 0.00 | 0.00 | 67 | 1015.5 |
| 20260902180535 | 90 | 228 | 2.0 | 6.0 | 0.00 | 0.00 | 0.00 | 67 | 1015.6 |
| 20260902180427 | 90 | 156 | 3.0 | 6.0 | 0.00 | 0.00 | 0.00 | 66 | 1015.5 |
| 20260902180338 | 90 | 247 | 3.0 | 6.0 | 0.00 | 0.00 | 0.00 | 66 | 1015.5 |
| 20260902180252 | 90 | 236 | 2.0 | 7.0 | 0.00 | 0.01 | 0.00 | 67 | 1015.6 |
| 20260902180154 | 90 | 227 | 2.0 | 7.0 | 0.00 | 0.01 | 0.00 | 67 | 1015.6 |
| 20260902180045 | 90 | 254 | 3.0 | 9.0 | 0.00 | 0.01 | 0.00 | 67 | 1015.5 |
| 20260902175935 | 90 | 244 | 4.0 | 9.0 | 0.00 | 0.01 | 0.00 | 66 | 1015.6 |
| 20260902175826 | 90 | 273 | 3.0 | 9.0 | 0.00 | 0.01 | 0.00 | 66 | 1015.6 |
| 20260902175736 | 90 | 246 | 3.0 | 9.0 | 0.00 | 0.01 | 0.00 | 66 | 1015.6 |
| 20260902175647 | 90 | 228 | 2.0 | 9.0 | 0.00 | 0.01 | 0.00 | 66 | 1015.5 |
| 20260902175539 | 90 | 271 | 3.0 | 9.0 | 0.00 | 0.01 | 0.00 | 65 | 1015.6 |
| 20260902175449 | 90 | 217 | 4.0 | 9.0 | 0.00 | 0.01 | 0.00 | 65 | 1015.6 |
| 20260902175340 | 90 | 248 | 5.0 | 9.0 | 0.00 | 0.01 | 0.00 | 65 | 1015.6 |
| 20260902175233 | 90 | 237 | 4.0 | 9.0 | 0.00 | 0.01 | 0.00 | 67 | 1015.6 |
| 20260902175150 | 90 | 265 | 4.0 | 8.0 | 0.00 | 0.01 | 0.00 | 65 | 1015.7 |
| 20260902175021 | 90 | 223 | 5.0 | 7.0 | 0.00 | 0.01 | 0.00 | 67 | 1015.6 |
| 20260902174934 | 90 | 220 | 4.0 | 8.0 | 0.00 | 0.01 | 0.00 | 67 | 1015.6 |
| 20260902174846 | 90 | 244 | 4.0 | 8.0 | 0.00 | 0.01 | 0.00 | 67 | 1015.6 |
| 20260902174758 | 90 | 249 | 2.0 | 5.0 | 0.00 | 0.01 | 0.00 | 68 | 1015.6 |
| 20260902174700 | 90 | 273 | 2.0 | 7.0 | 0.00 | 0.01 | 0.00 | 67 | 1015.6 |
| 20260902174531 | 90 | 277 | 2.0 | 7.0 | 0.00 | 0.01 | 0.00 | 67 | 1015.5 |
| 20260902174445 | 90 | 280 | 2.0 | 8.0 | 0.00 | 0.01 | 0.00 | 67 | 1015.6 |
| 20260902174336 | 89 | 240 | 2.0 | 8.0 | 0.00 | 0.01 | 0.00 | 67 | 1015.6 |
| 20260902174227 | 89 | 304 | 3.0 | 8.0 | 0.00 | 0.01 | 0.00 | 67 | 1015.7 |
| 20260902174122 | 89 | 261 | 3.0 | 8.0 | 0.00 | 0.01 | 0.00 | 66 | 1015.6 |
| 20260902174034 | 89 | 267 | 4.0 | 8.0 | 0.00 | 0.01 | 0.00 | 66 | 1015.6 |
| 20260902173925 | 90 | 232 | 3.0 | 8.0 | 0.00 | 0.01 | 0.00 | 66 | 1015.6 |
| 20260902173836 | 90 | 249 | 2.0 | 8.0 | 0.00 | 0.01 | 0.00 | 68 | 1015.6 |
| 20260902173728 | 90 | 198 | 4.0 | 8.0 | 0.00 | 0.01 | 0.00 | 66 | 1015.7 |
| 20260902173621 | 90 | 229 | 3.0 | 8.0 | 0.00 | 0.01 | 0.00 | 66 | 1015.6 |
| 20260902173533 | 90 | 247 | 2.0 | 7.0 | 0.00 | 0.01 | 0.00 | 68 | 1015.6 |
| 20260902173424 | 89 | 298 | 3.0 | 7.0 | 0.00 | 0.01 | 0.00 | 66 | 1015.7 |
| 20260902173340 | 89 | 304 | 3.0 | 7.0 | 0.00 | 0.01 | 0.00 | 66 | 1015.6 |
| 20260902173231 | 89 | 276 | 2.0 | 7.0 | 0.00 | 0.01 | 0.00 | 68 | 1015.6 |
| 20260902173152 | 89 | 229 | 2.0 | 6.0 | 0.00 | 0.01 | 0.00 | 67 | 1015.6 |
| 20260902173024 | 89 | 249 | 1.0 | 6.0 | 0.00 | 0.01 | 0.00 | 67 | 1015.6 |
| 20260902172935 | 89 | 221 | 2.0 | 6.0 | 0.00 | 0.01 | 0.00 | 68 | 1015.7 |
| 20260902172828 | 89 | 221 | 2.0 | 6.0 | 0.00 | 0.01 | 0.00 | 68 | 1015.6 |
| 20260902172721 | 89 | 246 | 3.0 | 8.0 | 0.00 | 0.01 | 0.00 | 69 | 1015.7 |
| 20260902172633 | 89 | 228 | 2.0 | 8.0 | 0.00 | 0.01 | 0.00 | 70 | 1015.7 |
| 20260902172528 | 89 | 242 | 2.0 | 8.0 | 0.00 | 0.01 | 0.00 | 68 | 1015.6 |
| 20260902172440 | 89 | 252 | 2.0 | 8.0 | 0.00 | 0.01 | 0.00 | 68 | 1015.7 |
| 20260902172333 | 89 | 265 | 2.0 | 8.0 | 0.00 | 0.01 | 0.00 | 69 | 1015.7 |
| 20260902172245 | 89 | 254 | 2.0 | 8.0 | 0.00 | 0.01 | 0.00 | 67 | 1015.6 |
| 20260902172137 | 89 | 252 | 3.0 | 8.0 | 0.00 | 0.01 | 0.00 | 67 | 1015.7 |
| 20260902172029 | 89 | 252 | 4.0 | 8.0 | 0.00 | 0.01 | 0.00 | 67 | 1015.7 |
| 20260902171941 | 89 | 227 | 4.0 | 8.0 | 0.00 | 0.01 | 0.00 | 67 | 1015.7 |
| 20260902171833 | 89 | 240 | 3.0 | 8.0 | 0.00 | 0.01 | 0.00 | 68 | 1015.7 |
| 20260902171725 | 89 | 219 | 2.0 | 8.0 | 0.00 | 0.01 | 0.00 | 68 | 1015.7 |
| 20260902171700 | 89 | 232 | 2.0 | 8.0 | 0.00 | 0.01 | 0.00 | 68 | 1015.7 |
| 20260902171532 | 89 | 242 | 3.0 | 8.0 | 0.00 | 0.01 | 0.00 | 68 | 1015.7 |
| 20260902171425 | 89 | 223 | 4.0 | 8.0 | 0.00 | 0.01 | 0.00 | 68 | 1015.6 |
| 20260902171336 | 89 | 225 | 4.0 | 8.0 | 0.00 | 0.01 | 0.00 | 68 | 1015.6 |
| 20260902171227 | 89 | 236 | 3.0 | 8.0 | 0.00 | 0.01 | 0.00 | 68 | 1015.6 |
| 20260902171141 | 89 | 225 | 3.0 | 8.0 | 0.00 | 0.01 | 0.00 | 68 | 1015.7 |
| 20260902171052 | 89 | 243 | 3.0 | 5.0 | 0.00 | 0.01 | 0.00 | 67 | 1015.6 |
| 20260902170943 | 89 | 236 | 2.0 | 7.0 | 0.00 | 0.01 | 0.00 | 67 | 1015.6 |
| 20260902170855 | 89 | 244 | 2.0 | 7.0 | 0.00 | 0.01 | 0.00 | 68 | 1015.6 |
| 20260902170730 | 89 | 207 | 3.0 | 7.0 | 0.00 | 0.01 | 0.00 | 68 | 1015.6 |
| 20260902170622 | 89 | 232 | 3.0 | 7.0 | 0.00 | 0.01 | 0.00 | 67 | 1015.7 |
| 20260902170534 | 89 | 240 | 2.0 | 7.0 | 0.00 | 0.01 | 0.00 | 68 | 1015.6 |
| 20260902170424 | 89 | 282 | 1.0 | 7.0 | 0.00 | 0.01 | 0.00 | 68 | 1015.7 |
| 20260902170336 | 89 | 269 | 2.0 | 7.0 | 0.00 | 0.01 | 0.00 | 69 | 1015.6 |
| 20260902170226 | 89 | 227 | 2.0 | 7.0 | 0.00 | 0.01 | 0.00 | 69 | 1015.6 |
| 20260902170148 | 89 | 227 | 2.0 | 7.0 | 0.00 | 0.01 | 0.00 | 69 | 1015.7 |
| 20260902170039 | 88 | 225 | 2.0 | 7.0 | 0.00 | 0.01 | 0.00 | 69 | 1015.6 |
| 20260902165931 | 88 | 252 | 3.0 | 7.0 | 0.00 | 0.01 | 0.00 | 69 | 1015.7 |
| 20260902165826 | 88 | 246 | 3.0 | 7.0 | 0.00 | 0.01 | 0.00 | 71 | 1015.7 |
| 20260902165738 | 88 | 254 | 2.0 | 5.0 | 0.00 | 0.01 | 0.00 | 70 | 1015.7 |
| 20260902165630 | 88 | 233 | 2.0 | 6.0 | 0.00 | 0.01 | 0.00 | 71 | 1015.6 |
| 20260902165522 | 88 | 233 | 2.0 | 6.0 | 0.00 | 0.01 | 0.00 | 70 | 1015.7 |
| 20260902165434 | 88 | 242 | 1.0 | 6.0 | 0.00 | 0.01 | 0.00 | 70 | 1015.7 |
| 20260902165326 | 88 | 223 | 1.0 | 6.0 | 0.00 | 0.01 | 0.00 | 69 | 1015.7 |
| 20260902165239 | 88 | 223 | 1.0 | 6.0 | 0.00 | 0.01 | 0.00 | 69 | 1015.8 |
| 20260902165130 | 88 | 237 | 1.0 | 6.0 | 0.00 | 0.01 | 0.00 | 69 | 1015.8 |
| 20260902165027 | 88 | 228 | 2.0 | 6.0 | 0.00 | 0.01 | 0.00 | 68 | 1015.8 |
| 20260902164939 | 88 | 175 | 3.0 | 6.0 | 0.00 | 0.01 | 0.00 | 68 | 1015.9 |
| 20260902164828 | 88 | 224 | 3.0 | 6.0 | 0.00 | 0.01 | 0.00 | 69 | 1015.9 |
| 20260902164739 | 88 | 284 | 3.0 | 7.0 | 0.00 | 0.01 | 0.00 | 69 | 1015.9 |
| 20260902164701 | 88 | 236 | 3.0 | 5.0 | 0.00 | 0.01 | 0.00 | 70 | 1015.9 |
| 20260902164551 | 88 | 230 | 2.0 | 5.0 | 0.00 | 0.01 | 0.00 | 69 | 1015.9 |
| 20260902164423 | 88 | 227 | 2.0 | 5.0 | 0.00 | 0.01 | 0.00 | 69 | 1016.0 |
| 20260902164334 | 88 | 227 | 3.0 | 5.0 | 0.00 | 0.01 | 0.00 | 69 | 1015.9 |
| 20260902164225 | 87 | 243 | 3.0 | 6.0 | 0.00 | 0.01 | 0.00 | 70 | 1015.9 |
| 20260902164121 | 87 | 268 | 1.0 | 6.0 | 0.00 | 0.01 | 0.00 | 72 | 1015.9 |
| 20260902164034 | 87 | 239 | 0.0 | 6.0 | 0.00 | 0.01 | 0.00 | 71 | 1015.9 |
| 20260902163947 | 87 | 232 | 0.0 | 6.0 | 0.00 | 0.01 | 0.00 | 72 | 1016.0 |
| 20260902163900 | 87 | 242 | 1.0 | 6.0 | 0.00 | 0.01 | 0.00 | 72 | 1015.9 |
| 20260902163732 | 87 | 242 | 2.0 | 6.0 | 0.00 | 0.01 | 0.00 | 71 | 1015.9 |
| 20260902163625 | 87 | 242 | 3.0 | 6.0 | 0.00 | 0.01 | 0.00 | 70 | 1015.9 |
| 20260902163536 | 87 | 226 | 3.0 | 6.0 | 0.00 | 0.01 | 0.00 | 70 | 1015.9 |
| 20260902163427 | 87 | 236 | 2.0 | 6.0 | 0.00 | 0.01 | 0.00 | 73 | 1015.9 |
| 20260902163340 | 87 | 162 | 1.0 | 5.0 | 0.00 | 0.01 | 0.00 | 74 | 1015.9 |
| 20260902163250 | 87 | 151 | 2.0 | 5.0 | 0.00 | 0.01 | 0.00 | 74 | 1015.9 |
| 20260902163216 | 87 | 151 | 2.0 | 5.0 | 0.00 | 0.01 | 0.00 | 74 | 1015.9 |
| 20260902163107 | 86 | 175 | 1.0 | 5.0 | 0.00 | 0.01 | 0.00 | 73 | 1016.0 |
| 20260902162958 | 86 | 234 | 2.0 | 5.0 | 0.00 | 0.01 | 0.00 | 72 | 1015.9 |
| 20260902162830 | 86 | 244 | 1.0 | 5.0 | 0.00 | 0.01 | 0.00 | 73 | 1016.0 |
| 20260902162722 | 86 | 294 | 2.0 | 5.0 | 0.00 | 0.01 | 0.00 | 73 | 1016.0 |
| 20260902162636 | 86 | 294 | 2.0 | 5.0 | 0.00 | 0.01 | 0.00 | 73 | 1016.1 |
| 20260902162548 | 86 | 294 | 3.0 | 5.0 | 0.00 | 0.01 | 0.00 | 73 | 1016.2 |
| 20260902162439 | 86 | 295 | 3.0 | 5.0 | 0.00 | 0.01 | 0.00 | 72 | 1016.0 |
| 20260902162330 | 86 | 312 | 2.0 | 5.0 | 0.00 | 0.01 | 0.00 | 75 | 1016.0 |
| 20260902162226 | 86 | 257 | 2.0 | 5.0 | 0.00 | 0.01 | 0.00 | 73 | 1016.1 |
| 20260902162138 | 86 | 228 | 2.0 | 5.0 | 0.00 | 0.01 | 0.00 | 74 | 1016.1 |
| 20260902162030 | 86 | 296 | 2.0 | 6.0 | 0.00 | 0.01 | 0.00 | 75 | 1016.0 |
| 20260902161942 | 85 | 232 | 1.0 | 5.0 | 0.00 | 0.01 | 0.00 | 74 | 1016.0 |
| 20260902161853 | 85 | 255 | 1.0 | 7.0 | 0.00 | 0.01 | 0.00 | 75 | 1016.0 |
| 20260902161724 | 85 | 255 | 1.0 | 7.0 | 0.00 | 0.01 | 0.00 | 76 | 1016.0 |
| 20260902161646 | 85 | 255 | 1.0 | 7.0 | 0.00 | 0.01 | 0.00 | 76 | 1016.1 |
| 20260902161537 | 85 | 221 | 1.0 | 7.0 | 0.00 | 0.01 | 0.00 | 75 | 1016.0 |
| 20260902161429 | 85 | 221 | 2.0 | 7.0 | 0.00 | 0.01 | 0.00 | 74 | 1016.1 |
| 20260902161341 | 85 | 236 | 2.0 | 7.0 | 0.00 | 0.01 | 0.00 | 74 | 1016.0 |
| 20260902161257 | 85 | 213 | 3.0 | 7.0 | 0.00 | 0.01 | 0.00 | 74 | 1016.1 |
| 20260902161148 | 85 | 243 | 4.0 | 7.0 | 0.00 | 0.01 | 0.00 | 74 | 1016.1 |
| 20260902161038 | 85 | 229 | 3.0 | 7.0 | 0.00 | 0.01 | 0.00 | 73 | 1016.1 |
| 20260902160930 | 85 | 241 | 3.0 | 8.0 | 0.00 | 0.01 | 0.00 | 74 | 1016.1 |
| 20260902160823 | 85 | 217 | 3.0 | 8.0 | 0.00 | 0.01 | 0.00 | 74 | 1016.1 |
| 20260902160735 | 85 | 227 | 3.0 | 8.0 | 0.00 | 0.01 | 0.00 | 74 | 1016.0 |
| 20260902160628 | 85 | 223 | 4.0 | 8.0 | 0.00 | 0.01 | 0.00 | 74 | 1016.0 |
| 20260902160539 | 85 | 256 | 3.0 | 8.0 | 0.00 | 0.01 | 0.00 | 74 | 1016.1 |
| 20260902160431 | 85 | 232 | 2.0 | 8.0 | 0.00 | 0.01 | 0.00 | 75 | 1016.0 |
| 20260902160326 | 85 | 222 | 2.0 | 8.0 | 0.00 | 0.01 | 0.00 | 74 | 1016.2 |
| 20260902160237 | 85 | 222 | 3.0 | 8.0 | 0.00 | 0.01 | 0.00 | 75 | 1016.2 |
| 20260902160159 | 85 | 175 | 4.0 | 8.0 | 0.00 | 0.01 | 0.00 | 74 | 1016.2 |
| 20260902160030 | 85 | 240 | 4.0 | 7.0 | 0.00 | 0.01 | 0.00 | 76 | 1016.2 |
| 20260902155943 | 84 | 231 | 3.0 | 6.0 | 0.00 | 0.01 | 0.00 | 75 | 1016.2 |
| 20260902155856 | 84 | 238 | 3.0 | 6.0 | 0.00 | 0.01 | 0.00 | 75 | 1016.2 |
| 20260902155726 | 84 | 234 | 1.0 | 7.0 | 0.00 | 0.01 | 0.00 | 75 | 1016.2 |
| 20260902155638 | 84 | 249 | 0.0 | 7.0 | 0.00 | 0.01 | 0.00 | 75 | 1016.1 |
| 20260902155530 | 84 | 321 | 2.0 | 7.0 | 0.00 | 0.01 | 0.00 | 75 | 1016.1 |
| 20260902155426 | 84 | 258 | 3.0 | 7.0 | 0.00 | 0.01 | 0.00 | 73 | 1016.2 |
| 20260902155337 | 84 | 251 | 3.0 | 7.0 | 0.00 | 0.01 | 0.00 | 74 | 1016.1 |
| 20260902155229 | 84 | 258 | 2.0 | 7.0 | 0.00 | 0.01 | 0.00 | 74 | 1016.1 |
| 20260902155141 | 84 | 228 | 1.0 | 7.0 | 0.00 | 0.01 | 0.00 | 74 | 1016.1 |
| 20260902155052 | 84 | 240 | 1.0 | 7.0 | 0.00 | 0.01 | 0.00 | 74 | 1016.2 |
| 20260902154923 | 84 | 252 | 3.0 | 7.0 | 0.00 | 0.01 | 0.00 | 74 | 1016.2 |
| 20260902154834 | 84 | 275 | 4.0 | 7.0 | 0.00 | 0.01 | 0.00 | 74 | 1016.2 |
| 20260902154747 | 84 | 275 | 4.0 | 7.0 | 0.00 | 0.01 | 0.00 | 74 | 1016.3 |
| 20260902154708 | 85 | 289 | 3.0 | 7.0 | 0.00 | 0.01 | 0.00 | 73 | 1016.3 |
| 20260902154600 | 85 | 254 | 3.0 | 9.0 | 0.00 | 0.01 | 0.00 | 73 | 1016.1 |
| 20260902154515 | 85 | 270 | 3.0 | 9.0 | 0.00 | 0.01 | 0.00 | 73 | 1016.2 |
| 20260902154345 | 85 | 261 | 3.0 | 9.0 | 0.00 | 0.01 | 0.00 | 73 | 1016.2 |
| 20260902154257 | 85 | 234 | 3.0 | 9.0 | 0.00 | 0.01 | 0.00 | 73 | 1016.1 |
| 20260902154127 | 85 | 223 | 4.0 | 9.0 | 0.00 | 0.01 | 0.00 | 73 | 1016.1 |
| 20260902154040 | 85 | 219 | 4.0 | 9.0 | 0.00 | 0.01 | 0.00 | 73 | 1016.0 |
| 20260902153931 | 85 | 252 | 5.0 | 9.0 | 0.00 | 0.01 | 0.00 | 73 | 1016.1 |
| 20260902153844 | 85 | 271 | 5.0 | 9.0 | 0.00 | 0.01 | 0.00 | 73 | 1016.1 |
| 20260902153734 | 85 | 238 | 4.0 | 10.0 | 0.00 | 0.01 | 0.00 | 74 | 1016.2 |
| 20260902153625 | 85 | 275 | 3.0 | 10.0 | 0.00 | 0.01 | 0.00 | 74 | 1016.2 |
| 20260902153536 | 85 | 281 | 4.0 | 12.0 | 0.00 | 0.01 | 0.00 | 73 | 1016.3 |
| 20260902153452 | 85 | 286 | 6.0 | 12.0 | 0.00 | 0.01 | 0.00 | 73 | 1016.3 |
| 20260902153323 | 85 | 316 | 6.0 | 12.0 | 0.00 | 0.01 | 0.00 | 73 | 1016.3 |
| 20260902153235 | 85 | 292 | 5.0 | 12.0 | 0.00 | 0.01 | 0.00 | 73 | 1016.3 |
| 20260902153158 | 85 | 264 | 4.0 | 12.0 | 0.00 | 0.01 | 0.00 | 73 | 1016.3 |
| 20260902153030 | 85 | 252 | 4.0 | 12.0 | 0.00 | 0.01 | 0.00 | 73 | 1016.2 |
| 20260902152921 | 85 | 312 | 4.0 | 12.0 | 0.00 | 0.01 | 0.00 | 74 | 1016.1 |
| 20260902152833 | 85 | 280 | 5.0 | 12.0 | 0.00 | 0.01 | 0.00 | 74 | 1016.2 |
| 20260902152725 | 85 | 261 | 5.0 | 12.0 | 0.00 | 0.01 | 0.00 | 74 | 1016.1 |
| 20260902152622 | 85 | 271 | 4.0 | 11.0 | 0.00 | 0.01 | 0.00 | 74 | 1016.2 |
| 20260902152534 | 84 | 250 | 6.0 | 11.0 | 0.00 | 0.01 | 0.00 | 74 | 1016.2 |
| 20260902152427 | 84 | 276 | 8.0 | 11.0 | 0.00 | 0.01 | 0.00 | 73 | 1016.2 |
| 20260902152338 | 84 | 315 | 9.0 | 11.0 | 0.00 | 0.01 | 0.00 | 73 | 1016.2 |
| 20260902152229 | 84 | 287 | 6.0 | 11.0 | 0.00 | 0.01 | 0.00 | 73 | 1016.1 |
| 20260902152141 | 84 | 284 | 4.0 | 13.0 | 0.00 | 0.01 | 0.00 | 74 | 1016.0 |
| 20260902152032 | 84 | 270 | 6.0 | 13.0 | 0.00 | 0.01 | 0.00 | 74 | 1016.0 |
| 20260902151924 | 85 | 318 | 5.0 | 13.0 | 0.00 | 0.01 | 0.00 | 73 | 1016.0 |
| 20260902151836 | 84 | 321 | 5.0 | 13.0 | 0.00 | 0.01 | 0.00 | 74 | 1016.0 |
| 20260902151732 | 85 | 251 | 4.0 | 13.0 | 0.00 | 0.01 | 0.00 | 75 | 1016.1 |
| 20260902151654 | 85 | 265 | 5.0 | 13.0 | 0.00 | 0.01 | 0.00 | 75 | 1016.1 |
| 20260902151545 | 84 | 303 | 7.0 | 13.0 | 0.00 | 0.01 | 0.00 | 75 | 1016.1 |
| 20260902151437 | 84 | 315 | 9.0 | 13.0 | 0.00 | 0.01 | 0.00 | 74 | 1016.3 |
| 20260902151350 | 84 | 321 | 9.0 | 13.0 | 0.00 | 0.01 | 0.00 | 74 | 1016.3 |
| 20260902151240 | 85 | 313 | 6.0 | 12.0 | 0.00 | 0.01 | 0.00 | 77 | 1016.3 |
| 20260902151131 | 85 | 288 | 5.0 | 11.0 | 0.00 | 0.01 | 0.00 | 76 | 1016.3 |
| 20260902151044 | 85 | 313 | 5.0 | 12.0 | 0.00 | 0.01 | 0.00 | 76 | 1016.2 |
| 20260902150957 | 85 | 316 | 5.0 | 12.0 | 0.00 | 0.01 | 0.00 | 76 | 1016.2 |
| 20260902150827 | 85 | 292 | 6.0 | 12.0 | 0.00 | 0.01 | 0.00 | 76 | 1016.2 |
| 20260902150723 | 85 | 289 | 7.0 | 12.0 | 0.00 | 0.01 | 0.00 | 75 | 1016.2 |
| 20260902150635 | 85 | 296 | 6.0 | 12.0 | 0.00 | 0.01 | 0.00 | 76 | 1016.1 |
| 20260902150546 | 85 | 320 | 6.0 | 12.0 | 0.00 | 0.01 | 0.00 | 75 | 1016.1 |
| 20260902150437 | 85 | 279 | 7.0 | 12.0 | 0.00 | 0.01 | 0.00 | 75 | 1016.1 |
| 20260902150348 | 85 | 328 | 8.0 | 12.0 | 0.00 | 0.01 | 0.00 | 75 | 1016.2 |
| 20260902150257 | 85 | 286 | 6.0 | 12.0 | 0.00 | 0.01 | 0.00 | 75 | 1016.2 |
| 20260902150158 | 85 | 290 | 5.0 | 8.0 | 0.00 | 0.01 | 0.00 | 76 | 1016.2 |
| 20260902150029 | 85 | 329 | 4.0 | 8.0 | 0.00 | 0.01 | 0.00 | 75 | 1016.0 |
| 20260902145921 | 85 | 313 | 4.0 | 8.0 | 0.00 | 0.01 | 0.00 | 75 | 1015.9 |
| 20260902145833 | 86 | 308 | 5.0 | 8.0 | 0.00 | 0.01 | 0.00 | 75 | 1016.1 |
| 20260902145730 | 86 | 313 | 4.0 | 8.0 | 0.00 | 0.01 | 0.00 | 75 | 1016.2 |
| 20260902145641 | 86 | 291 | 5.0 | 8.0 | 0.00 | 0.01 | 0.00 | 75 | 1016.2 |
| 20260902145533 | 86 | 323 | 6.0 | 8.0 | 0.00 | 0.01 | 0.00 | 75 | 1016.1 |
| 20260902145445 | 86 | 310 | 6.0 | 8.0 | 0.00 | 0.01 | 0.00 | 75 | 1016.0 |
| 20260902145357 | 86 | 317 | 5.0 | 8.0 | 0.00 | 0.01 | 0.00 | 75 | 1015.8 |
| 20260902145229 | 86 | 277 | 4.0 | 8.0 | 0.00 | 0.01 | 0.00 | 74 | 1015.6 |
| 20260902145141 | 86 | 272 | 3.0 | 8.0 | 0.00 | 0.01 | 0.00 | 76 | 1015.6 |
| 20260902145033 | 86 | 242 | 2.0 | 8.0 | 0.00 | 0.01 | 0.00 | 76 | 1015.6 |
| 20260902144927 | 86 | 19 | 1.0 | 8.0 | 0.00 | 0.01 | 0.00 | 77 | 1015.5 |
| 20260902144838 | 86 | 122 | 2.0 | 8.0 | 0.00 | 0.01 | 0.00 | 77 | 1015.5 |
| 20260902144730 | 85 | 187 | 2.0 | 8.0 | 0.00 | 0.01 | 0.00 | 76 | 1015.5 |
| 20260902144652 | 85 | 277 | 2.0 | 8.0 | 0.00 | 0.01 | 0.00 | 78 | 1015.5 |
| 20260902144523 | 85 | 255 | 4.0 | 8.0 | 0.00 | 0.01 | 0.00 | 76 | 1015.5 |
| 20260902144435 | 85 | 231 | 3.0 | 8.0 | 0.00 | 0.01 | 0.00 | 76 | 1015.5 |
| 20260902144328 | 85 | 243 | 2.0 | 7.0 | 0.00 | 0.01 | 0.00 | 76 | 1015.5 |
| 20260902144240 | 85 | 262 | 3.0 | 7.0 | 0.00 | 0.01 | 0.00 | 76 | 1015.5 |
| 20260902144131 | 85 | 239 | 2.0 | 5.0 | 0.00 | 0.01 | 0.00 | 76 | 1015.6 |
| 20260902144026 | 85 | 287 | 1.0 | 5.0 | 0.00 | 0.01 | 0.00 | 77 | 1015.5 |
| 20260902143938 | 85 | 236 | 1.0 | 5.0 | 0.00 | 0.01 | 0.00 | 77 | 1015.5 |
| 20260902143830 | 84 | 236 | 2.0 | 5.0 | 0.00 | 0.01 | 0.00 | 77 | 1015.5 |
| 20260902143722 | 84 | 229 | 2.0 | 5.0 | 0.00 | 0.01 | 0.00 | 78 | 1015.5 |
| 20260902143634 | 84 | 236 | 2.0 | 6.0 | 0.00 | 0.01 | 0.00 | 77 | 1015.5 |
| 20260902143526 | 84 | 226 | 3.0 | 6.0 | 0.00 | 0.01 | 0.00 | 78 | 1015.6 |
| 20260902143439 | 84 | 239 | 2.0 | 6.0 | 0.00 | 0.01 | 0.00 | 78 | 1015.5 |
| 20260902143333 | 84 | 250 | 1.0 | 6.0 | 0.00 | 0.01 | 0.00 | 78 | 1015.5 |
| 20260902143246 | 84 | 246 | 2.0 | 6.0 | 0.00 | 0.01 | 0.00 | 78 | 1015.5 |
| 20260902143207 | 84 | 246 | 2.0 | 6.0 | 0.00 | 0.01 | 0.00 | 78 | 1015.6 |
| 20260902143038 | 84 | 175 | 2.0 | 6.0 | 0.00 | 0.01 | 0.00 | 77 | 1015.5 |
| 20260902142931 | 84 | 244 | 3.0 | 9.0 | 0.00 | 0.01 | 0.00 | 77 | 1015.6 |
| 20260902142822 | 84 | 238 | 4.0 | 9.0 | 0.00 | 0.01 | 0.00 | 77 | 1015.6 |
| 20260902142734 | 84 | 223 | 3.0 | 9.0 | 0.00 | 0.01 | 0.00 | 77 | 1015.6 |
| 20260902142626 | 84 | 287 | 2.0 | 9.0 | 0.00 | 0.01 | 0.00 | 77 | 1015.6 |
| 20260902142537 | 84 | 284 | 2.0 | 9.0 | 0.00 | 0.01 | 0.00 | 78 | 1015.7 |
| 20260902142429 | 84 | 207 | 2.0 | 9.0 | 0.00 | 0.01 | 0.00 | 78 | 1015.6 |
| 20260902142344 | 84 | 207 | 3.0 | 9.0 | 0.00 | 0.01 | 0.00 | 77 | 1015.6 |
| 20260902142255 | 83 | 235 | 4.0 | 9.0 | 0.00 | 0.01 | 0.00 | 78 | 1015.6 |
| 20260902142126 | 83 | 242 | 3.0 | 9.0 | 0.00 | 0.01 | 0.00 | 79 | 1015.6 |
| 20260902142037 | 83 | 283 | 3.0 | 7.0 | 0.00 | 0.01 | 0.00 | 79 | 1015.6 |
| 20260902141930 | 83 | 232 | 4.0 | 7.0 | 0.00 | 0.01 | 0.00 | 78 | 1015.6 |
| 20260902141842 | 83 | 238 | 3.0 | 8.0 | 0.00 | 0.01 | 0.00 | 79 | 1015.6 |
| 20260902141753 | 83 | 225 | 2.0 | 7.0 | 0.00 | 0.01 | 0.00 | 80 | 1015.6 |
| 20260902141716 | 83 | 261 | 3.0 | 7.0 | 0.00 | 0.01 | 0.00 | 79 | 1015.6 |
| 20260902141526 | 83 | 240 | 3.0 | 7.0 | 0.00 | 0.01 | 0.00 | 80 | 1015.7 |
| 20260902141422 | 83 | 254 | 2.0 | 7.0 | 0.00 | 0.01 | 0.00 | 79 | 1015.6 |
| 20260902141334 | 83 | 236 | 2.0 | 7.0 | 0.00 | 0.01 | 0.00 | 79 | 1015.6 |
| 20260902141224 | 83 | 236 | 3.0 | 7.0 | 0.00 | 0.01 | 0.00 | 79 | 1015.5 |
| 20260902141135 | 83 | 238 | 3.0 | 6.0 | 0.00 | 0.01 | 0.00 | 80 | 1015.6 |
| 20260902141026 | 82 | 209 | 3.0 | 5.0 | 0.00 | 0.01 | 0.00 | 80 | 1015.6 |
| 20260902140938 | 82 | 240 | 2.0 | 5.0 | 0.00 | 0.01 | 0.00 | 80 | 1015.6 |
| 20260902140850 | 82 | 240 | 3.0 | 6.0 | 0.00 | 0.01 | 0.00 | 80 | 1015.6 |
| 20260902140721 | 82 | 241 | 3.0 | 6.0 | 0.00 | 0.01 | 0.00 | 80 | 1015.6 |
| 20260902140632 | 82 | 305 | 3.0 | 6.0 | 0.00 | 0.01 | 0.00 | 81 | 1015.6 |
| 20260902140545 | 82 | 274 | 2.0 | 6.0 | 0.00 | 0.01 | 0.00 | 81 | 1015.6 |
| 20260902140457 | 82 | 236 | 2.0 | 6.0 | 0.00 | 0.01 | 0.00 | 81 | 1015.6 |
| 20260902140413 | 82 | 236 | 2.0 | 6.0 | 0.00 | 0.01 | 0.00 | 81 | 1015.7 |
| 20260902140217 | 82 | 275 | 3.0 | 6.0 | 0.00 | 0.01 | 0.00 | 81 | 1015.6 |
| 20260902140027 | 81 | 219 | 3.0 | 5.0 | 0.00 | 0.01 | 0.00 | 81 | 1015.7 |
| 20260902135939 | 81 | 227 | 3.0 | 5.0 | 0.00 | 0.01 | 0.00 | 81 | 1015.6 |
| 20260902135851 | 81 | 236 | 2.0 | 5.0 | 0.00 | 0.01 | 0.00 | 81 | 1015.7 |
| 20260902135743 | 81 | 244 | 3.0 | 5.0 | 0.00 | 0.01 | 0.00 | 81 | 1015.7 |
| 20260902135654 | 81 | 221 | 3.0 | 5.0 | 0.00 | 0.01 | 0.00 | 81 | 1015.7 |
| 20260902135544 | 81 | 242 | 3.0 | 5.0 | 0.00 | 0.01 | 0.00 | 81 | 1015.7 |
| 20260902135439 | 81 | 257 | 2.0 | 4.0 | 0.00 | 0.01 | 0.00 | 81 | 1015.7 |
| 20260902135331 | 81 | 240 | 2.0 | 4.0 | 0.00 | 0.01 | 0.00 | 81 | 1015.7 |
| 20260902135223 | 81 | 240 | 1.0 | 4.0 | 0.00 | 0.01 | 0.00 | 81 | 1015.7 |
| 20260902135135 | 81 | 240 | 1.0 | 4.0 | 0.00 | 0.01 | 0.00 | 81 | 1015.6 |
| 20260902135027 | 81 | 240 | 2.0 | 4.0 | 0.00 | 0.01 | 0.00 | 82 | 1015.7 |
| 20260902134939 | 81 | 240 | 2.0 | 4.0 | 0.00 | 0.01 | 0.00 | 82 | 1015.7 |
| 20260902134830 | 81 | 240 | 2.0 | 5.0 | 0.00 | 0.01 | 0.00 | 82 | 1015.7 |
| 20260902134743 | 81 | 240 | 2.0 | 5.0 | 0.00 | 0.01 | 0.00 | 82 | 1015.6 |
| 20260902134705 | 81 | 240 | 2.0 | 5.0 | 0.00 | 0.01 | 0.00 | 82 | 1015.6 |
| 20260902134535 | 81 | 240 | 2.0 | 5.0 | 0.00 | 0.01 | 0.00 | 82 | 1015.6 |
| 20260902134450 | 81 | 240 | 2.0 | 5.0 | 0.00 | 0.01 | 0.00 | 81 | 1015.6 |
| 20260902134402 | 81 | 240 | 2.0 | 5.0 | 0.00 | 0.01 | 0.00 | 82 | 1015.6 |
| 20260902134233 | 81 | 223 | 2.0 | 5.0 | 0.00 | 0.01 | 0.00 | 82 | 1015.7 |
| 20260902134124 | 81 | 233 | 2.0 | 5.0 | 0.00 | 0.01 | 0.00 | 82 | 1015.6 |
| 20260902134036 | 81 | 239 | 2.0 | 5.0 | 0.00 | 0.01 | 0.00 | 82 | 1015.7 |
| 20260902133929 | 81 | 243 | 1.0 | 5.0 | 0.00 | 0.01 | 0.00 | 82 | 1015.7 |
| 20260902133822 | 81 | 243 | 2.0 | 5.0 | 0.00 | 0.01 | 0.00 | 82 | 1015.7 |
| 20260902133734 | 81 | 243 | 2.0 | 5.0 | 0.00 | 0.01 | 0.00 | 82 | 1015.8 |
| 20260902133630 | 81 | 243 | 3.0 | 5.0 | 0.00 | 0.01 | 0.00 | 82 | 1015.6 |
| 20260902133522 | 81 | 213 | 3.0 | 6.0 | 0.00 | 0.01 | 0.00 | 81 | 1015.8 |
| 20260902133434 | 81 | 240 | 3.0 | 6.0 | 0.00 | 0.01 | 0.00 | 82 | 1015.7 |
| 20260902133347 | 81 | 248 | 3.0 | 5.0 | 0.00 | 0.01 | 0.00 | 82 | 1015.7 |
| 20260902133236 | 81 | 229 | 2.0 | 7.0 | 0.00 | 0.01 | 0.00 | 82 | 1015.7 |
| 20260902133158 | 81 | 275 | 2.0 | 7.0 | 0.00 | 0.01 | 0.00 | 82 | 1015.7 |
| 20260902133049 | 81 | 222 | 2.0 | 7.0 | 0.00 | 0.01 | 0.00 | 82 | 1015.7 |
| 20260902133000 | 80 | 251 | 1.0 | 7.0 | 0.00 | 0.01 | 0.00 | 82 | 1015.7 |
| 20260902132831 | 80 | 251 | 1.0 | 7.0 | 0.00 | 0.01 | 0.00 | 82 | 1015.7 |
| 20260902132744 | 80 | 251 | 2.0 | 7.0 | 0.00 | 0.01 | 0.00 | 82 | 1015.8 |
| 20260902132656 | 80 | 251 | 2.0 | 7.0 | 0.00 | 0.01 | 0.00 | 82 | 1015.7 |
| 20260902132532 | 80 | 244 | 3.0 | 7.0 | 0.00 | 0.01 | 0.00 | 82 | 1015.7 |
| 20260902132423 | 80 | 248 | 3.0 | 7.0 | 0.00 | 0.01 | 0.00 | 82 | 1015.8 |
| 20260902132334 | 80 | 234 | 2.0 | 7.0 | 0.00 | 0.01 | 0.00 | 82 | 1015.7 |
| 20260902132246 | 80 | 238 | 2.0 | 7.0 | 0.00 | 0.01 | 0.00 | 82 | 1015.8 |
| 20260902132136 | 80 | 242 | 3.0 | 7.0 | 0.00 | 0.01 | 0.00 | 82 | 1015.7 |
| 20260902132048 | 80 | 211 | 4.0 | 7.0 | 0.00 | 0.01 | 0.00 | 82 | 1015.8 |
| 20260902131939 | 80 | 213 | 3.0 | 7.0 | 0.00 | 0.01 | 0.00 | 82 | 1015.8 |
| 20260902131849 | 80 | 232 | 3.0 | 4.0 | 0.00 | 0.01 | 0.00 | 83 | 1015.8 |
| 20260902131801 | 80 | 251 | 2.0 | 7.0 | 0.00 | 0.01 | 0.00 | 83 | 1015.8 |
| 20260902131723 | 80 | 249 | 2.0 | 7.0 | 0.00 | 0.01 | 0.00 | 83 | 1015.8 |
| 20260902131553 | 80 | 244 | 2.0 | 7.0 | 0.00 | 0.01 | 0.00 | 83 | 1015.8 |
| 20260902131449 | 80 | 227 | 1.0 | 7.0 | 0.00 | 0.01 | 0.00 | 83 | 1015.8 |
| 20260902131401 | 80 | 254 | 1.0 | 7.0 | 0.00 | 0.01 | 0.00 | 83 | 1015.8 |
| 20260902131231 | 80 | 230 | 1.0 | 7.0 | 0.00 | 0.01 | 0.00 | 83 | 1015.7 |
| 20260902131123 | 80 | 221 | 2.0 | 7.0 | 0.00 | 0.01 | 0.00 | 83 | 1015.8 |
| 20260902131036 | 80 | 221 | 2.0 | 7.0 | 0.00 | 0.01 | 0.00 | 83 | 1015.8 |
| 20260902130928 | 80 | 221 | 2.0 | 7.0 | 0.00 | 0.01 | 0.00 | 82 | 1015.8 |
| 20260902130840 | 80 | 244 | 2.0 | 5.0 | 0.00 | 0.01 | 0.00 | 83 | 1015.8 |
| 20260902130733 | 80 | 227 | 1.0 | 3.0 | 0.00 | 0.01 | 0.00 | 82 | 1015.9 |
| 20260902130629 | 80 | 194 | 1.0 | 3.0 | 0.00 | 0.01 | 0.00 | 82 | 1015.9 |
| 20260902130541 | 80 | 238 | 0.0 | 3.0 | 0.00 | 0.01 | 0.00 | 83 | 1015.8 |
| 20260902130431 | 80 | 196 | 0.0 | 3.0 | 0.00 | 0.01 | 0.00 | 83 | 1015.8 |
| 20260902130325 | 80 | 189 | 1.0 | 3.0 | 0.00 | 0.01 | 0.00 | 83 | 1015.8 |
| 20260902130234 | 80 | 189 | 1.0 | 3.0 | 0.00 | 0.01 | 0.00 | 83 | 1015.8 |
| 20260902130157 | 80 | 254 | 1.0 | 3.0 | 0.00 | 0.01 | 0.00 | 83 | 1015.8 |
| 20260902130049 | 80 | 254 | 0.0 | 3.0 | 0.00 | 0.01 | 0.00 | 83 | 1015.9 |
| 20260902130001 | 80 | 215 | 0.0 | 0.0 | 0.00 | 0.01 | 0.00 | 84 | 1015.8 |
| 20260902125832 | 80 | 215 | 0.0 | 0.0 | 0.00 | 0.01 | 0.00 | 84 | 1015.8 |
| 20260902125744 | 80 | 215 | 0.0 | 0.0 | 0.00 | 0.01 | 0.00 | 83 | 1015.8 |
| 20260902125700 | 80 | 215 | 0.0 | 0.0 | 0.00 | 0.01 | 0.00 | 83 | 1015.8 |
| 20260902125531 | 80 | 217 | 0.0 | 0.0 | 0.00 | 0.01 | 0.00 | 84 | 1015.8 |
| 20260902125423 | 80 | 240 | 0.0 | 0.0 | 0.00 | 0.01 | 0.00 | 84 | 1015.8 |
| 20260902125335 | 80 | 200 | 0.0 | 0.0 | 0.00 | 0.01 | 0.00 | 84 | 1015.8 |
| 20260902125247 | 79 | 200 | 0.0 | 0.0 | 0.00 | 0.01 | 0.00 | 84 | 1015.8 |
| 20260902125140 | 79 | 200 | 0.0 | 0.0 | 0.00 | 0.01 | 0.00 | 85 | 1015.9 |
| 20260902125031 | 79 | 200 | 0.0 | 0.0 | 0.00 | 0.01 | 0.00 | 85 | 1015.9 |
| 20260902124923 | 79 | 200 | 0.0 | 0.0 | 0.00 | 0.01 | 0.00 | 84 | 1015.9 |
| 20260902124836 | 79 | 200 | 0.0 | 0.0 | 0.00 | 0.01 | 0.00 | 85 | 1015.8 |
| 20260902124732 | 79 | 200 | 0.0 | 0.0 | 0.00 | 0.01 | 0.00 | 85 | 1015.9 |
| 20260902124655 | 79 | 200 | 0.0 | 0.0 | 0.00 | 0.01 | 0.00 | 84 | 1015.9 |
| 20260902124545 | 79 | 200 | 0.0 | 0.0 | 0.00 | 0.01 | 0.00 | 84 | 1015.9 |
| 20260902124457 | 79 | 200 | 0.0 | 0.0 | 0.00 | 0.01 | 0.00 | 84 | 1015.9 |
| 20260902124327 | 79 | 200 | 0.0 | 0.0 | 0.00 | 0.01 | 0.00 | 84 | 1016.0 |
| 20260902124238 | 79 | 200 | 0.0 | 0.0 | 0.00 | 0.01 | 0.00 | 84 | 1015.8 |
| 20260902124130 | 79 | 200 | 0.0 | 0.0 | 0.00 | 0.01 | 0.00 | 84 | 1015.9 |
| 20260902124023 | 79 | 200 | 0.0 | 0.0 | 0.00 | 0.01 | 0.00 | 84 | 1015.8 |
| 20260902123935 | 79 | 200 | 0.0 | 0.0 | 0.00 | 0.01 | 0.00 | 84 | 1015.8 |
| 20260902123829 | 79 | 200 | 0.0 | 0.0 | 0.00 | 0.01 | 0.00 | 84 | 1015.8 |
| 20260902123722 | 79 | 200 | 0.0 | 0.0 | 0.00 | 0.01 | 0.00 | 85 | 1015.8 |
| 20260902123634 | 79 | 200 | 0.0 | 0.0 | 0.00 | 0.01 | 0.00 | 85 | 1015.8 |
| 20260902123546 | 79 | 200 | 0.0 | 0.0 | 0.00 | 0.01 | 0.00 | 85 | 1015.8 |
| 20260902123459 | 78 | 200 | 0.0 | 0.0 | 0.00 | 0.01 | 0.00 | 85 | 1015.8 |
| 20260902123329 | 78 | 200 | 0.0 | 1.0 | 0.00 | 0.01 | 0.00 | 85 | 1015.8 |
| 20260902123239 | 78 | 200 | 0.0 | 1.0 | 0.00 | 0.01 | 0.00 | 85 | 1015.9 |
| 20260902123201 | 78 | 200 | 0.0 | 1.0 | 0.00 | 0.01 | 0.00 | 85 | 1015.9 |
| 20260902123032 | 78 | 200 | 0.0 | 2.0 | 0.00 | 0.01 | 0.00 | 85 | 1015.9 |
| 20260902122928 | 78 | 200 | 0.0 | 2.0 | 0.00 | 0.01 | 0.00 | 85 | 1015.9 |
| 20260902122839 | 78 | 200 | 0.0 | 2.0 | 0.00 | 0.01 | 0.00 | 86 | 1015.9 |
| 20260902122732 | 78 | 247 | 0.0 | 3.0 | 0.00 | 0.01 | 0.00 | 86 | 1015.9 |
| 20260902122625 | 78 | 247 | 0.0 | 3.0 | 0.00 | 0.01 | 0.00 | 86 | 1015.9 |
| 20260902122536 | 78 | 247 | 0.0 | 3.0 | 0.00 | 0.01 | 0.00 | 86 | 1015.9 |
| 20260902122426 | 78 | 247 | 0.0 | 3.0 | 0.00 | 0.01 | 0.00 | 86 | 1015.9 |
| 20260902122338 | 78 | 247 | 0.0 | 3.0 | 0.00 | 0.01 | 0.00 | 86 | 1016.0 |
| 20260902122230 | 78 | 247 | 1.0 | 3.0 | 0.00 | 0.01 | 0.00 | 86 | 1016.0 |
| 20260902122122 | 78 | 247 | 1.0 | 3.0 | 0.00 | 0.01 | 0.00 | 86 | 1016.0 |
| 20260902122038 | 77 | 249 | 2.0 | 3.0 | 0.00 | 0.01 | 0.00 | 86 | 1016.1 |
| 20260902121931 | 77 | 249 | 1.0 | 3.0 | 0.00 | 0.01 | 0.00 | 86 | 1016.2 |
| 20260902121823 | 77 | 249 | 1.0 | 3.0 | 0.00 | 0.01 | 0.00 | 87 | 1016.1 |
| 20260902121734 | 77 | 249 | 1.0 | 3.0 | 0.00 | 0.01 | 0.00 | 87 | 1016.1 |
| 20260902121657 | 77 | 249 | 1.0 | 3.0 | 0.00 | 0.01 | 0.00 | 87 | 1016.1 |
| 20260902121528 | 77 | 249 | 1.0 | 3.0 | 0.00 | 0.01 | 0.00 | 87 | 1016.2 |
| 20260902121441 | 77 | 249 | 0.0 | 2.0 | 0.00 | 0.01 | 0.00 | 87 | 1016.1 |
| 20260902121352 | 77 | 249 | 0.0 | 2.0 | 0.00 | 0.01 | 0.00 | 87 | 1016.0 |
| 20260902121223 | 77 | 249 | 0.0 | 2.0 | 0.00 | 0.01 | 0.00 | 87 | 1016.0 |
| 20260902121140 | 77 | 249 | 0.0 | 3.0 | 0.00 | 0.01 | 0.00 | 87 | 1016.1 |
| 20260902121032 | 77 | 249 | 0.0 | 3.0 | 0.00 | 0.01 | 0.00 | 88 | 1016.0 |
| 20260902120924 | 77 | 249 | 0.0 | 3.0 | 0.00 | 0.01 | 0.00 | 88 | 1016.0 |
| 20260902120837 | 77 | 249 | 0.0 | 3.0 | 0.00 | 0.01 | 0.00 | 88 | 1016.0 |
| 20260902120728 | 77 | 249 | 1.0 | 3.0 | 0.00 | 0.01 | 0.00 | 88 | 1015.9 |
| 20260902120640 | 77 | 249 | 1.0 | 3.0 | 0.00 | 0.01 | 0.00 | 88 | 1016.1 |
| 20260902120533 | 76 | 249 | 0.0 | 3.0 | 0.00 | 0.01 | 0.00 | 88 | 1016.0 |
| 20260902120425 | 76 | 249 | 1.0 | 3.0 | 0.00 | 0.01 | 0.00 | 88 | 1015.9 |
| 20260902120337 | 76 | 249 | 2.0 | 3.0 | 0.00 | 0.01 | 0.00 | 88 | 1016.0 |
| 20260902120241 | 76 | 249 | 1.0 | 3.0 | 0.00 | 0.01 | 0.00 | 88 | 1015.9 |
| 20260902120143 | 76 | 249 | 1.0 | 3.0 | 0.00 | 0.01 | 0.00 | 88 | 1015.9 |
| 20260902120033 | 76 | 249 | 0.0 | 3.0 | 0.00 | 0.01 | 0.00 | 89 | 1015.9 |
| 20260902115924 | 76 | 249 | 1.0 | 3.0 | 0.00 | 0.01 | 0.00 | 89 | 1015.9 |
| 20260902115836 | 76 | 244 | 2.0 | 3.0 | 0.00 | 0.01 | 0.00 | 89 | 1015.9 |
| 20260902115729 | 76 | 244 | 1.0 | 3.0 | 0.00 | 0.01 | 0.00 | 89 | 1015.9 |
| 20260902115640 | 76 | 322 | 0.0 | 0.0 | 0.00 | 0.01 | 0.00 | 89 | 1015.8 |
| 20260902115531 | 76 | 322 | 0.0 | 0.0 | 0.00 | 0.01 | 0.00 | 89 | 1015.8 |
| 20260902115428 | 76 | 322 | 0.0 | 0.0 | 0.00 | 0.01 | 0.00 | 89 | 1015.9 |
| 20260902115341 | 75 | 322 | 0.0 | 0.0 | 0.00 | 0.01 | 0.00 | 89 | 1015.9 |
| 20260902115252 | 75 | 322 | 0.0 | 0.0 | 0.00 | 0.01 | 0.00 | 90 | 1015.9 |
| 20260902115144 | 75 | 322 | 0.0 | 0.0 | 0.00 | 0.01 | 0.00 | 90 | 1015.9 |
| 20260902115055 | 75 | 322 | 0.0 | 0.0 | 0.00 | 0.01 | 0.00 | 90 | 1015.8 |
| 20260902114926 | 75 | 322 | 0.0 | 0.0 | 0.00 | 0.01 | 0.00 | 90 | 1015.8 |
| 20260902114839 | 75 | 202 | 0.0 | 0.0 | 0.00 | 0.01 | 0.00 | 90 | 1015.8 |
| 20260902114731 | 75 | 202 | 0.0 | 0.0 | 0.00 | 0.01 | 0.00 | 90 | 1015.8 |
| 20260902114654 | 75 | 202 | 0.0 | 0.0 | 0.00 | 0.01 | 0.00 | 90 | 1015.8 |
| 20260902114526 | 75 | 202 | 0.0 | 0.0 | 0.00 | 0.01 | 0.00 | 90 | 1015.7 |
| 20260902114423 | 75 | 202 | 0.0 | 0.0 | 0.00 | 0.01 | 0.00 | 90 | 1015.7 |
| 20260902114336 | 75 | 202 | 0.0 | 0.0 | 0.00 | 0.01 | 0.00 | 90 | 1015.7 |
| 20260902114228 | 75 | 202 | 0.0 | 0.0 | 0.00 | 0.01 | 0.00 | 90 | 1015.7 |
| 20260902114140 | 75 | 202 | 0.0 | 0.0 | 0.00 | 0.01 | 0.00 | 90 | 1015.6 |
| 20260902114033 | 75 | 202 | 0.0 | 0.0 | 0.00 | 0.01 | 0.00 | 90 | 1015.6 |
| 20260902113925 | 75 | 202 | 0.0 | 0.0 | 0.00 | 0.01 | 0.00 | 90 | 1015.6 |
| 20260902113838 | 75 | 202 | 0.0 | 0.0 | 0.00 | 0.01 | 0.00 | 90 | 1015.7 |
| 20260902113730 | 75 | 202 | 0.0 | 0.0 | 0.00 | 0.01 | 0.00 | 90 | 1015.7 |
| 20260902113625 | 75 | 202 | 0.0 | 0.0 | 0.00 | 0.01 | 0.00 | 90 | 1015.6 |
| 20260902113538 | 75 | 202 | 0.0 | 0.0 | 0.00 | 0.01 | 0.00 | 90 | 1015.7 |
| 20260902113431 | 75 | 202 | 0.0 | 0.0 | 0.00 | 0.01 | 0.00 | 90 | 1015.7 |
| 20260902113343 | 75 | 303 | 0.0 | 0.0 | 0.00 | 0.01 | 0.00 | 90 | 1015.6 |
| 20260902113253 | 75 | 298 | 0.0 | 0.0 | 0.00 | 0.01 | 0.00 | 90 | 1015.6 |
| 20260902113154 | 75 | 240 | 0.0 | 0.0 | 0.00 | 0.01 | 0.00 | 90 | 1015.6 |
| 20260902113046 | 75 | 240 | 0.0 | 0.0 | 0.00 | 0.01 | 0.00 | 90 | 1015.6 |
| 20260902112957 | 75 | 240 | 0.0 | 0.0 | 0.00 | 0.01 | 0.00 | 90 | 1015.6 |
| 20260902112828 | 75 | 240 | 0.0 | 0.0 | 0.00 | 0.01 | 0.00 | 90 | 1015.6 |
| 20260902112724 | 75 | 240 | 0.0 | 0.0 | 0.00 | 0.01 | 0.00 | 90 | 1015.5 |
| 20260902112636 | 75 | 240 | 0.0 | 0.0 | 0.00 | 0.01 | 0.00 | 90 | 1015.6 |
| 20260902112527 | 75 | 240 | 0.0 | 0.0 | 0.00 | 0.01 | 0.00 | 90 | 1015.6 |
| 20260902112438 | 75 | 240 | 0.0 | 0.0 | 0.00 | 0.01 | 0.00 | 90 | 1015.6 |
| 20260902112329 | 75 | 240 | 0.0 | 0.0 | 0.00 | 0.01 | 0.00 | 90 | 1015.6 |
| 20260902112241 | 75 | 240 | 0.0 | 0.0 | 0.00 | 0.01 | 0.00 | 90 | 1015.8 |
| 20260902112134 | 75 | 240 | 0.0 | 0.0 | 0.00 | 0.01 | 0.00 | 90 | 1015.6 |
| 20260902112026 | 75 | 240 | 0.0 | 0.0 | 0.00 | 0.01 | 0.00 | 90 | 1015.6 |
| 20260902111938 | 75 | 240 | 0.0 | 0.0 | 0.00 | 0.01 | 0.00 | 90 | 1015.7 |
| 20260902111854 | 75 | 240 | 0.0 | 0.0 | 0.00 | 0.01 | 0.00 | 90 | 1015.8 |
| 20260902111725 | 75 | 240 | 0.0 | 0.0 | 0.00 | 0.01 | 0.00 | 91 | 1015.6 |
| 20260902111646 | 75 | 240 | 0.0 | 0.0 | 0.00 | 0.01 | 0.00 | 91 | 1015.6 |
| 20260902111537 | 75 | 240 | 0.0 | 0.0 | 0.00 | 0.01 | 0.00 | 91 | 1015.7 |
| 20260902111430 | 75 | 240 | 0.0 | 0.0 | 0.00 | 0.01 | 0.00 | 91 | 1015.7 |
| 20260902111323 | 75 | 240 | 0.0 | 0.0 | 0.00 | 0.01 | 0.00 | 91 | 1015.6 |
| 20260902111236 | 75 | 240 | 0.0 | 0.0 | 0.00 | 0.01 | 0.00 | 91 | 1015.7 |
| 20260902111127 | 75 | 240 | 0.0 | 0.0 | 0.00 | 0.01 | 0.00 | 91 | 1015.8 |
| 20260902111023 | 75 | 240 | 0.0 | 0.0 | 0.00 | 0.01 | 0.00 | 91 | 1015.7 |
| 20260902110935 | 75 | 240 | 0.0 | 0.0 | 0.00 | 0.01 | 0.00 | 91 | 1015.6 |
| 20260902110826 | 75 | 240 | 0.0 | 0.0 | 0.00 | 0.01 | 0.00 | 91 | 1015.7 |
| 20260902110738 | 75 | 240 | 0.0 | 0.0 | 0.00 | 0.01 | 0.00 | 91 | 1015.7 |
| 20260902110630 | 75 | 240 | 0.0 | 0.0 | 0.00 | 0.01 | 0.00 | 91 | 1015.7 |
| 20260902110523 | 75 | 240 | 0.0 | 0.0 | 0.00 | 0.01 | 0.00 | 91 | 1015.7 |
| 20260902110436 | 75 | 240 | 0.0 | 0.0 | 0.00 | 0.01 | 0.00 | 91 | 1015.6 |
| 20260902110329 | 75 | 240 | 0.0 | 0.0 | 0.00 | 0.01 | 0.00 | 91 | 1015.8 |
| 20260902110223 | 75 | 240 | 0.0 | 0.0 | 0.00 | 0.01 | 0.00 | 91 | 1015.7 |
| 20260902110144 | 75 | 240 | 0.0 | 0.0 | 0.00 | 0.01 | 0.00 | 91 | 1015.7 |
| 20260902110035 | 75 | 240 | 0.0 | 0.0 | 0.00 | 0.01 | 0.00 | 91 | 1015.7 |
| 20260902105947 | 75 | 240 | 0.0 | 0.0 | 0.00 | 0.01 | 0.00 | 91 | 1015.7 |
| 20260902105838 | 75 | 240 | 0.0 | 0.0 | 0.00 | 0.01 | 0.00 | 91 | 1015.7 |
| 20260902105729 | 75 | 240 | 0.0 | 0.0 | 0.00 | 0.01 | 0.00 | 91 | 1015.7 |
| 20260902105640 | 75 | 240 | 0.0 | 0.0 | 0.00 | 0.01 | 0.00 | 91 | 1015.7 |
| 20260902105531 | 75 | 240 | 0.0 | 0.0 | 0.00 | 0.01 | 0.00 | 92 | 1015.7 |
| 20260902105423 | 75 | 240 | 0.0 | 0.0 | 0.00 | 0.01 | 0.00 | 92 | 1015.6 |
| 20260902105335 | 74 | 240 | 0.0 | 0.0 | 0.00 | 0.01 | 0.00 | 92 | 1015.7 |
| 20260902105231 | 75 | 240 | 0.0 | 0.0 | 0.00 | 0.01 | 0.00 | 92 | 1015.6 |
| 20260902105142 | 74 | 240 | 0.0 | 0.0 | 0.00 | 0.01 | 0.00 | 92 | 1015.6 |
| 20260902105054 | 74 | 240 | 0.0 | 0.0 | 0.00 | 0.01 | 0.00 | 92 | 1015.6 |
| 20260902104946 | 74 | 240 | 0.0 | 0.0 | 0.00 | 0.01 | 0.00 | 92 | 1015.7 |
| 20260902104856 | 74 | 240 | 0.0 | 0.0 | 0.00 | 0.01 | 0.00 | 92 | 1015.8 |
| 20260902104727 | 74 | 240 | 0.0 | 0.0 | 0.00 | 0.01 | 0.00 | 92 | 1015.7 |
| 20260902104649 | 74 | 240 | 0.0 | 0.0 | 0.00 | 0.01 | 0.00 | 92 | 1015.7 |
| 20260902104540 | 74 | 240 | 0.0 | 0.0 | 0.00 | 0.01 | 0.00 | 92 | 1015.7 |
| 20260902104452 | 74 | 240 | 0.0 | 0.0 | 0.00 | 0.01 | 0.00 | 92 | 1015.6 |
| 20260902104323 | 74 | 240 | 0.0 | 0.0 | 0.00 | 0.01 | 0.00 | 92 | 1015.7 |
| 20260902104240 | 74 | 240 | 0.0 | 0.0 | 0.00 | 0.01 | 0.00 | 92 | 1015.7 |
| 20260902104151 | 74 | 240 | 0.0 | 0.0 | 0.00 | 0.01 | 0.00 | 92 | 1015.7 |
| 20260902104103 | 74 | 240 | 0.0 | 0.0 | 0.00 | 0.01 | 0.00 | 92 | 1015.6 |
| 20260902103953 | 74 | 240 | 0.0 | 0.0 | 0.00 | 0.01 | 0.00 | 92 | 1015.7 |
| 20260902103824 | 74 | 240 | 0.0 | 0.0 | 0.00 | 0.01 | 0.00 | 93 | 1015.8 |
| 20260902103736 | 74 | 240 | 0.0 | 0.0 | 0.00 | 0.01 | 0.00 | 93 | 1015.7 |
| 20260902103627 | 74 | 240 | 0.0 | 0.0 | 0.00 | 0.01 | 0.00 | 93 | 1015.7 |
| 20260902103540 | 74 | 240 | 0.0 | 0.0 | 0.00 | 0.01 | 0.00 | 93 | 1015.6 |
| 20260902103432 | 74 | 240 | 0.0 | 0.0 | 0.00 | 0.01 | 0.00 | 93 | 1015.7 |
| 20260902103327 | 74 | 240 | 0.0 | 0.0 | 0.00 | 0.01 | 0.00 | 93 | 1015.8 |
| 20260902103238 | 74 | 240 | 0.0 | 0.0 | 0.00 | 0.01 | 0.00 | 93 | 1015.7 |
| 20260902103202 | 74 | 240 | 0.0 | 0.0 | 0.00 | 0.01 | 0.00 | 93 | 1015.7 |
| 20260902103032 | 74 | 240 | 0.0 | 0.0 | 0.00 | 0.01 | 0.00 | 93 | 1015.6 |
| 20260902102925 | 74 | 240 | 0.0 | 0.0 | 0.00 | 0.01 | 0.00 | 93 | 1015.6 |
| 20260902102837 | 74 | 240 | 0.0 | 0.0 | 0.00 | 0.01 | 0.00 | 93 | 1015.7 |
| 20260902102750 | 74 | 240 | 0.0 | 0.0 | 0.00 | 0.01 | 0.00 | 93 | 1015.7 |
| 20260902102640 | 74 | 240 | 0.0 | 0.0 | 0.00 | 0.01 | 0.00 | 93 | 1015.7 |
| 20260902102532 | 74 | 240 | 0.0 | 0.0 | 0.00 | 0.01 | 0.00 | 94 | 1015.7 |
| 20260902102423 | 74 | 240 | 0.0 | 0.0 | 0.00 | 0.01 | 0.00 | 93 | 1015.7 |
| 20260902102339 | 74 | 240 | 0.0 | 0.0 | 0.00 | 0.01 | 0.00 | 94 | 1015.7 |
| 20260902102231 | 74 | 240 | 0.0 | 0.0 | 0.00 | 0.01 | 0.00 | 94 | 1015.7 |
| 20260902102143 | 74 | 240 | 0.0 | 0.0 | 0.00 | 0.01 | 0.00 | 94 | 1015.6 |
| 20260902102054 | 74 | 240 | 0.0 | 0.0 | 0.00 | 0.01 | 0.00 | 94 | 1015.7 |
| 20260902101946 | 74 | 240 | 0.0 | 0.0 | 0.00 | 0.01 | 0.00 | 94 | 1015.6 |
| 20260902101858 | 74 | 240 | 0.0 | 0.0 | 0.00 | 0.01 | 0.00 | 94 | 1015.6 |
| 20260902101809 | 74 | 240 | 0.0 | 0.0 | 0.00 | 0.01 | 0.00 | 94 | 1015.7 |
| 20260902101731 | 74 | 240 | 0.0 | 0.0 | 0.00 | 0.01 | 0.00 | 94 | 1015.6 |
| 20260902101601 | 74 | 240 | 0.0 | 0.0 | 0.00 | 0.01 | 0.00 | 95 | 1015.6 |
| 20260902101433 | 74 | 240 | 0.0 | 0.0 | 0.00 | 0.01 | 0.00 | 95 | 1015.6 |
| 20260902101328 | 74 | 240 | 0.0 | 0.0 | 0.00 | 0.01 | 0.00 | 95 | 1015.6 |
| 20260902101240 | 74 | 240 | 0.0 | 0.0 | 0.00 | 0.01 | 0.00 | 95 | 1015.6 |
| 20260902101132 | 73 | 240 | 0.0 | 0.0 | 0.00 | 0.01 | 0.00 | 95 | 1015.6 |
| 20260902101023 | 73 | 240 | 0.0 | 0.0 | 0.00 | 0.01 | 0.00 | 95 | 1015.6 |
| 20260902100935 | 73 | 240 | 0.0 | 0.0 | 0.00 | 0.01 | 0.00 | 95 | 1015.5 |
| 20260902100826 | 73 | 240 | 0.0 | 0.0 | 0.00 | 0.01 | 0.00 | 95 | 1015.6 |
| 20260902100737 | 73 | 240 | 0.0 | 0.0 | 0.00 | 0.01 | 0.00 | 95 | 1015.6 |
| 20260902100628 | 73 | 240 | 0.0 | 0.0 | 0.00 | 0.01 | 0.00 | 95 | 1015.6 |
| 20260902100524 | 73 | 240 | 0.0 | 0.0 | 0.00 | 0.01 | 0.00 | 96 | 1015.6 |
| 20260902100436 | 73 | 240 | 0.0 | 0.0 | 0.00 | 0.01 | 0.00 | 96 | 1015.5 |
| 20260902100330 | 73 | 240 | 0.0 | 0.0 | 0.00 | 0.01 | 0.00 | 96 | 1015.5 |
| 20260902100240 | 73 | 240 | 0.0 | 0.0 | 0.00 | 0.01 | 0.00 | 96 | 1015.5 |
| 20260902100202 | 73 | 240 | 0.0 | 0.0 | 0.00 | 0.01 | 0.00 | 96 | 1015.5 |
| 20260902100033 | 73 | 240 | 0.0 | 0.0 | 0.00 | 0.01 | 0.00 | 96 | 1015.5 |
| 20260902095926 | 73 | 240 | 0.0 | 0.0 | 0.00 | 0.01 | 0.00 | 96 | 1015.6 |
| 20260902095838 | 73 | 240 | 0.0 | 0.0 | 0.00 | 0.01 | 0.00 | 96 | 1015.5 |
| 20260902095751 | 73 | 240 | 0.0 | 0.0 | 0.00 | 0.01 | 0.00 | 96 | 1015.6 |
| 20260902095625 | 73 | 240 | 0.0 | 0.0 | 0.00 | 0.01 | 0.00 | 96 | 1015.5 |
| 20260902095538 | 73 | 240 | 0.0 | 0.0 | 0.00 | 0.01 | 0.00 | 96 | 1015.6 |
| 20260902095430 | 73 | 240 | 0.0 | 0.0 | 0.00 | 0.01 | 0.00 | 96 | 1015.5 |
| 20260902095341 | 73 | 240 | 0.0 | 0.0 | 0.00 | 0.01 | 0.00 | 96 | 1015.4 |
| 20260902095234 | 72 | 240 | 0.0 | 0.0 | 0.00 | 0.01 | 0.00 | 96 | 1015.5 |
| 20260902095125 | 72 | 240 | 0.0 | 0.0 | 0.00 | 0.01 | 0.00 | 96 | 1015.5 |
| 20260902095038 | 72 | 240 | 0.0 | 0.0 | 0.00 | 0.01 | 0.00 | 97 | 1015.5 |
| 20260902094930 | 72 | 240 | 0.0 | 0.0 | 0.00 | 0.01 | 0.00 | 96 | 1015.5 |
| 20260902094825 | 72 | 240 | 0.0 | 0.0 | 0.00 | 0.01 | 0.00 | 96 | 1015.5 |
| 20260902094737 | 72 | 240 | 0.0 | 0.0 | 0.00 | 0.01 | 0.00 | 97 | 1015.5 |
| 20260902094659 | 72 | 240 | 0.0 | 0.0 | 0.00 | 0.01 | 0.00 | 97 | 1015.5 |
| 20260902094531 | 72 | 240 | 0.0 | 0.0 | 0.00 | 0.01 | 0.00 | 97 | 1015.5 |
| 20260902094443 | 72 | 240 | 0.0 | 0.0 | 0.00 | 0.01 | 0.00 | 97 | 1015.5 |
| 20260902094355 | 72 | 240 | 0.0 | 0.0 | 0.00 | 0.01 | 0.00 | 96 | 1015.4 |
| 20260902094247 | 72 | 240 | 0.0 | 0.0 | 0.00 | 0.01 | 0.00 | 96 | 1015.4 |
| 20260902094159 | 72 | 240 | 0.0 | 0.0 | 0.00 | 0.01 | 0.00 | 96 | 1015.5 |
| 20260902094031 | 71 | 240 | 0.0 | 0.0 | 0.00 | 0.01 | 0.00 | 96 | 1015.6 |
| 20260902093923 | 71 | 240 | 0.0 | 0.0 | 0.00 | 0.01 | 0.00 | 96 | 1015.5 |
| 20260902093839 | 71 | 240 | 0.0 | 0.0 | 0.00 | 0.01 | 0.00 | 96 | 1015.5 |
| 20260902093730 | 71 | 240 | 0.0 | 0.0 | 0.00 | 0.01 | 0.00 | 96 | 1015.5 |
| 20260902093623 | 71 | 240 | 0.0 | 0.0 | 0.00 | 0.01 | 0.00 | 96 | 1015.5 |
| 20260902093535 | 71 | 240 | 0.0 | 0.0 | 0.00 | 0.01 | 0.00 | 96 | 1015.5 |
| 20260902093427 | 71 | 240 | 0.0 | 0.0 | 0.00 | 0.01 | 0.00 | 96 | 1015.5 |
| 20260902093340 | 71 | 240 | 0.0 | 0.0 | 0.00 | 0.01 | 0.00 | 96 | 1015.6 |
| 20260902093231 | 71 | 240 | 0.0 | 0.0 | 0.00 | 0.01 | 0.00 | 96 | 1015.5 |
| 20260902093152 | 71 | 240 | 0.0 | 0.0 | 0.00 | 0.01 | 0.00 | 96 | 1015.5 |
| 20260902093027 | 71 | 240 | 0.0 | 0.0 | 0.00 | 0.01 | 0.00 | 96 | 1015.5 |
| 20260902092940 | 71 | 240 | 0.0 | 0.0 | 0.00 | 0.01 | 0.00 | 96 | 1015.4 |
| 20260902092833 | 71 | 240 | 0.0 | 0.0 | 0.00 | 0.01 | 0.00 | 96 | 1015.4 |
| 20260902092725 | 72 | 240 | 0.0 | 0.0 | 0.00 | 0.01 | 0.00 | 96 | 1015.4 |
| 20260902092638 | 71 | 240 | 0.0 | 0.0 | 0.00 | 0.01 | 0.00 | 96 | 1015.4 |
| 20260902092550 | 71 | 240 | 0.0 | 0.0 | 0.00 | 0.01 | 0.00 | 96 | 1015.3 |
| 20260902092440 | 71 | 240 | 0.0 | 0.0 | 0.00 | 0.01 | 0.00 | 96 | 1015.4 |
| 20260902092352 | 71 | 240 | 0.0 | 0.0 | 0.00 | 0.01 | 0.00 | 96 | 1015.4 |
| 20260902092223 | 71 | 240 | 0.0 | 0.0 | 0.00 | 0.01 | 0.00 | 95 | 1015.4 |
| 20260902092136 | 71 | 240 | 0.0 | 0.0 | 0.00 | 0.01 | 0.00 | 96 | 1015.3 |
| 20260902092031 | 71 | 240 | 0.0 | 0.0 | 0.00 | 0.01 | 0.00 | 95 | 1015.4 |
| 20260902091923 | 71 | 240 | 0.0 | 0.0 | 0.00 | 0.01 | 0.00 | 95 | 1015.4 |
| 20260902091836 | 72 | 240 | 0.0 | 0.0 | 0.00 | 0.01 | 0.00 | 95 | 1015.4 |
| 20260902091749 | 72 | 240 | 0.0 | 0.0 | 0.00 | 0.01 | 0.00 | 95 | 1015.4 |
| 20260902091712 | 72 | 240 | 0.0 | 0.0 | 0.00 | 0.01 | 0.00 | 95 | 1015.3 |
| 20260902091543 | 72 | 240 | 0.0 | 0.0 | 0.00 | 0.01 | 0.00 | 95 | 1015.4 |
| 20260902091455 | 72 | 240 | 0.0 | 0.0 | 0.00 | 0.01 | 0.00 | 95 | 1015.4 |
| 20260902091408 | 72 | 240 | 0.0 | 0.0 | 0.00 | 0.01 | 0.00 | 95 | 1015.3 |
| 20260902091259 | 72 | 240 | 0.0 | 0.0 | 0.00 | 0.01 | 0.00 | 95 | 1015.4 |
| 20260902091129 | 72 | 240 | 0.0 | 0.0 | 0.00 | 0.01 | 0.00 | 95 | 1015.4 |
| 20260902091025 | 72 | 240 | 0.0 | 0.0 | 0.00 | 0.01 | 0.00 | 95 | 1015.4 |
| 20260902090938 | 72 | 240 | 0.0 | 0.0 | 0.00 | 0.01 | 0.00 | 95 | 1015.4 |
| 20260902090851 | 72 | 240 | 0.0 | 0.0 | 0.00 | 0.01 | 0.00 | 95 | 1015.4 |
| 20260902090741 | 72 | 240 | 0.0 | 0.0 | 0.00 | 0.01 | 0.00 | 95 | 1015.3 |
| 20260902090634 | 72 | 240 | 0.0 | 0.0 | 0.00 | 0.01 | 0.00 | 95 | 1015.3 |
| 20260902090526 | 72 | 240 | 0.0 | 0.0 | 0.00 | 0.01 | 0.00 | 95 | 1015.3 |
| 20260902090436 | 72 | 240 | 0.0 | 0.0 | 0.00 | 0.01 | 0.00 | 95 | 1015.3 |
| 20260902090329 | 72 | 240 | 0.0 | 0.0 | 0.00 | 0.01 | 0.00 | 95 | 1015.3 |
| 20260902090225 | 72 | 240 | 0.0 | 0.0 | 0.00 | 0.01 | 0.00 | 95 | 1015.3 |
| 20260902090146 | 72 | 240 | 0.0 | 0.0 | 0.00 | 0.01 | 0.00 | 95 | 1015.4 |
| 20260902090036 | 72 | 240 | 0.0 | 0.0 | 0.00 | 0.01 | 0.00 | 95 | 1015.3 |
| 20260902085929 | 72 | 240 | 0.0 | 0.0 | 0.00 | 0.01 | 0.00 | 95 | 1015.3 |
| 20260902085840 | 72 | 240 | 0.0 | 0.0 | 0.00 | 0.01 | 0.00 | 95 | 1015.3 |
| 20260902085751 | 72 | 240 | 0.0 | 0.0 | 0.00 | 0.01 | 0.00 | 95 | 1015.3 |
| 20260902085643 | 72 | 240 | 0.0 | 0.0 | 0.00 | 0.01 | 0.00 | 95 | 1015.3 |
| 20260902085555 | 72 | 240 | 0.0 | 0.0 | 0.00 | 0.01 | 0.00 | 95 | 1015.3 |
| 20260902085425 | 72 | 240 | 0.0 | 0.0 | 0.00 | 0.01 | 0.00 | 95 | 1015.2 |
| 20260902085337 | 72 | 240 | 0.0 | 0.0 | 0.00 | 0.01 | 0.00 | 95 | 1015.2 |
| 20260902085229 | 72 | 240 | 0.0 | 0.0 | 0.00 | 0.01 | 0.00 | 95 | 1015.1 |
| 20260902085144 | 72 | 240 | 0.0 | 0.0 | 0.00 | 0.01 | 0.00 | 95 | 1015.2 |
| 20260902085034 | 72 | 240 | 0.0 | 0.0 | 0.00 | 0.01 | 0.00 | 95 | 1015.2 |
| 20260902084944 | 72 | 240 | 0.0 | 0.0 | 0.00 | 0.01 | 0.00 | 95 | 1015.2 |
| 20260902084835 | 72 | 240 | 0.0 | 0.0 | 0.00 | 0.01 | 0.00 | 95 | 1015.2 |
| 20260902084747 | 72 | 240 | 0.0 | 0.0 | 0.00 | 0.01 | 0.00 | 95 | 1015.2 |
| 20260902084710 | 72 | 240 | 0.0 | 0.0 | 0.00 | 0.01 | 0.00 | 95 | 1015.2 |
| 20260902084601 | 72 | 240 | 0.0 | 0.0 | 0.00 | 0.01 | 0.00 | 95 | 1015.2 |
| 20260902084432 | 72 | 240 | 0.0 | 0.0 | 0.00 | 0.01 | 0.00 | 95 | 1015.2 |
| 20260902084323 | 72 | 240 | 0.0 | 0.0 | 0.00 | 0.01 | 0.00 | 95 | 1015.1 |
| 20260902084235 | 72 | 240 | 0.0 | 0.0 | 0.00 | 0.01 | 0.00 | 95 | 1015.2 |
| 20260902084130 | 72 | 240 | 0.0 | 0.0 | 0.00 | 0.01 | 0.00 | 95 | 1015.1 |
| 20260902084021 | 72 | 240 | 0.0 | 0.0 | 0.00 | 0.01 | 0.00 | 95 | 1015.2 |
| 20260902083932 | 72 | 240 | 0.0 | 0.0 | 0.00 | 0.01 | 0.00 | 95 | 1015.2 |
| 20260902083823 | 72 | 240 | 0.0 | 0.0 | 0.00 | 0.01 | 0.00 | 95 | 1015.3 |
| 20260902083734 | 72 | 240 | 0.0 | 0.0 | 0.00 | 0.01 | 0.00 | 95 | 1015.2 |
| 20260902083627 | 72 | 240 | 0.0 | 0.0 | 0.00 | 0.01 | 0.00 | 95 | 1015.3 |
| 20260902083540 | 73 | 240 | 0.0 | 0.0 | 0.00 | 0.01 | 0.00 | 95 | 1015.2 |
| 20260902083432 | 73 | 240 | 0.0 | 0.0 | 0.00 | 0.01 | 0.00 | 95 | 1015.2 |
| 20260902083328 | 73 | 240 | 0.0 | 0.0 | 0.00 | 0.01 | 0.00 | 95 | 1015.2 |
| 20260902083239 | 73 | 240 | 0.0 | 0.0 | 0.00 | 0.01 | 0.00 | 95 | 1015.2 |
| 20260902083202 | 73 | 240 | 0.0 | 0.0 | 0.00 | 0.01 | 0.00 | 95 | 1015.2 |
| 20260902083054 | 73 | 240 | 0.0 | 0.0 | 0.00 | 0.01 | 0.00 | 95 | 1015.3 |
| 20260902082925 | 73 | 240 | 0.0 | 0.0 | 0.00 | 0.01 | 0.00 | 95 | 1015.3 |
| 20260902082837 | 73 | 240 | 0.0 | 0.0 | 0.00 | 0.01 | 0.00 | 95 | 1015.2 |
| 20260902082729 | 73 | 240 | 0.0 | 0.0 | 0.00 | 0.01 | 0.00 | 95 | 1015.2 |
| 20260902082640 | 73 | 240 | 0.0 | 0.0 | 0.00 | 0.01 | 0.00 | 95 | 1015.3 |
| 20260902082532 | 73 | 240 | 0.0 | 0.0 | 0.00 | 0.01 | 0.00 | 95 | 1015.2 |
| 20260902082427 | 73 | 240 | 0.0 | 0.0 | 0.00 | 0.01 | 0.00 | 95 | 1015.3 |
| 20260902082339 | 73 | 240 | 0.0 | 0.0 | 0.00 | 0.01 | 0.00 | 95 | 1015.3 |
| 20260902082231 | 73 | 240 | 0.0 | 0.0 | 0.00 | 0.01 | 0.00 | 95 | 1015.2 |
| 20260902082123 | 73 | 240 | 0.0 | 0.0 | 0.00 | 0.01 | 0.00 | 95 | 1015.3 |
| 20260902082037 | 73 | 240 | 0.0 | 0.0 | 0.00 | 0.01 | 0.00 | 95 | 1015.3 |
| 20260902081948 | 73 | 240 | 0.0 | 0.0 | 0.00 | 0.01 | 0.00 | 95 | 1015.2 |
| 20260902081859 | 73 | 240 | 0.0 | 0.0 | 0.00 | 0.01 | 0.00 | 95 | 1015.2 |
| 20260902081730 | 73 | 240 | 0.0 | 0.0 | 0.00 | 0.01 | 0.00 | 95 | 1015.2 |
| 20260902081651 | 73 | 240 | 0.0 | 0.0 | 0.00 | 0.01 | 0.00 | 95 | 1015.2 |
| 20260902081527 | 73 | 240 | 0.0 | 0.0 | 0.00 | 0.01 | 0.00 | 95 | 1015.2 |
| 20260902081439 | 73 | 240 | 0.0 | 0.0 | 0.00 | 0.01 | 0.00 | 95 | 1015.2 |
| 20260902081331 | 73 | 240 | 0.0 | 0.0 | 0.00 | 0.01 | 0.00 | 95 | 1015.2 |
| 20260902081223 | 73 | 240 | 0.0 | 0.0 | 0.00 | 0.01 | 0.00 | 95 | 1015.3 |
| 20260902081136 | 73 | 240 | 0.0 | 0.0 | 0.00 | 0.01 | 0.00 | 95 | 1015.2 |
| 20260902081027 | 73 | 240 | 0.0 | 0.0 | 0.00 | 0.01 | 0.00 | 95 | 1015.2 |
| 20260902080939 | 73 | 240 | 0.0 | 0.0 | 0.00 | 0.01 | 0.00 | 94 | 1015.2 |
| 20260902080831 | 73 | 240 | 0.0 | 0.0 | 0.00 | 0.01 | 0.00 | 94 | 1015.2 |
| 20260902080743 | 73 | 240 | 0.0 | 0.0 | 0.00 | 0.01 | 0.00 | 94 | 1015.2 |
| 20260902080637 | 73 | 240 | 0.0 | 0.0 | 0.00 | 0.01 | 0.00 | 94 | 1015.2 |
| 20260902080549 | 73 | 240 | 0.0 | 0.0 | 0.00 | 0.01 | 0.00 | 94 | 1015.2 |
| 20260902080500 | 73 | 240 | 0.0 | 0.0 | 0.00 | 0.01 | 0.00 | 94 | 1015.3 |
| 20260902080333 | 73 | 240 | 0.0 | 0.0 | 0.00 | 0.01 | 0.00 | 94 | 1015.3 |
| 20260902080222 | 73 | 240 | 0.0 | 0.0 | 0.00 | 0.01 | 0.00 | 94 | 1015.3 |
| 20260902080034 | 73 | 240 | 0.0 | 0.0 | 0.00 | 0.01 | 0.00 | 94 | 1015.4 |
| 20260902075927 | 73 | 240 | 0.0 | 0.0 | 0.00 | 0.01 | 0.00 | 94 | 1015.3 |
| 20260902075839 | 73 | 240 | 0.0 | 0.0 | 0.00 | 0.01 | 0.00 | 94 | 1015.3 |
| 20260902075736 | 74 | 240 | 0.0 | 0.0 | 0.00 | 0.01 | 0.00 | 94 | 1015.3 |
| 20260902075628 | 74 | 240 | 0.0 | 0.0 | 0.00 | 0.01 | 0.00 | 94 | 1015.3 |
| 20260902075540 | 74 | 240 | 0.0 | 0.0 | 0.00 | 0.01 | 0.00 | 94 | 1015.3 |
| 20260902075452 | 74 | 240 | 0.0 | 0.0 | 0.00 | 0.01 | 0.00 | 94 | 1015.2 |
| 20260902075324 | 74 | 240 | 0.0 | 0.0 | 0.00 | 0.01 | 0.00 | 94 | 1015.3 |
| 20260902075235 | 74 | 240 | 0.0 | 0.0 | 0.00 | 0.01 | 0.00 | 94 | 1015.3 |
| 20260902075126 | 74 | 240 | 0.0 | 0.0 | 0.00 | 0.01 | 0.00 | 94 | 1015.2 |
| 20260902075038 | 74 | 240 | 0.0 | 0.0 | 0.00 | 0.01 | 0.00 | 94 | 1015.3 |
| 20260902074930 | 74 | 240 | 0.0 | 0.0 | 0.00 | 0.01 | 0.00 | 94 | 1015.3 |
| 20260902074846 | 74 | 240 | 0.0 | 0.0 | 0.00 | 0.01 | 0.00 | 94 | 1015.4 |
| 20260902074737 | 74 | 240 | 0.0 | 0.0 | 0.00 | 0.01 | 0.00 | 94 | 1015.3 |
| 20260902074658 | 74 | 240 | 0.0 | 0.0 | 0.00 | 0.01 | 0.00 | 94 | 1015.3 |
| 20260902074530 | 74 | 240 | 0.0 | 0.0 | 0.00 | 0.01 | 0.00 | 94 | 1015.2 |
| 20260902074443 | 74 | 240 | 0.0 | 0.0 | 0.00 | 0.01 | 0.00 | 94 | 1015.3 |
| 20260902074354 | 74 | 240 | 0.0 | 0.0 | 0.00 | 0.01 | 0.00 | 94 | 1015.3 |
| 20260902074305 | 74 | 240 | 0.0 | 0.0 | 0.00 | 0.01 | 0.00 | 94 | 1015.3 |
| 20260902074156 | 74 | 240 | 0.0 | 0.0 | 0.00 | 0.01 | 0.00 | 94 | 1015.2 |
| 20260902074026 | 74 | 240 | 0.0 | 0.0 | 0.00 | 0.01 | 0.00 | 94 | 1015.2 |
| 20260902073938 | 74 | 240 | 0.0 | 0.0 | 0.00 | 0.01 | 0.00 | 94 | 1015.2 |
| 20260902073835 | 74 | 240 | 0.0 | 0.0 | 0.00 | 0.01 | 0.00 | 94 | 1015.3 |
| 20260902073728 | 74 | 240 | 0.0 | 0.0 | 0.00 | 0.01 | 0.00 | 94 | 1015.3 |
| 20260902073639 | 74 | 240 | 0.0 | 0.0 | 0.00 | 0.01 | 0.00 | 94 | 1015.3 |
| 20260902073531 | 74 | 240 | 0.0 | 0.0 | 0.00 | 0.01 | 0.00 | 94 | 1015.3 |
| 20260902073423 | 74 | 240 | 0.0 | 0.0 | 0.00 | 0.01 | 0.00 | 94 | 1015.3 |
| 20260902073334 | 74 | 240 | 0.0 | 0.0 | 0.00 | 0.01 | 0.00 | 94 | 1015.3 |
| 20260902073224 | 74 | 240 | 0.0 | 0.0 | 0.00 | 0.01 | 0.00 | 94 | 1015.5 |
| 20260902073146 | 74 | 240 | 0.0 | 0.0 | 0.00 | 0.01 | 0.00 | 94 | 1015.4 |
| 20260902073021 | 75 | 240 | 0.0 | 0.0 | 0.00 | 0.01 | 0.00 | 94 | 1015.4 |
| 20260902072933 | 74 | 240 | 0.0 | 0.0 | 0.00 | 0.01 | 0.00 | 94 | 1015.3 |
| 20260902072825 | 75 | 240 | 0.0 | 0.0 | 0.00 | 0.01 | 0.00 | 94 | 1015.4 |
| 20260902072738 | 75 | 240 | 0.0 | 0.0 | 0.00 | 0.01 | 0.00 | 93 | 1015.4 |
| 20260902072650 | 75 | 240 | 0.0 | 0.0 | 0.00 | 0.01 | 0.00 | 93 | 1015.4 |
| 20260902072602 | 75 | 240 | 0.0 | 0.0 | 0.00 | 0.01 | 0.00 | 93 | 1015.4 |
| 20260902072514 | 75 | 240 | 0.0 | 0.0 | 0.00 | 0.01 | 0.00 | 93 | 1015.3 |
| 20260902072405 | 75 | 240 | 0.0 | 0.0 | 0.00 | 0.01 | 0.00 | 93 | 1015.4 |
| 20260902072317 | 75 | 240 | 0.0 | 0.0 | 0.00 | 0.01 | 0.00 | 93 | 1015.4 |
| 20260902072208 | 75 | 240 | 0.0 | 0.0 | 0.00 | 0.01 | 0.00 | 93 | 1015.3 |
| 20260902072059 | 75 | 240 | 0.0 | 0.0 | 0.00 | 0.01 | 0.00 | 93 | 1015.3 |
| 20260902071933 | 75 | 240 | 0.0 | 0.0 | 0.00 | 0.01 | 0.00 | 93 | 1015.4 |
| 20260902071825 | 75 | 240 | 0.0 | 0.0 | 0.00 | 0.01 | 0.00 | 93 | 1015.3 |
| 20260902071737 | 75 | 240 | 0.0 | 0.0 | 0.00 | 0.01 | 0.00 | 93 | 1015.2 |
| 20260902071659 | 75 | 240 | 0.0 | 0.0 | 0.00 | 0.01 | 0.00 | 93 | 1015.2 |
| 20260902071531 | 75 | 240 | 0.0 | 0.0 | 0.00 | 0.01 | 0.00 | 93 | 1015.3 |
| 20260902071424 | 75 | 240 | 0.0 | 0.0 | 0.00 | 0.01 | 0.00 | 93 | 1015.3 |
| 20260902071336 | 75 | 240 | 0.0 | 0.0 | 0.00 | 0.01 | 0.00 | 93 | 1015.3 |
| 20260902071248 | 75 | 240 | 0.0 | 0.0 | 0.00 | 0.01 | 0.00 | 93 | 1015.3 |
| 20260902071139 | 75 | 240 | 0.0 | 0.0 | 0.00 | 0.01 | 0.00 | 93 | 1015.3 |
| 20260902071035 | 75 | 240 | 0.0 | 0.0 | 0.00 | 0.01 | 0.00 | 93 | 1015.4 |
| 20260902070948 | 75 | 240 | 0.0 | 0.0 | 0.00 | 0.01 | 0.00 | 93 | 1015.4 |
| 20260902070839 | 75 | 240 | 0.0 | 0.0 | 0.00 | 0.01 | 0.00 | 93 | 1015.4 |
| 20260902070731 | 75 | 240 | 0.0 | 0.0 | 0.00 | 0.01 | 0.00 | 92 | 1015.4 |
| 20260902070622 | 75 | 240 | 0.0 | 0.0 | 0.00 | 0.01 | 0.00 | 92 | 1015.5 |
| 20260902070535 | 75 | 240 | 0.0 | 0.0 | 0.00 | 0.01 | 0.00 | 92 | 1015.4 |
| 20260902070426 | 75 | 240 | 0.0 | 0.0 | 0.00 | 0.01 | 0.00 | 92 | 1015.4 |
| 20260902070337 | 75 | 240 | 0.0 | 0.0 | 0.00 | 0.01 | 0.00 | 92 | 1015.4 |
| 20260902070226 | 75 | 240 | 0.0 | 0.0 | 0.00 | 0.01 | 0.00 | 92 | 1015.4 |
| 20260902070152 | 75 | 240 | 0.0 | 0.0 | 0.00 | 0.01 | 0.00 | 92 | 1015.4 |
| 20260902070023 | 75 | 240 | 0.0 | 0.0 | 0.00 | 0.01 | 0.00 | 92 | 1015.3 |
| 20260902065935 | 75 | 240 | 0.0 | 0.0 | 0.00 | 0.01 | 0.00 | 92 | 1015.3 |
| 20260902065827 | 76 | 240 | 0.0 | 0.0 | 0.00 | 0.01 | 0.00 | 92 | 1015.3 |
| 20260902065738 | 76 | 240 | 0.0 | 0.0 | 0.00 | 0.01 | 0.00 | 92 | 1015.3 |
| 20260902065630 | 76 | 240 | 0.0 | 0.0 | 0.00 | 0.01 | 0.00 | 92 | 1015.4 |
| 20260902065523 | 76 | 240 | 0.0 | 0.0 | 0.00 | 0.01 | 0.00 | 92 | 1015.3 |
| 20260902065435 | 76 | 240 | 0.0 | 0.0 | 0.00 | 0.01 | 0.00 | 92 | 1015.3 |
| 20260902065330 | 76 | 240 | 0.0 | 0.0 | 0.00 | 0.01 | 0.00 | 92 | 1015.3 |
| 20260902065222 | 76 | 240 | 0.0 | 0.0 | 0.00 | 0.01 | 0.00 | 92 | 1015.3 |
| 20260902065134 | 76 | 240 | 0.0 | 0.0 | 0.00 | 0.01 | 0.00 | 92 | 1015.3 |
| 20260902065026 | 76 | 240 | 0.0 | 0.0 | 0.00 | 0.01 | 0.00 | 92 | 1015.3 |
| 20260902064938 | 76 | 240 | 0.0 | 0.0 | 0.00 | 0.01 | 0.00 | 92 | 1015.2 |
| 20260902064830 | 76 | 240 | 0.0 | 0.0 | 0.00 | 0.01 | 0.00 | 92 | 1015.3 |
| 20260902064722 | 76 | 240 | 0.0 | 0.0 | 0.00 | 0.01 | 0.00 | 92 | 1015.3 |
| 20260902064643 | 76 | 240 | 0.0 | 0.0 | 0.00 | 0.01 | 0.00 | 91 | 1015.1 |
| 20260902064536 | 76 | 240 | 0.0 | 0.0 | 0.00 | 0.01 | 0.00 | 91 | 1015.2 |
| 20260902064431 | 76 | 240 | 0.0 | 0.0 | 0.00 | 0.01 | 0.00 | 91 | 1015.1 |
| 20260902064343 | 76 | 240 | 0.0 | 0.0 | 0.00 | 0.01 | 0.00 | 91 | 1015.2 |
| 20260902064256 | 76 | 240 | 0.0 | 0.0 | 0.00 | 0.01 | 0.00 | 91 | 1015.1 |
| 20260902064126 | 76 | 240 | 0.0 | 0.0 | 0.00 | 0.01 | 0.00 | 91 | 1015.2 |
| 20260902064039 | 76 | 240 | 0.0 | 0.0 | 0.00 | 0.01 | 0.00 | 91 | 1015.2 |
| 20260902063930 | 76 | 240 | 0.0 | 0.0 | 0.00 | 0.01 | 0.00 | 90 | 1015.2 |
| 20260902063821 | 76 | 240 | 0.0 | 0.0 | 0.00 | 0.01 | 0.00 | 90 | 1015.2 |
| 20260902063732 | 76 | 240 | 0.0 | 0.0 | 0.00 | 0.01 | 0.00 | 90 | 1015.3 |
| 20260902063644 | 76 | 240 | 0.0 | 0.0 | 0.00 | 0.01 | 0.00 | 90 | 1015.2 |
| 20260902063556 | 77 | 240 | 0.0 | 0.0 | 0.00 | 0.01 | 0.00 | 90 | 1015.2 |
| 20260902063431 | 77 | 240 | 0.0 | 0.0 | 0.00 | 0.01 | 0.00 | 90 | 1015.1 |
| 20260902063342 | 77 | 240 | 0.0 | 0.0 | 0.00 | 0.01 | 0.00 | 90 | 1015.1 |
| 20260902063254 | 77 | 240 | 0.0 | 0.0 | 0.00 | 0.01 | 0.00 | 90 | 1015.1 |
| 20260902063214 | 77 | 240 | 0.0 | 0.0 | 0.00 | 0.01 | 0.00 | 90 | 1015.2 |
| 20260902063045 | 77 | 240 | 0.0 | 0.0 | 0.00 | 0.01 | 0.00 | 90 | 1015.1 |
| 20260902062936 | 77 | 240 | 0.0 | 0.0 | 0.00 | 0.01 | 0.00 | 89 | 1015.2 |
| 20260902062828 | 77 | 240 | 0.0 | 0.0 | 0.00 | 0.01 | 0.00 | 89 | 1015.1 |
| 20260902062740 | 77 | 240 | 0.0 | 0.0 | 0.00 | 0.01 | 0.00 | 89 | 1015.2 |
| 20260902062632 | 77 | 240 | 0.0 | 0.0 | 0.00 | 0.01 | 0.00 | 89 | 1015.1 |
| 20260902062545 | 77 | 240 | 0.0 | 0.0 | 0.00 | 0.01 | 0.00 | 89 | 1015.2 |
| 20260902062440 | 77 | 240 | 0.0 | 0.0 | 0.00 | 0.01 | 0.00 | 89 | 1015.2 |
| 20260902062331 | 78 | 240 | 0.0 | 0.0 | 0.00 | 0.01 | 0.00 | 89 | 1015.2 |
| 20260902062154 | 78 | 240 | 0.0 | 0.0 | 0.00 | 0.01 | 0.00 | 89 | 1015.2 |
| 20260902062107 | 78 | 240 | 0.0 | 0.0 | 0.00 | 0.01 | 0.00 | 89 | 1015.1 |
| 20260902062018 | 78 | 240 | 0.0 | 0.0 | 0.00 | 0.01 | 0.00 | 89 | 1015.2 |
| 20260902061909 | 78 | 240 | 0.0 | 0.0 | 0.00 | 0.01 | 0.00 | 89 | 1015.1 |
| 20260902061821 | 78 | 240 | 0.0 | 0.0 | 0.00 | 0.01 | 0.00 | 89 | 1015.1 |
| 20260902061700 | 78 | 240 | 0.0 | 0.0 | 0.00 | 0.01 | 0.00 | 89 | 1015.1 |
| 20260902061531 | 78 | 240 | 0.0 | 0.0 | 0.00 | 0.01 | 0.00 | 89 | 1015.1 |
| 20260902061425 | 78 | 240 | 0.0 | 0.0 | 0.00 | 0.01 | 0.00 | 89 | 1015.1 |
| 20260902061338 | 78 | 240 | 0.0 | 0.0 | 0.00 | 0.01 | 0.00 | 89 | 1015.1 |
| 20260902061250 | 78 | 240 | 0.0 | 0.0 | 0.00 | 0.01 | 0.00 | 89 | 1015.1 |
| 20260902061202 | 78 | 240 | 0.0 | 0.0 | 0.00 | 0.01 | 0.00 | 89 | 1015.1 |
| 20260902061053 | 78 | 240 | 0.0 | 0.0 | 0.00 | 0.01 | 0.00 | 89 | 1015.1 |
| 20260902061005 | 78 | 240 | 0.0 | 0.0 | 0.00 | 0.01 | 0.00 | 89 | 1015.2 |
| 20260902060855 | 78 | 240 | 0.0 | 0.0 | 0.00 | 0.01 | 0.00 | 89 | 1015.1 |
| 20260902060725 | 78 | 240 | 0.0 | 0.0 | 0.00 | 0.01 | 0.00 | 89 | 1015.2 |
| 20260902060638 | 79 | 240 | 0.0 | 1.0 | 0.00 | 0.01 | 0.00 | 89 | 1015.1 |
| 20260902060551 | 79 | 240 | 0.0 | 2.0 | 0.00 | 0.01 | 0.00 | 89 | 1015.1 |
| 20260902060422 | 79 | 240 | 0.0 | 2.0 | 0.00 | 0.01 | 0.00 | 89 | 1015.2 |
| 20260902060338 | 79 | 240 | 0.0 | 2.0 | 0.00 | 0.01 | 0.00 | 89 | 1015.2 |
| 20260902060230 | 79 | 240 | 0.0 | 2.0 | 0.00 | 0.01 | 0.00 | 89 | 1015.2 |
| 20260902060152 | 79 | 240 | 0.0 | 2.0 | 0.00 | 0.01 | 0.00 | 89 | 1015.2 |
| 20260902060044 | 79 | 240 | 0.0 | 2.0 | 0.00 | 0.01 | 0.00 | 89 | 1015.2 |
| 20260902055933 | 79 | 240 | 0.0 | 2.0 | 0.00 | 0.01 | 0.00 | 89 | 1015.1 |
| 20260902055826 | 79 | 240 | 1.0 | 2.0 | 0.00 | 0.01 | 0.00 | 88 | 1015.2 |
| 20260902055738 | 79 | 240 | 1.0 | 2.0 | 0.00 | 0.01 | 0.00 | 88 | 1015.2 |
| 20260902055631 | 79 | 240 | 1.0 | 2.0 | 0.00 | 0.01 | 0.00 | 89 | 1015.1 |
| 20260902055544 | 79 | 240 | 1.0 | 2.0 | 0.00 | 0.01 | 0.00 | 89 | 1015.1 |
| 20260902055457 | 79 | 240 | 2.0 | 3.0 | 0.00 | 0.01 | 0.00 | 89 | 1015.1 |
| 20260902055330 | 79 | 240 | 2.0 | 3.0 | 0.00 | 0.01 | 0.00 | 89 | 1015.1 |
| 20260902055223 | 79 | 240 | 1.0 | 3.0 | 0.00 | 0.01 | 0.00 | 89 | 1015.1 |
| 20260902055135 | 79 | 240 | 2.0 | 3.0 | 0.00 | 0.01 | 0.00 | 89 | 1015.1 |
| 20260902055027 | 79 | 240 | 1.0 | 3.0 | 0.00 | 0.01 | 0.00 | 89 | 1015.1 |
| 20260902054939 | 79 | 240 | 2.0 | 3.0 | 0.00 | 0.01 | 0.00 | 89 | 1015.1 |
| 20260902054831 | 79 | 240 | 2.0 | 3.0 | 0.00 | 0.01 | 0.00 | 89 | 1015.1 |
| 20260902054723 | 79 | 240 | 2.0 | 3.0 | 0.00 | 0.01 | 0.00 | 89 | 1015.1 |
| 20260902054646 | 79 | 240 | 1.0 | 3.0 | 0.00 | 0.01 | 0.00 | 89 | 1015.1 |
| 20260902054522 | 79 | 240 | 1.0 | 3.0 | 0.00 | 0.01 | 0.00 | 89 | 1015.2 |
| 20260902054435 | 79 | 240 | 1.0 | 3.0 | 0.00 | 0.01 | 0.00 | 89 | 1015.1 |
| 20260902054327 | 79 | 240 | 2.0 | 3.0 | 0.00 | 0.01 | 0.00 | 89 | 1015.0 |
| 20260902054238 | 79 | 240 | 1.0 | 3.0 | 0.00 | 0.01 | 0.00 | 89 | 1015.1 |
| 20260902054131 | 79 | 240 | 1.0 | 3.0 | 0.00 | 0.01 | 0.00 | 89 | 1015.0 |
| 20260902054023 | 79 | 240 | 2.0 | 3.0 | 0.00 | 0.01 | 0.00 | 89 | 1015.1 |
| 20260902053935 | 79 | 240 | 1.0 | 3.0 | 0.00 | 0.01 | 0.00 | 89 | 1015.0 |
| 20260902053828 | 79 | 240 | 2.0 | 3.0 | 0.00 | 0.01 | 0.00 | 89 | 1015.1 |
| 20260902053744 | 79 | 240 | 2.0 | 3.0 | 0.00 | 0.01 | 0.00 | 89 | 1015.1 |
| 20260902053656 | 79 | 240 | 2.0 | 3.0 | 0.00 | 0.01 | 0.00 | 89 | 1015.1 |
| 20260902053607 | 79 | 240 | 2.0 | 3.0 | 0.00 | 0.01 | 0.00 | 89 | 1015.1 |
| 20260902053437 | 79 | 240 | 2.0 | 3.0 | 0.00 | 0.01 | 0.00 | 89 | 1015.1 |
| 20260902053329 | 79 | 240 | 2.0 | 3.0 | 0.00 | 0.01 | 0.00 | 89 | 1015.0 |
| 20260902053239 | 79 | 240 | 2.0 | 3.0 | 0.00 | 0.01 | 0.00 | 89 | 1015.0 |
| 20260902053203 | 79 | 240 | 2.0 | 3.0 | 0.00 | 0.01 | 0.00 | 89 | 1015.0 |
| 20260902053053 | 79 | 240 | 2.0 | 3.0 | 0.00 | 0.01 | 0.00 | 89 | 1015.1 |
| 20260902052926 | 79 | 240 | 2.0 | 3.0 | 0.00 | 0.01 | 0.00 | 89 | 1015.0 |
| 20260902052838 | 80 | 240 | 2.0 | 3.0 | 0.00 | 0.01 | 0.00 | 89 | 1015.1 |
| 20260902052733 | 80 | 240 | 2.0 | 3.0 | 0.00 | 0.01 | 0.00 | 89 | 1015.1 |
| 20260902052626 | 80 | 240 | 2.0 | 3.0 | 0.00 | 0.01 | 0.00 | 89 | 1015.1 |
| 20260902052538 | 80 | 240 | 2.0 | 3.0 | 0.00 | 0.01 | 0.00 | 89 | 1015.1 |
| 20260902052429 | 80 | 240 | 2.0 | 3.0 | 0.00 | 0.01 | 0.00 | 89 | 1015.1 |
| 20260902052340 | 80 | 240 | 2.0 | 3.0 | 0.00 | 0.01 | 0.00 | 89 | 1015.1 |
| 20260902052231 | 80 | 240 | 2.0 | 3.0 | 0.00 | 0.01 | 0.00 | 89 | 1015.1 |
| 20260902052143 | 80 | 240 | 2.0 | 3.0 | 0.00 | 0.01 | 0.00 | 89 | 1015.1 |
| 20260902052054 | 80 | 240 | 2.0 | 3.0 | 0.00 | 0.01 | 0.00 | 89 | 1015.1 |
| 20260902051924 | 80 | 240 | 2.0 | 3.0 | 0.00 | 0.01 | 0.00 | 89 | 1015.1 |
| 20260902051836 | 80 | 240 | 2.0 | 3.0 | 0.00 | 0.01 | 0.00 | 89 | 1015.1 |
| 20260902051733 | 80 | 240 | 2.0 | 4.0 | 0.00 | 0.01 | 0.00 | 89 | 1015.1 |
| 20260902051655 | 80 | 240 | 2.0 | 4.0 | 0.00 | 0.01 | 0.00 | 89 | 1015.1 |
| 20260902051527 | 80 | 240 | 2.0 | 4.0 | 0.00 | 0.01 | 0.00 | 89 | 1015.1 |
| 20260902051438 | 80 | 240 | 2.0 | 4.0 | 0.00 | 0.01 | 0.00 | 89 | 1015.1 |
| 20260902051330 | 80 | 240 | 2.0 | 4.0 | 0.00 | 0.01 | 0.00 | 89 | 1015.1 |
| 20260902051223 | 80 | 240 | 2.0 | 4.0 | 0.00 | 0.01 | 0.00 | 89 | 1015.1 |
| 20260902051133 | 80 | 240 | 2.0 | 4.0 | 0.00 | 0.01 | 0.00 | 89 | 1015.1 |
| 20260902051025 | 80 | 240 | 2.0 | 4.0 | 0.00 | 0.01 | 0.00 | 89 | 1015.1 |
| 20260902050941 | 80 | 240 | 2.0 | 4.0 | 0.00 | 0.01 | 0.00 | 89 | 1015.2 |
| 20260902050853 | 80 | 240 | 1.0 | 3.0 | 0.00 | 0.01 | 0.00 | 89 | 1015.2 |
| 20260902050745 | 80 | 240 | 1.0 | 3.0 | 0.00 | 0.01 | 0.00 | 89 | 1015.2 |
| 20260902050657 | 80 | 240 | 1.0 | 3.0 | 0.00 | 0.01 | 0.00 | 89 | 1015.1 |
| 20260902050528 | 80 | 240 | 1.0 | 4.0 | 0.00 | 0.01 | 0.00 | 89 | 1015.1 |
| 20260902050439 | 80 | 240 | 1.0 | 4.0 | 0.00 | 0.01 | 0.00 | 89 | 1015.2 |
| 20260902050333 | 80 | 240 | 1.0 | 4.0 | 0.00 | 0.01 | 0.00 | 89 | 1015.2 |
| 20260902050222 | 80 | 240 | 1.0 | 4.0 | 0.00 | 0.01 | 0.00 | 89 | 1015.2 |
| 20260902050144 | 80 | 240 | 1.0 | 4.0 | 0.00 | 0.01 | 0.00 | 89 | 1015.2 |
| 20260902050036 | 80 | 240 | 1.0 | 4.0 | 0.00 | 0.01 | 0.00 | 89 | 1015.2 |
| 20260902045932 | 80 | 240 | 2.0 | 4.0 | 0.00 | 0.01 | 0.00 | 89 | 1015.2 |
| 20260902045823 | 80 | 240 | 2.0 | 4.0 | 0.00 | 0.01 | 0.00 | 89 | 1015.2 |
| 20260902045735 | 80 | 240 | 2.0 | 4.0 | 0.00 | 0.01 | 0.00 | 89 | 1015.2 |
| 20260902045627 | 80 | 240 | 1.0 | 3.0 | 0.00 | 0.01 | 0.00 | 89 | 1015.2 |
| 20260902045539 | 80 | 240 | 2.0 | 3.0 | 0.00 | 0.01 | 0.00 | 89 | 1015.2 |
| 20260902045431 | 80 | 240 | 2.0 | 3.0 | 0.00 | 0.01 | 0.00 | 89 | 1015.3 |
| 20260902045322 | 80 | 240 | 2.0 | 3.0 | 0.00 | 0.01 | 0.00 | 89 | 1015.2 |
| 20260902045235 | 80 | 240 | 1.0 | 3.0 | 0.00 | 0.01 | 0.00 | 89 | 1015.3 |
| 20260902045130 | 80 | 240 | 1.0 | 3.0 | 0.00 | 0.01 | 0.00 | 89 | 1015.3 |
| 20260902045022 | 80 | 240 | 2.0 | 3.0 | 0.00 | 0.01 | 0.00 | 89 | 1015.2 |
| 20260902044934 | 80 | 240 | 2.0 | 3.0 | 0.00 | 0.01 | 0.00 | 89 | 1015.2 |
| 20260902044826 | 80 | 240 | 1.0 | 3.0 | 0.00 | 0.01 | 0.00 | 89 | 1015.2 |
| 20260902044737 | 80 | 240 | 1.0 | 3.0 | 0.00 | 0.01 | 0.00 | 89 | 1015.2 |
| 20260902044700 | 80 | 240 | 1.0 | 3.0 | 0.00 | 0.01 | 0.00 | 89 | 1015.2 |
| 20260902044551 | 80 | 240 | 1.0 | 3.0 | 0.00 | 0.01 | 0.00 | 88 | 1015.3 |
| 20260902044422 | 81 | 240 | 1.0 | 3.0 | 0.00 | 0.01 | 0.00 | 89 | 1015.2 |
| 20260902044334 | 81 | 240 | 1.0 | 3.0 | 0.00 | 0.01 | 0.00 | 89 | 1015.3 |
| 20260902044250 | 81 | 240 | 1.0 | 3.0 | 0.00 | 0.01 | 0.00 | 88 | 1015.3 |
| 20260902044202 | 81 | 240 | 1.0 | 3.0 | 0.00 | 0.01 | 0.00 | 89 | 1015.3 |
| 20260902044032 | 81 | 240 | 1.0 | 4.0 | 0.00 | 0.01 | 0.00 | 88 | 1015.3 |
| 20260902043944 | 81 | 240 | 1.0 | 4.0 | 0.00 | 0.01 | 0.00 | 88 | 1015.4 |
| 20260902043857 | 81 | 240 | 1.0 | 4.0 | 0.00 | 0.01 | 0.00 | 88 | 1015.3 |
| 20260902043727 | 81 | 240 | 2.0 | 4.0 | 0.00 | 0.01 | 0.00 | 88 | 1015.3 |
| 20260902043639 | 81 | 240 | 2.0 | 4.0 | 0.00 | 0.01 | 0.00 | 88 | 1015.3 |
| 20260902043531 | 81 | 240 | 2.0 | 4.0 | 0.00 | 0.01 | 0.00 | 88 | 1015.3 |
| 20260902043423 | 81 | 240 | 2.0 | 4.0 | 0.00 | 0.01 | 0.00 | 88 | 1015.3 |
| 20260902043339 | 81 | 240 | 2.0 | 4.0 | 0.00 | 0.01 | 0.00 | 88 | 1015.3 |
| 20260902043229 | 81 | 240 | 2.0 | 4.0 | 0.00 | 0.01 | 0.00 | 88 | 1015.3 |
| 20260902043150 | 81 | 240 | 2.0 | 4.0 | 0.00 | 0.01 | 0.00 | 88 | 1015.3 |
| 20260902043040 | 81 | 240 | 2.0 | 4.0 | 0.00 | 0.01 | 0.00 | 88 | 1015.3 |
| 20260902042933 | 81 | 240 | 2.0 | 4.0 | 0.00 | 0.01 | 0.00 | 88 | 1015.3 |
| 20260902042823 | 81 | 240 | 1.0 | 4.0 | 0.00 | 0.01 | 0.00 | 88 | 1015.3 |
| 20260902042734 | 81 | 240 | 2.0 | 4.0 | 0.00 | 0.01 | 0.00 | 88 | 1015.3 |
| 20260902042626 | 81 | 240 | 1.0 | 5.0 | 0.00 | 0.01 | 0.00 | 88 | 1015.3 |
| 20260902042538 | 81 | 230 | 1.0 | 5.0 | 0.00 | 0.01 | 0.00 | 88 | 1015.4 |
| 20260902042449 | 81 | 265 | 1.0 | 5.0 | 0.00 | 0.01 | 0.00 | 88 | 1015.3 |
| 20260902042325 | 81 | 265 | 1.0 | 5.0 | 0.00 | 0.01 | 0.00 | 88 | 1015.2 |
| 20260902042236 | 81 | 229 | 1.0 | 5.0 | 0.00 | 0.01 | 0.00 | 88 | 1015.3 |
| 20260902042128 | 81 | 229 | 1.0 | 5.0 | 0.00 | 0.01 | 0.00 | 88 | 1015.3 |
| 20260902042040 | 81 | 229 | 1.0 | 5.0 | 0.00 | 0.01 | 0.00 | 88 | 1015.2 |
| 20260902041932 | 81 | 229 | 2.0 | 5.0 | 0.00 | 0.01 | 0.00 | 88 | 1015.4 |
| 20260902041825 | 81 | 229 | 2.0 | 5.0 | 0.00 | 0.01 | 0.00 | 88 | 1015.2 |
| 20260902041738 | 81 | 229 | 2.0 | 5.0 | 0.00 | 0.01 | 0.00 | 88 | 1015.2 |
| 20260902041659 | 81 | 253 | 2.0 | 4.0 | 0.00 | 0.01 | 0.00 | 88 | 1015.2 |
| 20260902041535 | 81 | 247 | 2.0 | 4.0 | 0.00 | 0.01 | 0.00 | 88 | 1015.1 |
| 20260902041446 | 81 | 247 | 2.0 | 5.0 | 0.00 | 0.01 | 0.00 | 88 | 1015.2 |
| 20260902041358 | 81 | 247 | 2.0 | 5.0 | 0.00 | 0.01 | 0.00 | 88 | 1015.2 |
| 20260902041229 | 81 | 247 | 2.0 | 5.0 | 0.00 | 0.01 | 0.00 | 88 | 1015.1 |
| 20260902041140 | 81 | 238 | 2.0 | 5.0 | 0.00 | 0.01 | 0.00 | 88 | 1015.2 |
| 20260902041032 | 81 | 238 | 2.0 | 5.0 | 0.00 | 0.01 | 0.00 | 88 | 1015.1 |
| 20260902040924 | 81 | 238 | 2.0 | 5.0 | 0.00 | 0.01 | 0.00 | 88 | 1015.1 |
| 20260902040835 | 81 | 238 | 2.0 | 5.0 | 0.00 | 0.01 | 0.00 | 88 | 1015.1 |
| 20260902040726 | 81 | 238 | 3.0 | 5.0 | 0.00 | 0.01 | 0.00 | 88 | 1015.1 |
| 20260902040643 | 81 | 231 | 3.0 | 5.0 | 0.00 | 0.01 | 0.00 | 88 | 1015.0 |
| 20260902040555 | 81 | 231 | 3.0 | 5.0 | 0.00 | 0.01 | 0.00 | 88 | 1015.0 |
| 20260902040426 | 81 | 248 | 2.0 | 4.0 | 0.00 | 0.01 | 0.00 | 88 | 1015.0 |
| 20260902040338 | 81 | 248 | 2.0 | 5.0 | 0.00 | 0.01 | 0.00 | 88 | 1015.0 |
| 20260902040248 | 81 | 248 | 3.0 | 5.0 | 0.00 | 0.01 | 0.01 | 88 | 1015.0 |
| 20260902040207 | 81 | 221 | 3.0 | 5.0 | 0.00 | 0.01 | 0.01 | 88 | 1015.0 |
| 20260902040057 | 81 | 249 | 3.0 | 5.0 | 0.00 | 0.01 | 0.01 | 88 | 1015.1 |
| 20260902035940 | 81 | 240 | 3.0 | 5.0 | 0.00 | 0.01 | 0.01 | 88 | 1015.0 |
| 20260902035832 | 81 | 219 | 2.0 | 8.0 | 0.00 | 0.01 | 0.01 | 88 | 1015.1 |
| 20260902035724 | 81 | 251 | 2.0 | 8.0 | 0.00 | 0.01 | 0.01 | 88 | 1015.0 |
| 20260902035641 | 81 | 251 | 2.0 | 8.0 | 0.00 | 0.01 | 0.01 | 88 | 1015.1 |
| 20260902035532 | 81 | 220 | 3.0 | 8.0 | 0.00 | 0.01 | 0.01 | 88 | 1015.0 |
| 20260902035425 | 81 | 240 | 3.0 | 8.0 | 0.00 | 0.01 | 0.01 | 88 | 1015.1 |
| 20260902035336 | 81 | 249 | 3.0 | 8.0 | 0.00 | 0.01 | 0.01 | 88 | 1015.0 |
| 20260902035227 | 81 | 218 | 3.0 | 8.0 | 0.00 | 0.01 | 0.01 | 88 | 1015.0 |
| 20260902035137 | 81 | 237 | 3.0 | 8.0 | 0.00 | 0.01 | 0.01 | 89 | 1015.1 |
| 20260902035029 | 81 | 239 | 2.0 | 6.0 | 0.00 | 0.01 | 0.01 | 89 | 1015.1 |
| 20260902034941 | 81 | 207 | 2.0 | 4.0 | 0.00 | 0.01 | 0.01 | 89 | 1015.1 |
| 20260902034833 | 81 | 250 | 2.0 | 4.0 | 0.00 | 0.01 | 0.01 | 89 | 1015.0 |
| 20260902034730 | 81 | 232 | 2.0 | 4.0 | 0.00 | 0.01 | 0.01 | 89 | 1014.9 |
| 20260902034653 | 81 | 228 | 2.0 | 4.0 | 0.00 | 0.01 | 0.01 | 89 | 1014.9 |
| 20260902034543 | 81 | 173 | 2.0 | 4.0 | 0.00 | 0.01 | 0.01 | 89 | 1015.0 |
| 20260902034434 | 81 | 230 | 2.0 | 4.0 | 0.00 | 0.01 | 0.01 | 89 | 1015.1 |
| 20260902034324 | 81 | 242 | 2.0 | 4.0 | 0.00 | 0.01 | 0.01 | 89 | 1015.0 |
| 20260902034237 | 81 | 261 | 2.0 | 4.0 | 0.00 | 0.01 | 0.01 | 89 | 1015.0 |
| 20260902034149 | 81 | 219 | 2.0 | 4.0 | 0.00 | 0.01 | 0.01 | 89 | 1015.0 |
| 20260902034040 | 81 | 219 | 2.0 | 4.0 | 0.00 | 0.01 | 0.01 | 89 | 1015.0 |
| 20260902033953 | 81 | 219 | 2.0 | 4.0 | 0.00 | 0.01 | 0.01 | 89 | 1015.0 |
| 20260902033824 | 81 | 219 | 2.0 | 4.0 | 0.00 | 0.01 | 0.01 | 89 | 1015.0 |
| 20260902033740 | 81 | 219 | 2.0 | 4.0 | 0.00 | 0.01 | 0.01 | 89 | 1015.1 |
| 20260902033630 | 81 | 238 | 2.0 | 4.0 | 0.00 | 0.01 | 0.01 | 89 | 1015.0 |
| 20260902033522 | 81 | 238 | 2.0 | 4.0 | 0.00 | 0.01 | 0.01 | 89 | 1015.1 |
| 20260902033434 | 81 | 238 | 2.0 | 4.0 | 0.00 | 0.01 | 0.01 | 89 | 1015.1 |
| 20260902033326 | 81 | 238 | 2.0 | 4.0 | 0.00 | 0.01 | 0.01 | 89 | 1015.1 |
| 20260902033238 | 81 | 238 | 2.0 | 4.0 | 0.00 | 0.01 | 0.01 | 89 | 1015.1 |
| 20260902033200 | 81 | 238 | 2.0 | 4.0 | 0.00 | 0.01 | 0.01 | 89 | 1015.1 |
| 20260902033031 | 81 | 238 | 2.0 | 3.0 | 0.00 | 0.01 | 0.01 | 89 | 1015.1 |
| 20260902032922 | 82 | 238 | 2.0 | 4.0 | 0.00 | 0.01 | 0.01 | 89 | 1015.1 |
| 20260902032837 | 82 | 238 | 2.0 | 4.0 | 0.00 | 0.01 | 0.01 | 89 | 1015.0 |
| 20260902032750 | 82 | 238 | 2.0 | 4.0 | 0.00 | 0.01 | 0.01 | 89 | 1015.1 |
| 20260902032641 | 82 | 238 | 2.0 | 4.0 | 0.00 | 0.01 | 0.01 | 89 | 1015.0 |
| 20260902032552 | 82 | 238 | 2.0 | 4.0 | 0.00 | 0.01 | 0.01 | 89 | 1015.0 |
| 20260902032443 | 82 | 238 | 1.0 | 4.0 | 0.00 | 0.01 | 0.01 | 89 | 1015.1 |
| 20260902032334 | 82 | 238 | 2.0 | 4.0 | 0.00 | 0.01 | 0.01 | 89 | 1015.1 |
| 20260902032226 | 82 | 238 | 2.0 | 4.0 | 0.00 | 0.01 | 0.01 | 89 | 1015.1 |
| 20260902032138 | 82 | 238 | 2.0 | 4.0 | 0.00 | 0.01 | 0.01 | 89 | 1015.1 |
| 20260902032050 | 82 | 240 | 2.0 | 4.0 | 0.00 | 0.01 | 0.01 | 89 | 1015.1 |
| 20260902031941 | 82 | 225 | 2.0 | 4.0 | 0.00 | 0.01 | 0.01 | 89 | 1015.1 |
| 20260902031854 | 82 | 225 | 2.0 | 4.0 | 0.00 | 0.01 | 0.01 | 89 | 1015.1 |
| 20260902031728 | 82 | 225 | 2.0 | 4.0 | 0.00 | 0.01 | 0.01 | 89 | 1015.1 |
| 20260902031649 | 82 | 236 | 2.0 | 4.0 | 0.00 | 0.01 | 0.01 | 89 | 1015.2 |
| 20260902031541 | 82 | 236 | 2.0 | 4.0 | 0.00 | 0.01 | 0.01 | 89 | 1015.1 |
| 20260902031433 | 82 | 236 | 2.0 | 4.0 | 0.00 | 0.01 | 0.01 | 89 | 1015.1 |
| 20260902031325 | 82 | 236 | 2.0 | 4.0 | 0.00 | 0.01 | 0.01 | 89 | 1015.1 |
| 20260902031237 | 82 | 236 | 2.0 | 4.0 | 0.00 | 0.01 | 0.01 | 89 | 1015.1 |
| 20260902031147 | 82 | 236 | 2.0 | 4.0 | 0.00 | 0.01 | 0.01 | 89 | 1015.1 |
| 20260902031100 | 82 | 236 | 2.0 | 4.0 | 0.00 | 0.01 | 0.01 | 89 | 1015.1 |
| 20260902030931 | 82 | 236 | 2.0 | 4.0 | 0.00 | 0.01 | 0.01 | 89 | 1015.1 |
| 20260902030843 | 82 | 236 | 2.0 | 4.0 | 0.00 | 0.01 | 0.01 | 89 | 1015.1 |
| 20260902030737 | 82 | 236 | 2.0 | 4.0 | 0.00 | 0.01 | 0.01 | 89 | 1015.1 |
| 20260902030649 | 82 | 236 | 2.0 | 4.0 | 0.00 | 0.01 | 0.01 | 89 | 1015.0 |
| 20260902030600 | 82 | 236 | 2.0 | 4.0 | 0.00 | 0.01 | 0.01 | 89 | 1015.1 |
| 20260902030432 | 82 | 236 | 2.0 | 4.0 | 0.00 | 0.01 | 0.01 | 89 | 1015.1 |
| 20260902030324 | 82 | 236 | 2.0 | 4.0 | 0.00 | 0.01 | 0.01 | 89 | 1015.0 |
| 20260902030235 | 82 | 236 | 2.0 | 4.0 | 0.00 | 0.01 | 0.01 | 89 | 1015.1 |
| 20260902030157 | 82 | 236 | 2.0 | 5.0 | 0.00 | 0.01 | 0.01 | 89 | 1015.1 |
| 20260902030028 | 82 | 236 | 3.0 | 5.0 | 0.00 | 0.01 | 0.01 | 89 | 1015.0 |
| 20260902025940 | 82 | 236 | 3.0 | 6.0 | 0.00 | 0.01 | 0.01 | 89 | 1015.1 |
| 20260902025837 | 82 | 236 | 2.0 | 6.0 | 0.00 | 0.01 | 0.01 | 89 | 1015.0 |
| 20260902025749 | 82 | 221 | 2.0 | 6.0 | 0.00 | 0.01 | 0.01 | 89 | 1015.0 |
| 20260902025702 | 82 | 238 | 3.0 | 6.0 | 0.00 | 0.01 | 0.01 | 89 | 1015.0 |
| 20260902025532 | 82 | 243 | 3.0 | 6.0 | 0.00 | 0.01 | 0.01 | 89 | 1015.0 |
| 20260902025425 | 82 | 217 | 3.0 | 6.0 | 0.00 | 0.01 | 0.01 | 89 | 1015.1 |
| 20260902025336 | 82 | 210 | 2.0 | 6.0 | 0.00 | 0.01 | 0.01 | 89 | 1015.0 |
| 20260902025248 | 82 | 198 | 3.0 | 6.0 | 0.00 | 0.01 | 0.01 | 89 | 1015.1 |
| 20260902025200 | 82 | 229 | 3.0 | 6.0 | 0.00 | 0.01 | 0.01 | 89 | 1015.1 |
| 20260902025031 | 82 | 209 | 3.0 | 6.0 | 0.00 | 0.01 | 0.01 | 89 | 1015.1 |
| 20260902024926 | 82 | 240 | 2.0 | 5.0 | 0.00 | 0.01 | 0.01 | 89 | 1015.0 |
| 20260902024837 | 82 | 240 | 2.0 | 5.0 | 0.00 | 0.01 | 0.01 | 89 | 1015.0 |
| 20260902024730 | 82 | 240 | 2.0 | 5.0 | 0.00 | 0.01 | 0.01 | 89 | 1015.1 |
| 20260902024653 | 82 | 240 | 2.0 | 5.0 | 0.00 | 0.01 | 0.01 | 89 | 1015.1 |
| 20260902024524 | 82 | 242 | 3.0 | 5.0 | 0.00 | 0.01 | 0.01 | 89 | 1015.1 |
| 20260902024436 | 82 | 243 | 3.0 | 5.0 | 0.00 | 0.01 | 0.01 | 89 | 1015.1 |
| 20260902024326 | 82 | 221 | 3.0 | 5.0 | 0.00 | 0.01 | 0.01 | 89 | 1015.1 |
| 20260902024237 | 82 | 207 | 3.0 | 5.0 | 0.00 | 0.01 | 0.01 | 89 | 1015.1 |
| 20260902024149 | 82 | 254 | 3.0 | 5.0 | 0.00 | 0.01 | 0.01 | 89 | 1015.0 |
| 20260902024102 | 82 | 248 | 2.0 | 5.0 | 0.00 | 0.01 | 0.01 | 89 | 1015.1 |
| 20260902023958 | 82 | 194 | 2.0 | 4.0 | 0.00 | 0.01 | 0.01 | 89 | 1015.1 |
| 20260902023849 | 82 | 224 | 2.0 | 4.0 | 0.00 | 0.01 | 0.01 | 89 | 1015.0 |
| 20260902023739 | 82 | 252 | 2.0 | 5.0 | 0.00 | 0.01 | 0.01 | 89 | 1015.0 |
| 20260902023651 | 82 | 250 | 2.0 | 5.0 | 0.00 | 0.01 | 0.01 | 89 | 1015.0 |
| 20260902023543 | 82 | 250 | 1.0 | 5.0 | 0.00 | 0.01 | 0.01 | 89 | 1015.0 |
| 20260902023435 | 82 | 238 | 2.0 | 5.0 | 0.00 | 0.01 | 0.01 | 89 | 1015.1 |
| 20260902023347 | 82 | 221 | 2.0 | 5.0 | 0.00 | 0.01 | 0.01 | 90 | 1015.1 |
| 20260902023236 | 82 | 240 | 2.0 | 5.0 | 0.00 | 0.01 | 0.01 | 90 | 1015.0 |
| 20260902023158 | 82 | 231 | 2.0 | 5.0 | 0.00 | 0.01 | 0.01 | 90 | 1015.0 |
| 20260902023029 | 82 | 216 | 2.0 | 5.0 | 0.00 | 0.01 | 0.01 | 90 | 1015.0 |
| 20260902022921 | 82 | 252 | 1.0 | 6.0 | 0.00 | 0.01 | 0.01 | 89 | 1014.9 |
| 20260902022837 | 82 | 156 | 0.0 | 2.0 | 0.00 | 0.01 | 0.01 | 90 | 1014.9 |
| 20260902022729 | 82 | 125 | 1.0 | 2.0 | 0.00 | 0.01 | 0.01 | 90 | 1014.9 |
| 20260902022622 | 82 | 125 | 1.0 | 2.0 | 0.00 | 0.01 | 0.01 | 90 | 1015.0 |
| 20260902022534 | 82 | 125 | 1.0 | 2.0 | 0.00 | 0.01 | 0.01 | 90 | 1014.9 |
| 20260902022425 | 82 | 125 | 1.0 | 2.0 | 0.00 | 0.01 | 0.01 | 90 | 1014.9 |
| 20260902022336 | 82 | 125 | 0.0 | 3.0 | 0.00 | 0.01 | 0.01 | 90 | 1014.8 |
| 20260902022248 | 82 | 125 | 0.0 | 3.0 | 0.00 | 0.01 | 0.01 | 90 | 1014.8 |
| 20260902022200 | 82 | 125 | 0.0 | 3.0 | 0.00 | 0.01 | 0.01 | 90 | 1014.8 |
| 20260902022031 | 82 | 125 | 0.0 | 3.0 | 0.00 | 0.01 | 0.01 | 90 | 1014.8 |
| 20260902021928 | 82 | 125 | 0.0 | 3.0 | 0.00 | 0.01 | 0.01 | 90 | 1014.8 |
| 20260902021839 | 82 | 125 | 0.0 | 3.0 | 0.00 | 0.01 | 0.01 | 90 | 1014.7 |
| 20260902021741 | 82 | 125 | 1.0 | 3.0 | 0.00 | 0.01 | 0.01 | 90 | 1014.8 |
| 20260902021643 | 82 | 125 | 1.0 | 3.0 | 0.00 | 0.01 | 0.01 | 90 | 1014.7 |
| 20260902021534 | 82 | 125 | 1.0 | 3.0 | 0.00 | 0.01 | 0.01 | 90 | 1014.7 |
| 20260902021427 | 82 | 125 | 0.0 | 2.0 | 0.00 | 0.01 | 0.01 | 90 | 1014.8 |
| 20260902021338 | 82 | 125 | 1.0 | 2.0 | 0.00 | 0.01 | 0.01 | 90 | 1014.8 |
| 20260902021231 | 82 | 125 | 0.0 | 2.0 | 0.00 | 0.01 | 0.01 | 90 | 1014.7 |
| 20260902021126 | 82 | 203 | 0.0 | 2.0 | 0.00 | 0.01 | 0.01 | 90 | 1014.8 |
| 20260902021038 | 82 | 203 | 0.0 | 2.0 | 0.00 | 0.01 | 0.01 | 90 | 1014.7 |
| 20260902020929 | 82 | 203 | 1.0 | 2.0 | 0.00 | 0.01 | 0.01 | 90 | 1014.7 |
| 20260902020841 | 82 | 218 | 1.0 | 2.0 | 0.00 | 0.01 | 0.01 | 90 | 1014.8 |
| 20260902020734 | 82 | 120 | 0.0 | 1.0 | 0.00 | 0.01 | 0.01 | 90 | 1014.8 |
| 20260902020626 | 82 | 89 | 0.0 | 0.0 | 0.00 | 0.01 | 0.01 | 90 | 1014.8 |
| 20260902020537 | 82 | 106 | 0.0 | 0.0 | 0.00 | 0.01 | 0.01 | 90 | 1014.8 |
| 20260902020428 | 82 | 256 | 0.0 | 0.0 | 0.00 | 0.01 | 0.01 | 90 | 1014.8 |
| 20260902020324 | 82 | 205 | 0.0 | 0.0 | 0.00 | 0.01 | 0.01 | 90 | 1014.7 |
| 20260902020235 | 82 | 175 | 0.0 | 0.0 | 0.00 | 0.01 | 0.01 | 90 | 1014.7 |
| 20260902020156 | 82 | 224 | 0.0 | 0.0 | 0.00 | 0.01 | 0.01 | 90 | 1014.7 |
| 20260902020029 | 82 | 224 | 0.0 | 0.0 | 0.00 | 0.01 | 0.01 | 90 | 1014.8 |
| 20260902015940 | 82 | 224 | 0.0 | 0.0 | 0.00 | 0.01 | 0.01 | 90 | 1014.8 |
| 20260902015832 | 82 | 224 | 0.0 | 0.0 | 0.00 | 0.01 | 0.01 | 90 | 1014.8 |
| 20260902015723 | 82 | 224 | 0.0 | 0.0 | 0.00 | 0.01 | 0.01 | 89 | 1014.8 |
| 20260902015636 | 82 | 224 | 0.0 | 0.0 | 0.00 | 0.01 | 0.01 | 89 | 1014.8 |
| 20260902015529 | 82 | 224 | 0.0 | 0.0 | 0.00 | 0.01 | 0.01 | 89 | 1014.7 |
| 20260902015426 | 82 | 224 | 0.0 | 0.0 | 0.00 | 0.01 | 0.01 | 89 | 1014.8 |
| 20260902015339 | 82 | 224 | 0.0 | 0.0 | 0.00 | 0.01 | 0.01 | 89 | 1014.8 |
| 20260902015230 | 82 | 223 | 0.0 | 0.0 | 0.00 | 0.01 | 0.01 | 89 | 1014.8 |
| 20260902015122 | 82 | 224 | 0.0 | 0.0 | 0.00 | 0.01 | 0.01 | 89 | 1014.8 |
| 20260902015034 | 82 | 224 | 0.0 | 0.0 | 0.00 | 0.01 | 0.01 | 89 | 1014.8 |
| 20260902014925 | 82 | 224 | 0.0 | 0.0 | 0.00 | 0.01 | 0.01 | 89 | 1014.7 |
| 20260902014837 | 82 | 224 | 0.0 | 0.0 | 0.00 | 0.01 | 0.01 | 89 | 1014.8 |
| 20260902014749 | 82 | 224 | 0.0 | 0.0 | 0.00 | 0.01 | 0.01 | 89 | 1014.8 |
| 20260902014652 | 82 | 224 | 0.0 | 0.0 | 0.00 | 0.01 | 0.01 | 89 | 1014.8 |
| 20260902014547 | 82 | 224 | 0.0 | 0.0 | 0.00 | 0.01 | 0.01 | 89 | 1014.8 |
| 20260902014438 | 82 | 224 | 0.0 | 0.0 | 0.00 | 0.01 | 0.01 | 89 | 1014.8 |
| 20260902014331 | 82 | 224 | 0.0 | 0.0 | 0.00 | 0.01 | 0.01 | 89 | 1014.8 |
| 20260902014224 | 82 | 224 | 0.0 | 0.0 | 0.00 | 0.01 | 0.01 | 89 | 1014.8 |
| 20260902014137 | 82 | 224 | 0.0 | 0.0 | 0.00 | 0.01 | 0.01 | 89 | 1014.8 |
| 20260902014029 | 82 | 224 | 0.0 | 0.0 | 0.00 | 0.01 | 0.01 | 89 | 1014.8 |
| 20260902013942 | 82 | 224 | 0.0 | 0.0 | 0.00 | 0.01 | 0.01 | 89 | 1014.8 |
| 20260902013834 | 82 | 224 | 0.0 | 0.0 | 0.00 | 0.01 | 0.01 | 89 | 1014.8 |
| 20260902013730 | 82 | 224 | 0.0 | 0.0 | 0.00 | 0.01 | 0.01 | 89 | 1014.8 |
| 20260902013622 | 82 | 224 | 0.0 | 0.0 | 0.00 | 0.01 | 0.01 | 89 | 1014.8 |
| 20260902013533 | 82 | 224 | 0.0 | 0.0 | 0.00 | 0.01 | 0.01 | 89 | 1014.8 |
| 20260902013424 | 82 | 224 | 0.0 | 0.0 | 0.00 | 0.01 | 0.01 | 89 | 1014.8 |
| 20260902013337 | 82 | 224 | 0.0 | 0.0 | 0.00 | 0.01 | 0.01 | 89 | 1014.7 |
| 20260902013246 | 82 | 224 | 0.0 | 0.0 | 0.00 | 0.01 | 0.01 | 89 | 1014.8 |
| 20260902013148 | 82 | 224 | 0.0 | 0.0 | 0.00 | 0.01 | 0.01 | 89 | 1014.7 |
| 20260902013039 | 82 | 224 | 0.0 | 0.0 | 0.00 | 0.01 | 0.01 | 89 | 1014.8 |
| 20260902012932 | 82 | 224 | 0.0 | 0.0 | 0.00 | 0.01 | 0.01 | 89 | 1014.8 |
| 20260902012828 | 82 | 224 | 0.0 | 0.0 | 0.00 | 0.01 | 0.01 | 89 | 1014.8 |
| 20260902012740 | 82 | 224 | 0.0 | 0.0 | 0.00 | 0.01 | 0.01 | 89 | 1014.7 |
| 20260902012631 | 82 | 224 | 0.0 | 0.0 | 0.00 | 0.01 | 0.01 | 89 | 1014.8 |
| 20260902012523 | 83 | 224 | 0.0 | 0.0 | 0.00 | 0.01 | 0.01 | 89 | 1014.8 |
| 20260902012435 | 82 | 224 | 0.0 | 0.0 | 0.00 | 0.01 | 0.01 | 89 | 1014.8 |
| 20260902012328 | 83 | 224 | 0.0 | 0.0 | 0.00 | 0.01 | 0.01 | 89 | 1014.8 |
| 20260902012239 | 83 | 224 | 0.0 | 0.0 | 0.00 | 0.01 | 0.01 | 89 | 1014.8 |
| 20260902012150 | 83 | 224 | 0.0 | 0.0 | 0.00 | 0.01 | 0.01 | 88 | 1014.8 |
| 20260902012041 | 83 | 224 | 0.0 | 0.0 | 0.00 | 0.01 | 0.01 | 88 | 1014.8 |
| 20260902011936 | 83 | 224 | 0.0 | 0.0 | 0.00 | 0.01 | 0.01 | 88 | 1014.8 |
| 20260902011828 | 83 | 224 | 0.0 | 0.0 | 0.00 | 0.01 | 0.01 | 88 | 1014.8 |
| 20260902011742 | 83 | 224 | 0.0 | 0.0 | 0.00 | 0.01 | 0.01 | 88 | 1014.8 |
| 20260902011704 | 83 | 224 | 0.0 | 0.0 | 0.00 | 0.01 | 0.01 | 88 | 1014.8 |
| 20260902011556 | 83 | 224 | 0.0 | 0.0 | 0.00 | 0.01 | 0.01 | 88 | 1014.8 |
| 20260902011426 | 83 | 224 | 0.0 | 0.0 | 0.00 | 0.01 | 0.01 | 88 | 1014.8 |
| 20260902011339 | 83 | 224 | 0.0 | 0.0 | 0.00 | 0.01 | 0.01 | 88 | 1014.8 |
| 20260902011231 | 83 | 224 | 0.0 | 0.0 | 0.00 | 0.01 | 0.01 | 88 | 1014.7 |
| 20260902011143 | 83 | 224 | 0.0 | 0.0 | 0.00 | 0.01 | 0.01 | 88 | 1014.7 |
| 20260902011055 | 83 | 224 | 0.0 | 0.0 | 0.00 | 0.01 | 0.01 | 88 | 1014.8 |
| 20260902010929 | 83 | 224 | 0.0 | 0.0 | 0.00 | 0.01 | 0.01 | 88 | 1014.7 |
| 20260902010821 | 83 | 224 | 0.0 | 0.0 | 0.00 | 0.01 | 0.01 | 88 | 1014.7 |
| 20260902010734 | 83 | 224 | 0.0 | 0.0 | 0.00 | 0.01 | 0.01 | 88 | 1014.7 |
| 20260902010646 | 83 | 224 | 0.0 | 0.0 | 0.00 | 0.01 | 0.01 | 88 | 1014.7 |
| 20260902010558 | 83 | 224 | 0.0 | 0.0 | 0.00 | 0.01 | 0.01 | 88 | 1014.6 |
| 20260902010429 | 83 | 224 | 0.0 | 1.0 | 0.00 | 0.01 | 0.01 | 88 | 1014.7 |
| 20260902010340 | 83 | 224 | 0.0 | 1.0 | 0.00 | 0.01 | 0.01 | 88 | 1014.7 |
| 20260902010231 | 83 | 224 | 0.0 | 2.0 | 0.00 | 0.01 | 0.01 | 88 | 1014.6 |
| 20260902010154 | 83 | 224 | 0.0 | 2.0 | 0.00 | 0.01 | 0.01 | 88 | 1014.6 |
| 20260902010030 | 83 | 224 | 0.0 | 2.0 | 0.00 | 0.01 | 0.01 | 88 | 1014.5 |
| 20260902005941 | 83 | 224 | 0.0 | 2.0 | 0.00 | 0.01 | 0.01 | 88 | 1014.6 |
| 20260902005853 | 83 | 224 | 0.0 | 2.0 | 0.00 | 0.01 | 0.01 | 88 | 1014.5 |
| 20260902005725 | 83 | 224 | 0.0 | 2.0 | 0.00 | 0.01 | 0.01 | 88 | 1014.6 |
| 20260902005637 | 83 | 224 | 0.0 | 2.0 | 0.00 | 0.01 | 0.01 | 88 | 1014.6 |
| 20260902005527 | 83 | 224 | 1.0 | 2.0 | 0.00 | 0.01 | 0.01 | 88 | 1014.6 |
| 20260902005439 | 83 | 224 | 1.0 | 2.0 | 0.00 | 0.01 | 0.01 | 88 | 1014.6 |
| 20260902005332 | 83 | 224 | 1.0 | 2.0 | 0.00 | 0.01 | 0.01 | 88 | 1014.5 |
| 20260902005229 | 83 | 224 | 0.0 | 2.0 | 0.00 | 0.01 | 0.01 | 87 | 1014.6 |
| 20260902005141 | 83 | 224 | 0.0 | 2.0 | 0.00 | 0.01 | 0.01 | 87 | 1014.6 |
| 20260902005033 | 84 | 224 | 0.0 | 2.0 | 0.00 | 0.01 | 0.01 | 87 | 1014.6 |
| 20260902004945 | 84 | 224 | 1.0 | 2.0 | 0.00 | 0.01 | 0.01 | 87 | 1014.6 |
| 20260902004835 | 84 | 224 | 0.0 | 2.0 | 0.00 | 0.01 | 0.01 | 87 | 1014.7 |
| 20260902004727 | 84 | 224 | 0.0 | 2.0 | 0.00 | 0.01 | 0.01 | 87 | 1014.7 |
| 20260902004648 | 84 | 224 | 0.0 | 2.0 | 0.00 | 0.01 | 0.01 | 87 | 1014.6 |
| 20260902004541 | 84 | 224 | 0.0 | 2.0 | 0.00 | 0.01 | 0.01 | 87 | 1014.6 |
| 20260902004432 | 84 | 224 | 1.0 | 2.0 | 0.00 | 0.01 | 0.01 | 87 | 1014.7 |
| 20260902004343 | 84 | 224 | 1.0 | 2.0 | 0.00 | 0.01 | 0.01 | 87 | 1014.7 |
| 20260902004300 | 84 | 224 | 0.0 | 1.0 | 0.00 | 0.01 | 0.01 | 87 | 1014.5 |
| 20260902004130 | 84 | 224 | 0.0 | 1.0 | 0.00 | 0.01 | 0.01 | 87 | 1014.7 |
| 20260902004022 | 84 | 224 | 0.0 | 1.0 | 0.00 | 0.01 | 0.01 | 87 | 1014.7 |
| 20260902003934 | 84 | 224 | 0.0 | 1.0 | 0.00 | 0.01 | 0.01 | 87 | 1014.6 |
| 20260902003847 | 84 | 224 | 0.0 | 1.0 | 0.00 | 0.01 | 0.01 | 87 | 1014.7 |
| 20260902003737 | 84 | 224 | 0.0 | 1.0 | 0.00 | 0.01 | 0.01 | 87 | 1014.7 |
| 20260902003629 | 84 | 224 | 0.0 | 1.0 | 0.00 | 0.01 | 0.01 | 87 | 1014.7 |
| 20260902003542 | 84 | 224 | 0.0 | 1.0 | 0.00 | 0.01 | 0.01 | 87 | 1014.7 |
| 20260902003454 | 84 | 224 | 0.0 | 1.0 | 0.00 | 0.01 | 0.01 | 87 | 1014.7 |
| 20260902003345 | 84 | 224 | 0.0 | 2.0 | 0.00 | 0.01 | 0.01 | 87 | 1014.7 |
| 20260902003300 | 84 | 224 | 0.0 | 2.0 | 0.00 | 0.01 | 0.01 | 87 | 1014.7 |
| 20260902003201 | 84 | 224 | 0.0 | 2.0 | 0.00 | 0.01 | 0.01 | 87 | 1014.7 |
| 20260902003032 | 84 | 224 | 0.0 | 2.0 | 0.00 | 0.01 | 0.01 | 87 | 1014.7 |
| 20260902002924 | 84 | 224 | 0.0 | 2.0 | 0.00 | 0.01 | 0.01 | 87 | 1014.7 |
| 20260902002837 | 84 | 224 | 0.0 | 2.0 | 0.00 | 0.01 | 0.01 | 87 | 1014.7 |
| 20260902002728 | 85 | 224 | 0.0 | 2.0 | 0.00 | 0.01 | 0.01 | 87 | 1014.8 |
| 20260902002640 | 85 | 224 | 1.0 | 2.0 | 0.00 | 0.01 | 0.01 | 87 | 1014.8 |
| 20260902002531 | 85 | 224 | 0.0 | 2.0 | 0.00 | 0.01 | 0.01 | 87 | 1014.8 |
| 20260902002428 | 85 | 224 | 0.0 | 2.0 | 0.00 | 0.01 | 0.01 | 87 | 1014.7 |
| 20260902002340 | 85 | 224 | 0.0 | 2.0 | 0.00 | 0.01 | 0.01 | 87 | 1014.7 |
| 20260902002233 | 85 | 224 | 0.0 | 2.0 | 0.00 | 0.01 | 0.01 | 86 | 1014.7 |
| 20260902002124 | 85 | 224 | 1.0 | 2.0 | 0.00 | 0.01 | 0.01 | 86 | 1014.8 |
| 20260902002036 | 85 | 224 | 1.0 | 2.0 | 0.00 | 0.01 | 0.01 | 86 | 1014.9 |
| 20260902001927 | 85 | 224 | 0.0 | 2.0 | 0.00 | 0.01 | 0.01 | 86 | 1014.8 |
| 20260902001838 | 85 | 224 | 0.0 | 2.0 | 0.00 | 0.01 | 0.01 | 86 | 1014.8 |
| 20260902001729 | 85 | 224 | 0.0 | 2.0 | 0.00 | 0.01 | 0.01 | 86 | 1014.8 |
| 20260902001651 | 85 | 224 | 1.0 | 2.0 | 0.00 | 0.01 | 0.01 | 86 | 1014.8 |
| 20260902001546 | 85 | 224 | 0.0 | 1.0 | 0.00 | 0.01 | 0.01 | 86 | 1014.8 |
| 20260902001437 | 85 | 224 | 0.0 | 1.0 | 0.00 | 0.01 | 0.01 | 86 | 1014.8 |
| 20260902001350 | 85 | 224 | 0.0 | 1.0 | 0.00 | 0.01 | 0.01 | 86 | 1014.8 |
| 20260902001222 | 85 | 224 | 0.0 | 1.0 | 0.00 | 0.01 | 0.01 | 86 | 1014.8 |
| 20260902001134 | 85 | 224 | 0.0 | 1.0 | 0.00 | 0.01 | 0.01 | 86 | 1014.8 |
| 20260902001026 | 85 | 224 | 0.0 | 1.0 | 0.00 | 0.01 | 0.01 | 86 | 1014.8 |
| 20260902000939 | 86 | 224 | 0.0 | 1.0 | 0.00 | 0.01 | 0.01 | 86 | 1014.8 |
| 20260902000831 | 86 | 224 | 0.0 | 1.0 | 0.00 | 0.01 | 0.01 | 86 | 1014.8 |
| 20260902000723 | 86 | 224 | 0.0 | 1.0 | 0.00 | 0.01 | 0.01 | 86 | 1014.8 |
| 20260902000640 | 86 | 224 | 0.0 | 1.0 | 0.00 | 0.01 | 0.01 | 86 | 1014.8 |
| 20260902000553 | 86 | 224 | 0.0 | 1.0 | 0.00 | 0.01 | 0.01 | 85 | 1014.8 |
| 20260902000504 | 86 | 224 | 0.0 | 1.0 | 0.00 | 0.01 | 0.01 | 85 | 1014.8 |
| 20260902000416 | 86 | 224 | 0.0 | 1.0 | 0.00 | 0.01 | 0.01 | 85 | 1014.8 |
| 20260902000306 | 86 | 224 | 0.0 | 1.0 | 0.00 | 0.01 | 0.01 | 85 | 1014.8 |
| 20260902000205 | 86 | 224 | 0.0 | 1.0 | 0.00 | 0.01 | 0.01 | 85 | 1014.8 |
| 20260902000035 | 86 | 224 | 0.0 | 1.0 | 0.00 | 0.01 | 0.01 | 85 | 1014.9 |
| 20260901235928 | 86 | 224 | 0.0 | 1.0 | 0.00 | 0.01 | 0.01 | 85 | 1014.8 |
| 20260901235841 | 86 | 224 | 0.0 | 1.0 | 0.00 | 0.01 | 0.01 | 85 | 1014.8 |
| 20260901235733 | 87 | 224 | 0.0 | 1.0 | 0.00 | 0.01 | 0.01 | 85 | 1014.8 |
| 20260901235629 | 87 | 224 | 0.0 | 1.0 | 0.00 | 0.01 | 0.01 | 85 | 1014.7 |
| 20260901235540 | 87 | 224 | 0.0 | 1.0 | 0.00 | 0.01 | 0.01 | 85 | 1014.8 |
| 20260901235432 | 87 | 224 | 0.0 | 1.0 | 0.00 | 0.01 | 0.01 | 85 | 1014.8 |
| 20260901235325 | 87 | 224 | 0.0 | 1.0 | 0.00 | 0.01 | 0.01 | 84 | 1014.8 |
| 20260901235238 | 87 | 224 | 0.0 | 1.0 | 0.00 | 0.01 | 0.01 | 84 | 1014.9 |
| 20260901235130 | 87 | 224 | 0.0 | 1.0 | 0.00 | 0.01 | 0.01 | 84 | 1014.8 |
| 20260901235042 | 87 | 224 | 0.0 | 1.0 | 0.00 | 0.01 | 0.01 | 84 | 1014.9 |
| 20260901234934 | 87 | 224 | 0.0 | 1.0 | 0.00 | 0.01 | 0.01 | 84 | 1014.9 |
| 20260901234846 | 87 | 224 | 0.0 | 1.0 | 0.00 | 0.01 | 0.01 | 84 | 1014.9 |
| 20260901234803 | 87 | 224 | 0.0 | 1.0 | 0.00 | 0.01 | 0.01 | 84 | 1014.9 |
| 20260901234704 | 87 | 224 | 0.0 | 1.0 | 0.00 | 0.01 | 0.01 | 84 | 1014.9 |
| 20260901234556 | 87 | 224 | 0.0 | 1.0 | 0.00 | 0.01 | 0.01 | 84 | 1014.9 |
| 20260901234428 | 88 | 224 | 0.0 | 1.0 | 0.00 | 0.01 | 0.01 | 84 | 1014.9 |
| 20260901234341 | 88 | 224 | 0.0 | 2.0 | 0.00 | 0.01 | 0.01 | 84 | 1014.9 |
| 20260901234233 | 88 | 224 | 0.0 | 2.0 | 0.00 | 0.01 | 0.01 | 83 | 1014.9 |
| 20260901234125 | 88 | 224 | 0.0 | 2.0 | 0.00 | 0.01 | 0.01 | 83 | 1015.0 |
| 20260901234037 | 88 | 224 | 0.0 | 2.0 | 0.00 | 0.01 | 0.01 | 83 | 1014.9 |
| 20260901233948 | 88 | 224 | 0.0 | 2.0 | 0.00 | 0.01 | 0.01 | 83 | 1015.0 |
| 20260901233824 | 88 | 224 | 0.0 | 2.0 | 0.00 | 0.01 | 0.01 | 83 | 1014.9 |
| 20260901233735 | 88 | 224 | 0.0 | 2.0 | 0.00 | 0.01 | 0.01 | 83 | 1014.9 |
| 20260901233646 | 88 | 224 | 1.0 | 2.0 | 0.00 | 0.01 | 0.01 | 83 | 1015.0 |
| 20260901233536 | 88 | 224 | 0.0 | 2.0 | 0.00 | 0.01 | 0.01 | 83 | 1014.9 |
| 20260901233428 | 88 | 224 | 0.0 | 1.0 | 0.00 | 0.01 | 0.01 | 83 | 1014.9 |
| 20260901233341 | 88 | 224 | 0.0 | 1.0 | 0.00 | 0.01 | 0.01 | 83 | 1015.0 |
| 20260901233231 | 89 | 224 | 0.0 | 1.0 | 0.00 | 0.01 | 0.01 | 82 | 1015.0 |
| 20260901233154 | 89 | 224 | 0.0 | 1.0 | 0.00 | 0.01 | 0.01 | 82 | 1015.0 |
| 20260901233024 | 89 | 224 | 0.0 | 1.0 | 0.00 | 0.01 | 0.01 | 82 | 1014.9 |
| 20260901232937 | 89 | 224 | 0.0 | 1.0 | 0.00 | 0.01 | 0.01 | 82 | 1015.0 |
| 20260901232832 | 89 | 224 | 0.0 | 1.0 | 0.00 | 0.01 | 0.01 | 82 | 1015.1 |
| 20260901232722 | 89 | 224 | 0.0 | 1.0 | 0.00 | 0.01 | 0.01 | 82 | 1015.1 |
| 20260901232634 | 89 | 224 | 0.0 | 1.0 | 0.00 | 0.01 | 0.01 | 81 | 1015.1 |
| 20260901232526 | 89 | 224 | 0.0 | 1.0 | 0.00 | 0.01 | 0.01 | 81 | 1015.0 |
| 20260901232438 | 89 | 224 | 0.0 | 1.0 | 0.00 | 0.01 | 0.01 | 81 | 1015.0 |
| 20260901232331 | 89 | 224 | 0.0 | 1.0 | 0.00 | 0.01 | 0.01 | 81 | 1015.0 |
| 20260901232223 | 89 | 224 | 0.0 | 1.0 | 0.00 | 0.01 | 0.01 | 81 | 1015.1 |
| 20260901232134 | 89 | 224 | 0.0 | 1.0 | 0.00 | 0.01 | 0.01 | 81 | 1015.0 |
| 20260901232030 | 89 | 224 | 0.0 | 1.0 | 0.00 | 0.01 | 0.01 | 81 | 1015.0 |
| 20260901231922 | 89 | 224 | 0.0 | 1.0 | 0.00 | 0.01 | 0.01 | 80 | 1015.1 |
| 20260901231834 | 89 | 224 | 0.0 | 1.0 | 0.00 | 0.01 | 0.01 | 80 | 1015.1 |
| 20260901231726 | 89 | 224 | 0.0 | 1.0 | 0.00 | 0.01 | 0.01 | 80 | 1015.1 |
| 20260901231648 | 89 | 224 | 0.0 | 1.0 | 0.00 | 0.01 | 0.01 | 80 | 1015.0 |
| 20260901231539 | 89 | 224 | 0.0 | 1.0 | 0.00 | 0.01 | 0.01 | 80 | 1015.1 |
| 20260901231430 | 90 | 224 | 0.0 | 1.0 | 0.00 | 0.01 | 0.01 | 80 | 1015.1 |
| 20260901231343 | 90 | 224 | 0.0 | 1.0 | 0.00 | 0.01 | 0.01 | 80 | 1015.1 |
| 20260901231234 | 90 | 224 | 0.0 | 1.0 | 0.00 | 0.01 | 0.01 | 79 | 1015.1 |
| 20260901231131 | 90 | 224 | 0.0 | 1.0 | 0.00 | 0.01 | 0.01 | 79 | 1015.1 |
| 20260901231022 | 90 | 224 | 0.0 | 1.0 | 0.00 | 0.01 | 0.01 | 79 | 1015.2 |
| 20260901230933 | 90 | 224 | 0.0 | 1.0 | 0.00 | 0.01 | 0.01 | 79 | 1015.1 |
| 20260901230825 | 90 | 224 | 0.0 | 1.0 | 0.00 | 0.01 | 0.01 | 79 | 1015.1 |
| 20260901230738 | 90 | 224 | 0.0 | 1.0 | 0.00 | 0.01 | 0.01 | 79 | 1015.1 |
| 20260901230650 | 90 | 223 | 0.0 | 1.0 | 0.00 | 0.01 | 0.01 | 79 | 1015.2 |
| 20260901230541 | 90 | 224 | 0.0 | 1.0 | 0.00 | 0.01 | 0.01 | 79 | 1015.1 |
| 20260901230432 | 90 | 224 | 0.0 | 1.0 | 0.00 | 0.01 | 0.01 | 79 | 1015.1 |
| 20260901230328 | 90 | 224 | 0.0 | 1.0 | 0.00 | 0.01 | 0.01 | 79 | 1015.2 |
| 20260901230238 | 90 | 224 | 0.0 | 1.0 | 0.00 | 0.01 | 0.01 | 79 | 1015.2 |
| 20260901230200 | 90 | 224 | 0.0 | 1.0 | 0.00 | 0.01 | 0.01 | 78 | 1015.2 |
| 20260901230030 | 90 | 224 | 0.0 | 1.0 | 0.00 | 0.01 | 0.01 | 78 | 1015.2 |
| 20260901225942 | 90 | 224 | 0.0 | 1.0 | 0.00 | 0.01 | 0.01 | 78 | 1015.1 |
| 20260901225833 | 90 | 224 | 0.0 | 1.0 | 0.00 | 0.01 | 0.01 | 78 | 1015.2 |
| 20260901225724 | 90 | 224 | 0.0 | 1.0 | 0.00 | 0.01 | 0.01 | 78 | 1015.2 |
| 20260901225636 | 90 | 224 | 0.0 | 1.0 | 0.00 | 0.01 | 0.01 | 78 | 1015.2 |
| 20260901225549 | 90 | 224 | 0.0 | 1.0 | 0.00 | 0.01 | 0.01 | 78 | 1015.2 |
| 20260901225500 | 90 | 224 | 0.0 | 1.0 | 0.00 | 0.01 | 0.01 | 78 | 1015.2 |
| 20260901225334 | 90 | 224 | 0.0 | 1.0 | 0.00 | 0.01 | 0.01 | 78 | 1015.2 |
| 20260901225246 | 90 | 224 | 0.0 | 1.0 | 0.00 | 0.01 | 0.01 | 78 | 1015.2 |
| 20260901225137 | 90 | 224 | 0.0 | 1.0 | 0.00 | 0.01 | 0.01 | 78 | 1015.2 |
| 20260901225048 | 90 | 224 | 0.0 | 1.0 | 0.00 | 0.01 | 0.01 | 78 | 1015.2 |
| 20260901224940 | 90 | 224 | 0.0 | 1.0 | 0.00 | 0.01 | 0.01 | 78 | 1015.3 |
| 20260901224831 | 90 | 224 | 0.0 | 1.0 | 0.00 | 0.01 | 0.01 | 78 | 1015.3 |
| 20260901224724 | 90 | 224 | 0.0 | 1.0 | 0.00 | 0.01 | 0.01 | 78 | 1015.3 |
| 20260901224645 | 90 | 224 | 0.0 | 1.0 | 0.00 | 0.01 | 0.01 | 78 | 1015.3 |
| 20260901224537 | 90 | 224 | 0.0 | 1.0 | 0.00 | 0.01 | 0.01 | 78 | 1015.3 |
| 20260901224429 | 90 | 224 | 0.0 | 2.0 | 0.00 | 0.01 | 0.01 | 78 | 1015.3 |
| 20260901224346 | 90 | 224 | 0.0 | 2.0 | 0.00 | 0.01 | 0.01 | 78 | 1015.4 |
| 20260901224237 | 90 | 223 | 0.0 | 2.0 | 0.00 | 0.01 | 0.01 | 78 | 1015.3 |
| 20260901224149 | 90 | 224 | 0.0 | 2.0 | 0.00 | 0.01 | 0.01 | 77 | 1015.3 |
| 20260901224040 | 90 | 224 | 0.0 | 2.0 | 0.00 | 0.01 | 0.01 | 78 | 1015.2 |
| 20260901223951 | 90 | 224 | 0.0 | 2.0 | 0.00 | 0.01 | 0.01 | 78 | 1015.2 |
| 20260901223902 | 90 | 224 | 0.0 | 2.0 | 0.00 | 0.01 | 0.01 | 78 | 1015.3 |
| 20260901223753 | 90 | 224 | 1.0 | 2.0 | 0.00 | 0.01 | 0.01 | 77 | 1015.3 |
| 20260901223623 | 90 | 224 | 0.0 | 2.0 | 0.00 | 0.01 | 0.01 | 78 | 1015.3 |
| 20260901223534 | 90 | 232 | 0.0 | 1.0 | 0.00 | 0.01 | 0.01 | 78 | 1015.4 |
| 20260901223427 | 90 | 232 | 0.0 | 1.0 | 0.00 | 0.01 | 0.01 | 78 | 1015.3 |
| 20260901223340 | 90 | 232 | 0.0 | 1.0 | 0.00 | 0.01 | 0.01 | 78 | 1015.4 |
| 20260901223258 | 90 | 232 | 0.0 | 1.0 | 0.00 | 0.01 | 0.01 | 78 | 1015.4 |
| 20260901223217 | 90 | 232 | 0.0 | 1.0 | 0.00 | 0.01 | 0.01 | 79 | 1015.3 |
| 20260901223046 | 90 | 232 | 0.0 | 2.0 | 0.00 | 0.01 | 0.01 | 79 | 1015.3 |
| 20260901222958 | 91 | 232 | 0.0 | 2.0 | 0.00 | 0.01 | 0.01 | 78 | 1015.3 |
| 20260901222850 | 91 | 232 | 0.0 | 3.0 | 0.00 | 0.01 | 0.01 | 78 | 1015.3 |
| 20260901222740 | 91 | 232 | 0.0 | 3.0 | 0.00 | 0.01 | 0.01 | 78 | 1015.4 |
| 20260901222652 | 91 | 232 | 0.0 | 3.0 | 0.00 | 0.01 | 0.01 | 78 | 1015.3 |
| 20260901222522 | 90 | 232 | 0.0 | 3.0 | 0.00 | 0.01 | 0.01 | 78 | 1015.4 |
| 20260901222434 | 90 | 232 | 0.0 | 3.0 | 0.00 | 0.01 | 0.01 | 78 | 1015.3 |
| 20260901222346 | 90 | 232 | 0.0 | 3.0 | 0.00 | 0.01 | 0.01 | 77 | 1015.3 |
| 20260901222258 | 90 | 232 | 1.0 | 3.0 | 0.00 | 0.01 | 0.01 | 77 | 1015.3 |
| 20260901222133 | 90 | 232 | 1.0 | 3.0 | 0.00 | 0.01 | 0.01 | 77 | 1015.3 |
| 20260901222024 | 90 | 232 | 0.0 | 3.0 | 0.00 | 0.01 | 0.01 | 78 | 1015.3 |
| 20260901221935 | 90 | 232 | 0.0 | 0.0 | 0.00 | 0.01 | 0.01 | 78 | 1015.4 |
| 20260901221847 | 90 | 232 | 0.0 | 0.0 | 0.00 | 0.01 | 0.01 | 78 | 1015.3 |
| 20260901221759 | 90 | 232 | 0.0 | 1.0 | 0.00 | 0.01 | 0.01 | 78 | 1015.3 |
| 20260901221721 | 90 | 232 | 0.0 | 3.0 | 0.00 | 0.01 | 0.01 | 78 | 1015.3 |
| 20260901221532 | 90 | 232 | 0.0 | 3.0 | 0.00 | 0.01 | 0.01 | 79 | 1015.3 |
| 20260901221444 | 90 | 232 | 0.0 | 3.0 | 0.00 | 0.01 | 0.01 | 78 | 1015.3 |
| 20260901221334 | 90 | 232 | 0.0 | 3.0 | 0.00 | 0.01 | 0.01 | 78 | 1015.3 |
| 20260901221226 | 90 | 232 | 0.0 | 4.0 | 0.00 | 0.01 | 0.01 | 78 | 1015.3 |
| 20260901221123 | 90 | 232 | 0.0 | 4.0 | 0.00 | 0.01 | 0.01 | 78 | 1015.3 |
| 20260901221035 | 90 | 232 | 1.0 | 4.0 | 0.00 | 0.01 | 0.01 | 78 | 1015.3 |
| 20260901220928 | 90 | 232 | 2.0 | 4.0 | 0.00 | 0.01 | 0.01 | 78 | 1015.3 |
| 20260901220839 | 90 | 263 | 2.0 | 4.0 | 0.00 | 0.01 | 0.01 | 78 | 1015.3 |
| 20260901220731 | 90 | 237 | 1.0 | 4.0 | 0.00 | 0.01 | 0.01 | 79 | 1015.3 |
| 20260901220643 | 90 | 236 | 1.0 | 4.0 | 0.00 | 0.01 | 0.01 | 78 | 1015.2 |
| 20260901220555 | 90 | 236 | 2.0 | 4.0 | 0.00 | 0.01 | 0.01 | 78 | 1015.2 |
| 20260901220446 | 90 | 236 | 1.0 | 4.0 | 0.00 | 0.01 | 0.01 | 78 | 1015.2 |
| 20260901220400 | 90 | 250 | 0.0 | 3.0 | 0.00 | 0.01 | 0.01 | 78 | 1015.3 |
| 20260901220228 | 90 | 250 | 1.0 | 3.0 | 0.00 | 0.01 | 0.01 | 78 | 1015.2 |
| 20260901220154 | 90 | 250 | 1.0 | 3.0 | 0.00 | 0.01 | 0.01 | 78 | 1015.2 |
| 20260901220044 | 90 | 250 | 1.0 | 3.0 | 0.00 | 0.01 | 0.01 | 78 | 1015.3 |
| 20260901215956 | 90 | 250 | 1.0 | 5.0 | 0.00 | 0.01 | 0.01 | 78 | 1015.2 |
| 20260901215828 | 90 | 250 | 1.0 | 5.0 | 0.00 | 0.01 | 0.01 | 78 | 1015.2 |
| 20260901215740 | 90 | 250 | 1.0 | 5.0 | 0.00 | 0.01 | 0.01 | 78 | 1015.2 |
| 20260901215632 | 90 | 250 | 1.0 | 5.0 | 0.00 | 0.01 | 0.01 | 77 | 1015.2 |
| 20260901215524 | 90 | 250 | 1.0 | 5.0 | 0.00 | 0.01 | 0.01 | 77 | 1015.2 |
| 20260901215435 | 90 | 250 | 1.0 | 5.0 | 0.00 | 0.01 | 0.01 | 77 | 1015.1 |
| 20260901215349 | 90 | 250 | 2.0 | 5.0 | 0.00 | 0.01 | 0.01 | 77 | 1015.2 |
| 20260901215223 | 91 | 250 | 2.0 | 5.0 | 0.00 | 0.01 | 0.01 | 77 | 1015.2 |